<?xml version="1.0" encoding="UTF-8" standalone="no" ?>
<gpx xmlns="http://www.topografix.com/GPX/1/1" creator="MapSource 6.16.3" version="1.1" xmlns:xsi="http://www.w3.org/2001/XMLSchema-instance" xsi:schemaLocation="http://www.topografix.com/GPX/1/1 http://www.topografix.com/GPX/1/1/gpx.xsd">

  <metadata>
    <link href="http://www.garmin.com">
      <text>Garmin International</text>
    </link>
    <time>2016-09-15T12:44:08Z</time>
    <bounds maxlat="45.839589927345514" maxlon="8.946059988811612" minlat="45.806550979614258" minlon="8.906879117712379"/>
  </metadata>

  <wpt lat="45.811090199276805" lon="8.920742282643914">
    <name>CAGNO - PARTENZA</name>
    <cmt>CAGNO</cmt>
    <desc>CAGNO</desc>
    <sym>Trail Head</sym>
    <extensions>
      <gpxx:WaypointExtension xmlns:gpxx="http://www.garmin.com/xmlschemas/GpxExtensions/v3">
        <gpxx:DisplayMode>SymbolAndName</gpxx:DisplayMode>
      </gpxx:WaypointExtension>
    </extensions>
  </wpt>

  <wpt lat="45.837638368830085" lon="8.945935685187578">
    <name>MAD. BIZZARRONE</name>
    <cmt>12-AGO-05 16:05:12</cmt>
    <desc>12-AGO-05 16:05:12</desc>
    <sym>Church</sym>
    <extensions>
      <gpxx:WaypointExtension xmlns:gpxx="http://www.garmin.com/xmlschemas/GpxExtensions/v3">
        <gpxx:DisplayMode>SymbolAndName</gpxx:DisplayMode>
      </gpxx:WaypointExtension>
    </extensions>
  </wpt>

  <wpt lat="45.832185689359903" lon="8.922925097867847">
    <ele>502</ele>
    <name>SAN MAFFEO</name>
    <cmt>12-AGO-05 16:44:33</cmt>
    <desc>12-AGO-05 16:44:33</desc>
    <sym>Church</sym>
    <extensions>
      <gpxx:WaypointExtension xmlns:gpxx="http://www.garmin.com/xmlschemas/GpxExtensions/v3">
        <gpxx:DisplayMode>SymbolAndName</gpxx:DisplayMode>
      </gpxx:WaypointExtension>
    </extensions>
  </wpt>

  <wpt lat="45.837639542296529" lon="8.93677300773561">
    <ele>427</ele>
    <name>SORGENTE</name>
    <cmt>12-AGO-05 16:09:39</cmt>
    <desc>12-AGO-05 16:09:39</desc>
    <sym>Drinking Water</sym>
    <extensions>
      <gpxx:WaypointExtension xmlns:gpxx="http://www.garmin.com/xmlschemas/GpxExtensions/v3">
        <gpxx:DisplayMode>SymbolAndName</gpxx:DisplayMode>
      </gpxx:WaypointExtension>
    </extensions>
  </wpt>

  <trk>
    <name>ACTIVE LOG</name>
    <extensions>
      <gpxx:TrackExtension xmlns:gpxx="http://www.garmin.com/xmlschemas/GpxExtensions/v3">
        <gpxx:DisplayColor>Cyan</gpxx:DisplayColor>
      </gpxx:TrackExtension>
    </extensions>
    <trkseg>
      <trkpt lat="45.810724664479494" lon="8.921407721936703">
        <ele>409.6590576171875</ele>
        <time>2005-08-12T13:34:48Z</time>
      </trkpt>
      <trkpt lat="45.81063405610621" lon="8.92157468944788">
        <ele>409.6590576171875</ele>
        <time>2005-08-12T13:34:51Z</time>
      </trkpt>
      <trkpt lat="45.810526348650455" lon="8.921640990301967">
        <ele>409.1783447265625</ele>
        <time>2005-08-12T13:34:54Z</time>
      </trkpt>
      <trkpt lat="45.810425179079175" lon="8.921703267842531">
        <ele>410.1396484375</ele>
        <time>2005-08-12T13:34:57Z</time>
      </trkpt>
      <trkpt lat="45.81031889654696" lon="8.921768646687269">
        <ele>409.6590576171875</ele>
        <time>2005-08-12T13:35:00Z</time>
      </trkpt>
      <trkpt lat="45.810203896835446" lon="8.921839473769069">
        <ele>409.1783447265625</ele>
        <time>2005-08-12T13:35:03Z</time>
      </trkpt>
      <trkpt lat="45.810076240450144" lon="8.921903846785426">
        <ele>409.6590576171875</ele>
        <time>2005-08-12T13:35:06Z</time>
      </trkpt>
      <trkpt lat="45.809987643733621" lon="8.921948103234172">
        <ele>409.6590576171875</ele>
        <time>2005-08-12T13:35:08Z</time>
      </trkpt>
      <trkpt lat="45.809900471940637" lon="8.921991772949696">
        <ele>409.1783447265625</ele>
        <time>2005-08-12T13:35:10Z</time>
      </trkpt>
      <trkpt lat="45.80981413833797" lon="8.922034939751029">
        <ele>409.1783447265625</ele>
        <time>2005-08-12T13:35:12Z</time>
      </trkpt>
      <trkpt lat="45.809733169153333" lon="8.922075424343348">
        <ele>409.1783447265625</ele>
        <time>2005-08-12T13:35:14Z</time>
      </trkpt>
      <trkpt lat="45.809621522203088" lon="8.922100067138672">
        <ele>409.1783447265625</ele>
        <time>2005-08-12T13:35:16Z</time>
      </trkpt>
      <trkpt lat="45.809530662372708" lon="8.922100067138672">
        <ele>408.6976318359375</ele>
        <time>2005-08-12T13:35:18Z</time>
      </trkpt>
      <trkpt lat="45.809439886361361" lon="8.922100067138672">
        <ele>409.1783447265625</ele>
        <time>2005-08-12T13:35:20Z</time>
      </trkpt>
      <trkpt lat="45.809321366250515" lon="8.92210777848959">
        <ele>409.1783447265625</ele>
        <time>2005-08-12T13:35:23Z</time>
      </trkpt>
      <trkpt lat="45.809200499206781" lon="8.922156058251858">
        <ele>409.1783447265625</ele>
        <time>2005-08-12T13:35:26Z</time>
      </trkpt>
      <trkpt lat="45.809083571657538" lon="8.922202829271555">
        <ele>410.1396484375</ele>
        <time>2005-08-12T13:35:29Z</time>
      </trkpt>
      <trkpt lat="45.808970080688596" lon="8.922248343005776">
        <ele>411.5816650390625</ele>
        <time>2005-08-12T13:35:32Z</time>
      </trkpt>
      <trkpt lat="45.808875868096948" lon="8.922378178685904">
        <ele>411.1009521484375</ele>
        <time>2005-08-12T13:35:35Z</time>
      </trkpt>
      <trkpt lat="45.8087816555053" lon="8.92250893637538">
        <ele>410.6202392578125</ele>
        <time>2005-08-12T13:35:38Z</time>
      </trkpt>
      <trkpt lat="45.808689706027508" lon="8.922625109553337">
        <ele>410.6202392578125</ele>
        <time>2005-08-12T13:35:41Z</time>
      </trkpt>
      <trkpt lat="45.80860136076808" lon="8.922752849757671">
        <ele>411.1009521484375</ele>
        <time>2005-08-12T13:35:44Z</time>
      </trkpt>
      <trkpt lat="45.808515697717667" lon="8.922876566648483">
        <ele>411.1009521484375</ele>
        <time>2005-08-12T13:35:47Z</time>
      </trkpt>
      <trkpt lat="45.808435818180442" lon="8.922991985455155">
        <ele>411.5816650390625</ele>
        <time>2005-08-12T13:35:50Z</time>
      </trkpt>
      <trkpt lat="45.808361303061247" lon="8.923099609091878">
        <ele>411.1009521484375</ele>
        <time>2005-08-12T13:35:53Z</time>
      </trkpt>
      <trkpt lat="45.808290475979447" lon="8.923199605196714">
        <ele>410.6202392578125</ele>
        <time>2005-08-12T13:35:56Z</time>
      </trkpt>
      <trkpt lat="45.808205986395478" lon="8.92331225797534">
        <ele>410.6202392578125</ele>
        <time>2005-08-12T13:35:59Z</time>
      </trkpt>
      <trkpt lat="45.808118814602494" lon="8.923428514972329">
        <ele>410.6202392578125</ele>
        <time>2005-08-12T13:36:02Z</time>
      </trkpt>
      <trkpt lat="45.808034827932715" lon="8.923540497198701">
        <ele>410.1396484375</ele>
        <time>2005-08-12T13:36:05Z</time>
      </trkpt>
      <trkpt lat="45.807946063578129" lon="8.923658933490515">
        <ele>409.6590576171875</ele>
        <time>2005-08-12T13:36:08Z</time>
      </trkpt>
      <trkpt lat="45.807854868471622" lon="8.923780471086502">
        <ele>410.1396484375</ele>
        <time>2005-08-12T13:36:11Z</time>
      </trkpt>
      <trkpt lat="45.807764763012528" lon="8.92390058375895">
        <ele>409.6590576171875</ele>
        <time>2005-08-12T13:36:14Z</time>
      </trkpt>
      <trkpt lat="45.807671137154102" lon="8.924025557935238">
        <ele>409.1783447265625</ele>
        <time>2005-08-12T13:36:17Z</time>
      </trkpt>
      <trkpt lat="45.807582791894674" lon="8.924143239855766">
        <ele>408.6976318359375</ele>
        <time>2005-08-12T13:36:20Z</time>
      </trkpt>
      <trkpt lat="45.807497631758451" lon="8.924256898462772">
        <ele>408.217041015625</ele>
        <time>2005-08-12T13:36:23Z</time>
      </trkpt>
      <trkpt lat="45.807409286499023" lon="8.924374580383301">
        <ele>408.6976318359375</ele>
        <time>2005-08-12T13:36:26Z</time>
      </trkpt>
      <trkpt lat="45.807335525751114" lon="8.924503661692143">
        <ele>408.217041015625</ele>
        <time>2005-08-12T13:36:29Z</time>
      </trkpt>
      <trkpt lat="45.807261681184173" lon="8.924632826820016">
        <ele>408.217041015625</ele>
        <time>2005-08-12T13:36:32Z</time>
      </trkpt>
      <trkpt lat="45.807211473584175" lon="8.924769535660744">
        <ele>408.6976318359375</ele>
        <time>2005-08-12T13:36:35Z</time>
      </trkpt>
      <trkpt lat="45.807165540754795" lon="8.924936251714826">
        <ele>408.217041015625</ele>
        <time>2005-08-12T13:36:38Z</time>
      </trkpt>
      <trkpt lat="45.807122457772493" lon="8.925092406570911">
        <ele>408.6976318359375</ele>
        <time>2005-08-12T13:36:41Z</time>
      </trkpt>
      <trkpt lat="45.807073675096035" lon="8.925269264727831">
        <ele>408.6976318359375</ele>
        <time>2005-08-12T13:36:44Z</time>
      </trkpt>
      <trkpt lat="45.807038890197873" lon="8.925395328551531">
        <ele>408.217041015625</ele>
        <time>2005-08-12T13:36:46Z</time>
      </trkpt>
      <trkpt lat="45.80700259655714" lon="8.925527008250356">
        <ele>408.217041015625</ele>
        <time>2005-08-12T13:36:48Z</time>
      </trkpt>
      <trkpt lat="45.806966805830598" lon="8.925656592473388">
        <ele>408.217041015625</ele>
        <time>2005-08-12T13:36:50Z</time>
      </trkpt>
      <trkpt lat="45.806932440027595" lon="8.92578131519258">
        <ele>408.217041015625</ele>
        <time>2005-08-12T13:36:52Z</time>
      </trkpt>
      <trkpt lat="45.80689949914813" lon="8.925900589674711">
        <ele>408.217041015625</ele>
        <time>2005-08-12T13:36:54Z</time>
      </trkpt>
      <trkpt lat="45.806843088939786" lon="8.926073089241982">
        <ele>408.217041015625</ele>
        <time>2005-08-12T13:36:57Z</time>
      </trkpt>
      <trkpt lat="45.806791121140122" lon="8.926246343180537">
        <ele>407.736328125</ele>
        <time>2005-08-12T13:37:00Z</time>
      </trkpt>
      <trkpt lat="45.806747199967504" lon="8.926422027871013">
        <ele>407.736328125</ele>
        <time>2005-08-12T13:37:03Z</time>
      </trkpt>
      <trkpt lat="45.806713504716754" lon="8.926611542701721">
        <ele>407.736328125</ele>
        <time>2005-08-12T13:37:06Z</time>
      </trkpt>
      <trkpt lat="45.806700512766838" lon="8.926741294562817">
        <ele>407.255615234375</ele>
        <time>2005-08-12T13:37:08Z</time>
      </trkpt>
      <trkpt lat="45.806687017902732" lon="8.926876075565815">
        <ele>406.77490234375</ele>
        <time>2005-08-12T13:37:10Z</time>
      </trkpt>
      <trkpt lat="45.806673439219594" lon="8.927012197673321">
        <ele>406.77490234375</ele>
        <time>2005-08-12T13:37:12Z</time>
      </trkpt>
      <trkpt lat="45.806659189984202" lon="8.927154773846269">
        <ele>405.813720703125</ele>
        <time>2005-08-12T13:37:14Z</time>
      </trkpt>
      <trkpt lat="45.806644270196557" lon="8.9273033849895">
        <ele>405.813720703125</ele>
        <time>2005-08-12T13:37:16Z</time>
      </trkpt>
      <trkpt lat="45.806632954627275" lon="8.927457109093666">
        <ele>405.3330078125</ele>
        <time>2005-08-12T13:37:18Z</time>
      </trkpt>
      <trkpt lat="45.806624656543136" lon="8.927626255899668">
        <ele>404.3717041015625</ele>
        <time>2005-08-12T13:37:20Z</time>
      </trkpt>
      <trkpt lat="45.806615855544806" lon="8.927807472646236">
        <ele>404.852294921875</ele>
        <time>2005-08-12T13:37:22Z</time>
      </trkpt>
      <trkpt lat="45.806606551632285" lon="8.927998663857579">
        <ele>404.3717041015625</ele>
        <time>2005-08-12T13:37:24Z</time>
      </trkpt>
      <trkpt lat="45.806596828624606" lon="8.928197650238872">
        <ele>403.89111328125</ele>
        <time>2005-08-12T13:37:26Z</time>
      </trkpt>
      <trkpt lat="45.806586937978864" lon="8.928399654105306">
        <ele>404.3717041015625</ele>
        <time>2005-08-12T13:37:28Z</time>
      </trkpt>
      <trkpt lat="45.806577131152153" lon="8.928601071238518">
        <ele>403.89111328125</ele>
        <time>2005-08-12T13:37:30Z</time>
      </trkpt>
      <trkpt lat="45.806567659601569" lon="8.928796034306288">
        <ele>403.410400390625</ele>
        <time>2005-08-12T13:37:32Z</time>
      </trkpt>
      <trkpt lat="45.806558774784207" lon="8.928978340700269">
        <ele>402.4490966796875</ele>
        <time>2005-08-12T13:37:34Z</time>
      </trkpt>
      <trkpt lat="45.806550979614258" lon="8.929155115038157">
        <ele>402.9296875</ele>
        <time>2005-08-12T13:37:36Z</time>
      </trkpt>
      <trkpt lat="45.806550979614258" lon="8.929322501644492">
        <ele>402.9296875</ele>
        <time>2005-08-12T13:37:38Z</time>
      </trkpt>
      <trkpt lat="45.806560451164842" lon="8.929476393386722">
        <ele>403.410400390625</ele>
        <time>2005-08-12T13:37:40Z</time>
      </trkpt>
      <trkpt lat="45.806591296568513" lon="8.929600026458502">
        <ele>403.410400390625</ele>
        <time>2005-08-12T13:37:42Z</time>
      </trkpt>
      <trkpt lat="45.806634966284037" lon="8.92977437004447">
        <ele>403.89111328125</ele>
        <time>2005-08-12T13:37:45Z</time>
      </trkpt>
      <trkpt lat="45.806662710383534" lon="8.929885597899556">
        <ele>404.3717041015625</ele>
        <time>2005-08-12T13:37:47Z</time>
      </trkpt>
      <trkpt lat="45.806685844436288" lon="8.930069915950298">
        <ele>404.3717041015625</ele>
        <time>2005-08-12T13:37:50Z</time>
      </trkpt>
      <trkpt lat="45.806695064529777" lon="8.930245013907552">
        <ele>404.852294921875</ele>
        <time>2005-08-12T13:37:53Z</time>
      </trkpt>
      <trkpt lat="45.806704116985202" lon="8.930417932569981">
        <ele>405.3330078125</ele>
        <time>2005-08-12T13:37:56Z</time>
      </trkpt>
      <trkpt lat="45.806713085621595" lon="8.930587414652109">
        <ele>405.813720703125</ele>
        <time>2005-08-12T13:37:59Z</time>
      </trkpt>
      <trkpt lat="45.806721886619925" lon="8.930754968896508">
        <ele>406.2943115234375</ele>
        <time>2005-08-12T13:38:02Z</time>
      </trkpt>
      <trkpt lat="45.806748205795884" lon="8.930922690778971">
        <ele>406.77490234375</ele>
        <time>2005-08-12T13:38:05Z</time>
      </trkpt>
      <trkpt lat="45.806777039542794" lon="8.931080270558596">
        <ele>407.255615234375</ele>
        <time>2005-08-12T13:38:08Z</time>
      </trkpt>
      <trkpt lat="45.80681006424129" lon="8.931234329938889">
        <ele>407.736328125</ele>
        <time>2005-08-12T13:38:11Z</time>
      </trkpt>
      <trkpt lat="45.806843675673008" lon="8.931391155347228">
        <ele>408.217041015625</ele>
        <time>2005-08-12T13:38:14Z</time>
      </trkpt>
      <trkpt lat="45.806878628209233" lon="8.931554267182946">
        <ele>408.217041015625</ele>
        <time>2005-08-12T13:38:17Z</time>
      </trkpt>
      <trkpt lat="45.80690972507" lon="8.931720145046711">
        <ele>408.217041015625</ele>
        <time>2005-08-12T13:38:20Z</time>
      </trkpt>
      <trkpt lat="45.806938055902719" lon="8.931888956576586">
        <ele>408.6976318359375</ele>
        <time>2005-08-12T13:38:23Z</time>
      </trkpt>
      <trkpt lat="45.806970996782184" lon="8.932053660973907">
        <ele>409.1783447265625</ele>
        <time>2005-08-12T13:38:26Z</time>
      </trkpt>
      <trkpt lat="45.807004105299711" lon="8.932219203561544">
        <ele>409.1783447265625</ele>
        <time>2005-08-12T13:38:29Z</time>
      </trkpt>
      <trkpt lat="45.807023048400879" lon="8.932392625138164">
        <ele>409.6590576171875</ele>
        <time>2005-08-12T13:38:32Z</time>
      </trkpt>
      <trkpt lat="45.80703143030405" lon="8.932578954845667">
        <ele>409.6590576171875</ele>
        <time>2005-08-12T13:38:35Z</time>
      </trkpt>
      <trkpt lat="45.807062024250627" lon="8.93276235088706">
        <ele>410.1396484375</ele>
        <time>2005-08-12T13:38:38Z</time>
      </trkpt>
      <trkpt lat="45.80709739588201" lon="8.932943064719439">
        <ele>410.1396484375</ele>
        <time>2005-08-12T13:38:41Z</time>
      </trkpt>
      <trkpt lat="45.807146681472659" lon="8.933114055544138">
        <ele>410.6202392578125</ele>
        <time>2005-08-12T13:38:44Z</time>
      </trkpt>
      <trkpt lat="45.807197727262974" lon="8.93326710909605">
        <ele>411.1009521484375</ele>
        <time>2005-08-12T13:38:47Z</time>
      </trkpt>
      <trkpt lat="45.807246677577496" lon="8.933423180133104">
        <ele>410.6202392578125</ele>
        <time>2005-08-12T13:38:50Z</time>
      </trkpt>
      <trkpt lat="45.807291185483336" lon="8.933595847338438">
        <ele>410.6202392578125</ele>
        <time>2005-08-12T13:38:53Z</time>
      </trkpt>
      <trkpt lat="45.807339465245605" lon="8.933764658868313">
        <ele>410.1396484375</ele>
        <time>2005-08-12T13:38:56Z</time>
      </trkpt>
      <trkpt lat="45.807388415560126" lon="8.933936068788171">
        <ele>410.1396484375</ele>
        <time>2005-08-12T13:38:59Z</time>
      </trkpt>
      <trkpt lat="45.807437114417553" lon="8.934106389060617">
        <ele>410.1396484375</ele>
        <time>2005-08-12T13:39:02Z</time>
      </trkpt>
      <trkpt lat="45.807510958984494" lon="8.934247372671962">
        <ele>410.6202392578125</ele>
        <time>2005-08-12T13:39:05Z</time>
      </trkpt>
      <trkpt lat="45.807664012536407" lon="8.934748861938715">
        <ele>411.5816650390625</ele>
        <time>2005-08-12T13:39:14Z</time>
      </trkpt>
      <trkpt lat="45.807703239843249" lon="8.934905854985118">
        <ele>412.062255859375</ele>
        <time>2005-08-12T13:39:17Z</time>
      </trkpt>
      <trkpt lat="45.807808600366116" lon="8.934975592419505">
        <ele>413.0235595703125</ele>
        <time>2005-08-12T13:39:20Z</time>
      </trkpt>
      <trkpt lat="45.807927707210183" lon="8.935028482228518">
        <ele>413.98486328125</ele>
        <time>2005-08-12T13:39:23Z</time>
      </trkpt>
      <trkpt lat="45.808035247027874" lon="8.935076342895627">
        <ele>413.5042724609375</ele>
        <time>2005-08-12T13:39:26Z</time>
      </trkpt>
      <trkpt lat="45.808158796280622" lon="8.935084138065577">
        <ele>414.9461669921875</ele>
        <time>2005-08-12T13:39:32Z</time>
      </trkpt>
      <trkpt lat="45.808273209258914" lon="8.935049017891288">
        <ele>414.9461669921875</ele>
        <time>2005-08-12T13:39:35Z</time>
      </trkpt>
      <trkpt lat="45.808402709662914" lon="8.93500903621316">
        <ele>413.98486328125</ele>
        <time>2005-08-12T13:39:38Z</time>
      </trkpt>
      <trkpt lat="45.808493904769421" lon="8.934981040656567">
        <ele>413.5042724609375</ele>
        <time>2005-08-12T13:39:40Z</time>
      </trkpt>
      <trkpt lat="45.808583255857229" lon="8.934953548014164">
        <ele>413.98486328125</ele>
        <time>2005-08-12T13:39:42Z</time>
      </trkpt>
      <trkpt lat="45.808719797059894" lon="8.934931755065918">
        <ele>413.5042724609375</ele>
        <time>2005-08-12T13:39:44Z</time>
      </trkpt>
      <trkpt lat="45.80884225666523" lon="8.934936365112662">
        <ele>413.5042724609375</ele>
        <time>2005-08-12T13:39:46Z</time>
      </trkpt>
      <trkpt lat="45.808924315497279" lon="8.934959499165416">
        <ele>413.5042724609375</ele>
        <time>2005-08-12T13:39:48Z</time>
      </trkpt>
      <trkpt lat="45.809008050709963" lon="8.934983219951391">
        <ele>413.5042724609375</ele>
        <time>2005-08-12T13:39:50Z</time>
      </trkpt>
      <trkpt lat="45.809093797579408" lon="8.935007359832525">
        <ele>413.5042724609375</ele>
        <time>2005-08-12T13:39:52Z</time>
      </trkpt>
      <trkpt lat="45.809180969372392" lon="8.935031918808818">
        <ele>413.5042724609375</ele>
        <time>2005-08-12T13:39:54Z</time>
      </trkpt>
      <trkpt lat="45.809268308803439" lon="8.935056561604142">
        <ele>413.5042724609375</ele>
        <time>2005-08-12T13:39:56Z</time>
      </trkpt>
      <trkpt lat="45.809359336271882" lon="8.935082126408815">
        <ele>414.4654541015625</ele>
        <time>2005-08-12T13:39:58Z</time>
      </trkpt>
      <trkpt lat="45.809452626854181" lon="8.935108445584774">
        <ele>413.98486328125</ele>
        <time>2005-08-12T13:40:00Z</time>
      </trkpt>
      <trkpt lat="45.809544157236814" lon="8.935134345665574">
        <ele>414.4654541015625</ele>
        <time>2005-08-12T13:40:02Z</time>
      </trkpt>
      <trkpt lat="45.809636441990733" lon="8.935160329565406">
        <ele>414.4654541015625</ele>
        <time>2005-08-12T13:40:04Z</time>
      </trkpt>
      <trkpt lat="45.8097262121737" lon="8.935185642912984">
        <ele>414.9461669921875</ele>
        <time>2005-08-12T13:40:06Z</time>
      </trkpt>
      <trkpt lat="45.809860154986382" lon="8.935223445296288">
        <ele>414.4654541015625</ele>
        <time>2005-08-12T13:40:09Z</time>
      </trkpt>
      <trkpt lat="45.809993091970682" lon="8.935260996222496">
        <ele>415.4268798828125</ele>
        <time>2005-08-12T13:40:12Z</time>
      </trkpt>
      <trkpt lat="45.810123095288873" lon="8.935297625139356">
        <ele>415.907470703125</ele>
        <time>2005-08-12T13:40:15Z</time>
      </trkpt>
      <trkpt lat="45.810210267081857" lon="8.935322184115648">
        <ele>415.907470703125</ele>
        <time>2005-08-12T13:40:17Z</time>
      </trkpt>
      <trkpt lat="45.810336163267493" lon="8.935357639566064">
        <ele>415.907470703125</ele>
        <time>2005-08-12T13:40:20Z</time>
      </trkpt>
      <trkpt lat="45.810460047796369" lon="8.935392675921321">
        <ele>416.38818359375</ele>
        <time>2005-08-12T13:40:23Z</time>
      </trkpt>
      <trkpt lat="45.810581082478166" lon="8.935412792488933">
        <ele>417.349609375</ele>
        <time>2005-08-12T13:40:26Z</time>
      </trkpt>
      <trkpt lat="45.810707397758961" lon="8.935426790267229">
        <ele>417.349609375</ele>
        <time>2005-08-12T13:40:29Z</time>
      </trkpt>
      <trkpt lat="45.810839580371976" lon="8.935441458597779">
        <ele>418.310791015625</ele>
        <time>2005-08-12T13:40:32Z</time>
      </trkpt>
      <trkpt lat="45.810969918966293" lon="8.93546350300312">
        <ele>418.79150390625</ele>
        <time>2005-08-12T13:40:35Z</time>
      </trkpt>
      <trkpt lat="45.811092043295503" lon="8.935487978160381">
        <ele>418.79150390625</ele>
        <time>2005-08-12T13:40:38Z</time>
      </trkpt>
      <trkpt lat="45.811218442395329" lon="8.935513207688928">
        <ele>419.272216796875</ele>
        <time>2005-08-12T13:40:41Z</time>
      </trkpt>
      <trkpt lat="45.811351211741567" lon="8.935560649260879">
        <ele>419.272216796875</ele>
        <time>2005-08-12T13:40:44Z</time>
      </trkpt>
      <trkpt lat="45.811461685225368" lon="8.93564572557807">
        <ele>419.7528076171875</ele>
        <time>2005-08-12T13:40:47Z</time>
      </trkpt>
      <trkpt lat="45.811578696593642" lon="8.9357356633991">
        <ele>419.7528076171875</ele>
        <time>2005-08-12T13:40:50Z</time>
      </trkpt>
      <trkpt lat="45.811658492311835" lon="8.935796935111284">
        <ele>419.7528076171875</ele>
        <time>2005-08-12T13:40:52Z</time>
      </trkpt>
      <trkpt lat="45.81174373626709" lon="8.935862481594086">
        <ele>419.7528076171875</ele>
        <time>2005-08-12T13:40:54Z</time>
      </trkpt>
      <trkpt lat="45.811830405145884" lon="8.935929285362363">
        <ele>419.7528076171875</ele>
        <time>2005-08-12T13:40:56Z</time>
      </trkpt>
      <trkpt lat="45.811950853094459" lon="8.935930458828807">
        <ele>419.7528076171875</ele>
        <time>2005-08-12T13:40:58Z</time>
      </trkpt>
      <trkpt lat="45.812051268294454" lon="8.935890225693584">
        <ele>419.272216796875</ele>
        <time>2005-08-12T13:41:00Z</time>
      </trkpt>
      <trkpt lat="45.812158305197954" lon="8.935847394168377">
        <ele>419.272216796875</ele>
        <time>2005-08-12T13:41:02Z</time>
      </trkpt>
      <trkpt lat="45.812272131443024" lon="8.935801964253187">
        <ele>418.310791015625</ele>
        <time>2005-08-12T13:41:04Z</time>
      </trkpt>
      <trkpt lat="45.812385287135839" lon="8.935748403891921">
        <ele>418.310791015625</ele>
        <time>2005-08-12T13:41:06Z</time>
      </trkpt>
      <trkpt lat="45.812506154179573" lon="8.935693334788084">
        <ele>418.310791015625</ele>
        <time>2005-08-12T13:41:08Z</time>
      </trkpt>
      <trkpt lat="45.812626099213958" lon="8.935653436928988">
        <ele>418.310791015625</ele>
        <time>2005-08-12T13:41:10Z</time>
      </trkpt>
      <trkpt lat="45.812743864953518" lon="8.935611946508288">
        <ele>417.8302001953125</ele>
        <time>2005-08-12T13:41:12Z</time>
      </trkpt>
      <trkpt lat="45.812858948484063" lon="8.9355543628335">
        <ele>418.310791015625</ele>
        <time>2005-08-12T13:41:14Z</time>
      </trkpt>
      <trkpt lat="45.81297704949975" lon="8.935504741966724">
        <ele>418.79150390625</ele>
        <time>2005-08-12T13:41:16Z</time>
      </trkpt>
      <trkpt lat="45.8130918815732" lon="8.935461575165391">
        <ele>418.79150390625</ele>
        <time>2005-08-12T13:41:18Z</time>
      </trkpt>
      <trkpt lat="45.81320864148438" lon="8.935417737811804">
        <ele>418.79150390625</ele>
        <time>2005-08-12T13:41:20Z</time>
      </trkpt>
      <trkpt lat="45.813327999785542" lon="8.935366440564394">
        <ele>418.79150390625</ele>
        <time>2005-08-12T13:41:22Z</time>
      </trkpt>
      <trkpt lat="45.813449118286371" lon="8.93531153909862">
        <ele>418.79150390625</ele>
        <time>2005-08-12T13:41:24Z</time>
      </trkpt>
      <trkpt lat="45.813572248443961" lon="8.935255464166403">
        <ele>418.310791015625</ele>
        <time>2005-08-12T13:41:26Z</time>
      </trkpt>
      <trkpt lat="45.813689511269331" lon="8.9352020714432">
        <ele>418.310791015625</ele>
        <time>2005-08-12T13:41:28Z</time>
      </trkpt>
      <trkpt lat="45.813820268958807" lon="8.935189247131348">
        <ele>417.8302001953125</ele>
        <time>2005-08-12T13:41:30Z</time>
      </trkpt>
      <trkpt lat="45.813946584239602" lon="8.935189247131348">
        <ele>418.310791015625</ele>
        <time>2005-08-12T13:41:32Z</time>
      </trkpt>
      <trkpt lat="45.814073486253619" lon="8.935189247131348">
        <ele>417.8302001953125</ele>
        <time>2005-08-12T13:41:34Z</time>
      </trkpt>
      <trkpt lat="45.814196700230241" lon="8.935189247131348">
        <ele>417.8302001953125</ele>
        <time>2005-08-12T13:41:36Z</time>
      </trkpt>
      <trkpt lat="45.814316561445594" lon="8.935189247131348">
        <ele>417.349609375</ele>
        <time>2005-08-12T13:41:38Z</time>
      </trkpt>
      <trkpt lat="45.814438685774803" lon="8.935189247131348">
        <ele>417.349609375</ele>
        <time>2005-08-12T13:41:40Z</time>
      </trkpt>
      <trkpt lat="45.814557960256934" lon="8.935189247131348">
        <ele>417.349609375</ele>
        <time>2005-08-12T13:41:42Z</time>
      </trkpt>
      <trkpt lat="45.814680838957429" lon="8.935189247131348">
        <ele>416.868896484375</ele>
        <time>2005-08-12T13:41:44Z</time>
      </trkpt>
      <trkpt lat="45.814962387084961" lon="8.935266025364399">
        <ele>417.349609375</ele>
        <time>2005-08-12T13:41:46Z</time>
      </trkpt>
      <trkpt lat="45.814962387084961" lon="8.935365350916982">
        <ele>417.8302001953125</ele>
        <time>2005-08-12T13:41:48Z</time>
      </trkpt>
      <trkpt lat="45.814962387084961" lon="8.935479512438178">
        <ele>418.310791015625</ele>
        <time>2005-08-12T13:41:50Z</time>
      </trkpt>
      <trkpt lat="45.814984934404492" lon="8.935630554333329">
        <ele>419.272216796875</ele>
        <time>2005-08-12T13:41:52Z</time>
      </trkpt>
      <trkpt lat="45.815019216388464" lon="8.935778914019465">
        <ele>419.272216796875</ele>
        <time>2005-08-12T13:41:54Z</time>
      </trkpt>
      <trkpt lat="45.815053498372436" lon="8.935927441343665">
        <ele>419.272216796875</ele>
        <time>2005-08-12T13:41:56Z</time>
      </trkpt>
      <trkpt lat="45.815087947994471" lon="8.936076806858182">
        <ele>419.7528076171875</ele>
        <time>2005-08-12T13:41:58Z</time>
      </trkpt>
      <trkpt lat="45.815126337110996" lon="8.936219466850162">
        <ele>419.7528076171875</ele>
        <time>2005-08-12T13:42:00Z</time>
      </trkpt>
      <trkpt lat="45.815163301303983" lon="8.936355002224445">
        <ele>420.2333984375</ele>
        <time>2005-08-12T13:42:02Z</time>
      </trkpt>
      <trkpt lat="45.81520177423954" lon="8.936496069654822">
        <ele>420.2333984375</ele>
        <time>2005-08-12T13:42:04Z</time>
      </trkpt>
      <trkpt lat="45.815241504460573" lon="8.936635460704565">
        <ele>420.714111328125</ele>
        <time>2005-08-12T13:42:06Z</time>
      </trkpt>
      <trkpt lat="45.81528726965189" lon="8.936789268627763">
        <ele>420.714111328125</ele>
        <time>2005-08-12T13:42:08Z</time>
      </trkpt>
      <trkpt lat="45.815333034843206" lon="8.936943160369992">
        <ele>421.19482421875</ele>
        <time>2005-08-12T13:42:10Z</time>
      </trkpt>
      <trkpt lat="45.815377375110984" lon="8.937092274427414">
        <ele>420.714111328125</ele>
        <time>2005-08-12T13:42:12Z</time>
      </trkpt>
      <trkpt lat="45.815420541912317" lon="8.937237532809377">
        <ele>420.714111328125</ele>
        <time>2005-08-12T13:42:14Z</time>
      </trkpt>
      <trkpt lat="45.815462032333016" lon="8.937377007678151">
        <ele>421.19482421875</ele>
        <time>2005-08-12T13:42:16Z</time>
      </trkpt>
      <trkpt lat="45.815503187477589" lon="8.937515560537577">
        <ele>421.19482421875</ele>
        <time>2005-08-12T13:42:18Z</time>
      </trkpt>
      <trkpt lat="45.815544007346034" lon="8.937652939930558">
        <ele>421.6754150390625</ele>
        <time>2005-08-12T13:42:20Z</time>
      </trkpt>
      <trkpt lat="45.815585665404797" lon="8.937793001532555">
        <ele>421.6754150390625</ele>
        <time>2005-08-12T13:42:22Z</time>
      </trkpt>
      <trkpt lat="45.815627491101623" lon="8.937933733686805">
        <ele>421.19482421875</ele>
        <time>2005-08-12T13:42:24Z</time>
      </trkpt>
      <trkpt lat="45.815669316798449" lon="8.938074465841055">
        <ele>421.6754150390625</ele>
        <time>2005-08-12T13:42:26Z</time>
      </trkpt>
      <trkpt lat="45.815709214657545" lon="8.938215281814337">
        <ele>421.6754150390625</ele>
        <time>2005-08-12T13:42:28Z</time>
      </trkpt>
      <trkpt lat="45.815745759755373" lon="8.938352409750223">
        <ele>421.6754150390625</ele>
        <time>2005-08-12T13:42:30Z</time>
      </trkpt>
      <trkpt lat="45.815782221034169" lon="8.938488867133856">
        <ele>421.6754150390625</ele>
        <time>2005-08-12T13:42:32Z</time>
      </trkpt>
      <trkpt lat="45.815819436684251" lon="8.938628509640694">
        <ele>421.6754150390625</ele>
        <time>2005-08-12T13:42:34Z</time>
      </trkpt>
      <trkpt lat="45.81585849635303" lon="8.938775025308132">
        <ele>421.6754150390625</ele>
        <time>2005-08-12T13:42:36Z</time>
      </trkpt>
      <trkpt lat="45.815912308171391" lon="8.938915841281414">
        <ele>421.19482421875</ele>
        <time>2005-08-12T13:42:38Z</time>
      </trkpt>
      <trkpt lat="45.815970310941339" lon="8.939050370827317">
        <ele>421.6754150390625</ele>
        <time>2005-08-12T13:42:40Z</time>
      </trkpt>
      <trkpt lat="45.816036444157362" lon="8.939182721078396">
        <ele>421.19482421875</ele>
        <time>2005-08-12T13:42:42Z</time>
      </trkpt>
      <trkpt lat="45.816105762496591" lon="8.939321273937821">
        <ele>421.19482421875</ele>
        <time>2005-08-12T13:42:44Z</time>
      </trkpt>
      <trkpt lat="45.816177343949676" lon="8.939464436843991">
        <ele>420.714111328125</ele>
        <time>2005-08-12T13:42:46Z</time>
      </trkpt>
      <trkpt lat="45.816251439973712" lon="8.939612545073032">
        <ele>420.2333984375</ele>
        <time>2005-08-12T13:42:48Z</time>
      </trkpt>
      <trkpt lat="45.816326709464192" lon="8.939763084053993">
        <ele>419.7528076171875</ele>
        <time>2005-08-12T13:42:50Z</time>
      </trkpt>
      <trkpt lat="45.816396865993738" lon="8.939904486760497">
        <ele>420.2333984375</ele>
        <time>2005-08-12T13:42:52Z</time>
      </trkpt>
      <trkpt lat="45.816454282030463" lon="8.940022084861994">
        <ele>419.7528076171875</ele>
        <time>2005-08-12T13:42:54Z</time>
      </trkpt>
      <trkpt lat="45.816505327820778" lon="8.940126774832606">
        <ele>419.7528076171875</ele>
        <time>2005-08-12T13:42:56Z</time>
      </trkpt>
      <trkpt lat="45.816556122153997" lon="8.94023104570806">
        <ele>418.310791015625</ele>
        <time>2005-08-12T13:42:59Z</time>
      </trkpt>
      <trkpt lat="45.816688556224108" lon="8.940129457041621">
        <ele>418.79150390625</ele>
        <time>2005-08-12T13:43:03Z</time>
      </trkpt>
      <trkpt lat="45.816733064129949" lon="8.94000724889338">
        <ele>420.714111328125</ele>
        <time>2005-08-12T13:43:08Z</time>
      </trkpt>
      <trkpt lat="45.816783774644136" lon="8.939872635528445">
        <ele>423.117431640625</ele>
        <time>2005-08-12T13:43:14Z</time>
      </trkpt>
      <trkpt lat="45.816842615604401" lon="8.939748834818602">
        <ele>423.5980224609375</ele>
        <time>2005-08-12T13:43:20Z</time>
      </trkpt>
      <trkpt lat="45.816920232027769" lon="8.939636433497071">
        <ele>425.0401611328125</ele>
        <time>2005-08-12T13:43:26Z</time>
      </trkpt>
      <trkpt lat="45.816983096301556" lon="8.939537024125457">
        <ele>425.520751953125</ele>
        <time>2005-08-12T13:43:32Z</time>
      </trkpt>
      <trkpt lat="45.817072279751301" lon="8.939446499571204">
        <ele>428.8853759765625</ele>
        <time>2005-08-12T13:43:38Z</time>
      </trkpt>
      <trkpt lat="45.817148387432098" lon="8.93936812877655">
        <ele>430.3272705078125</ele>
        <time>2005-08-12T13:43:46Z</time>
      </trkpt>
      <trkpt lat="45.817227931693196" lon="8.939324039965868">
        <ele>433.69189453125</ele>
        <time>2005-08-12T13:43:59Z</time>
      </trkpt>
      <trkpt lat="45.817209910601377" lon="8.939147097989917">
        <ele>436.09521484375</ele>
        <time>2005-08-12T13:44:45Z</time>
      </trkpt>
      <trkpt lat="45.817268081009388" lon="8.938980549573898">
        <ele>440.4212646484375</ele>
        <time>2005-08-12T13:45:28Z</time>
      </trkpt>
      <trkpt lat="45.817349636927247" lon="8.938822718337178">
        <ele>442.3438720703125</ele>
        <time>2005-08-12T13:45:36Z</time>
      </trkpt>
      <trkpt lat="45.817395318299532" lon="8.938690703362227">
        <ele>439.9404296875</ele>
        <time>2005-08-12T13:45:41Z</time>
      </trkpt>
      <trkpt lat="45.81744116730988" lon="8.938570506870747">
        <ele>438.017822265625</ele>
        <time>2005-08-12T13:45:46Z</time>
      </trkpt>
      <trkpt lat="45.817507216706872" lon="8.938429774716497">
        <ele>437.0565185546875</ele>
        <time>2005-08-12T13:45:51Z</time>
      </trkpt>
      <trkpt lat="45.817583072930574" lon="8.938239254057407">
        <ele>437.0565185546875</ele>
        <time>2005-08-12T13:45:55Z</time>
      </trkpt>
      <trkpt lat="45.817648619413376" lon="8.938101371750236">
        <ele>434.6533203125</ele>
        <time>2005-08-12T13:45:58Z</time>
      </trkpt>
      <trkpt lat="45.817707376554608" lon="8.937935158610344">
        <ele>434.172607421875</ele>
        <time>2005-08-12T13:46:01Z</time>
      </trkpt>
      <trkpt lat="45.817777784541249" lon="8.937797695398331">
        <ele>434.6533203125</ele>
        <time>2005-08-12T13:46:05Z</time>
      </trkpt>
      <trkpt lat="45.817828327417374" lon="8.937775315716863">
        <ele>438.49853515625</ele>
        <time>2005-08-12T13:46:10Z</time>
      </trkpt>
      <trkpt lat="45.817828830331564" lon="8.937834575772286">
        <ele>440.4212646484375</ele>
        <time>2005-08-12T13:46:16Z</time>
      </trkpt>
      <trkpt lat="45.817897226661444" lon="8.93789928406477">
        <ele>441.3824462890625</ele>
        <time>2005-08-12T13:46:22Z</time>
      </trkpt>
      <trkpt lat="45.817972663789988" lon="8.937986120581627">
        <ele>443.7857666015625</ele>
        <time>2005-08-12T13:46:28Z</time>
      </trkpt>
      <trkpt lat="45.817992025986314" lon="8.93810941837728">
        <ele>444.7470703125</ele>
        <time>2005-08-12T13:46:34Z</time>
      </trkpt>
      <trkpt lat="45.817987499758601" lon="8.938199440017343">
        <ele>444.2664794921875</ele>
        <time>2005-08-12T13:46:39Z</time>
      </trkpt>
      <trkpt lat="45.817953385412693" lon="8.938326928764582">
        <ele>444.2664794921875</ele>
        <time>2005-08-12T13:46:44Z</time>
      </trkpt>
      <trkpt lat="45.817901501432061" lon="8.938443856313825">
        <ele>443.7857666015625</ele>
        <time>2005-08-12T13:46:48Z</time>
      </trkpt>
      <trkpt lat="45.817846180871129" lon="8.938556173816323">
        <ele>443.7857666015625</ele>
        <time>2005-08-12T13:46:52Z</time>
      </trkpt>
      <trkpt lat="45.817795973271132" lon="8.938680896535516">
        <ele>443.3050537109375</ele>
        <time>2005-08-12T13:46:56Z</time>
      </trkpt>
      <trkpt lat="45.817743251100183" lon="8.938819700852037">
        <ele>442.824462890625</ele>
        <time>2005-08-12T13:47:00Z</time>
      </trkpt>
      <trkpt lat="45.817747358232737" lon="8.938966048881412">
        <ele>442.3438720703125</ele>
        <time>2005-08-12T13:47:05Z</time>
      </trkpt>
      <trkpt lat="45.817766636610031" lon="8.939097644761205">
        <ele>439.459716796875</ele>
        <time>2005-08-12T13:47:08Z</time>
      </trkpt>
      <trkpt lat="45.817767474800348" lon="8.939258325845003">
        <ele>436.575927734375</ele>
        <time>2005-08-12T13:47:11Z</time>
      </trkpt>
      <trkpt lat="45.817768815904856" lon="8.939408278092742">
        <ele>434.6533203125</ele>
        <time>2005-08-12T13:47:14Z</time>
      </trkpt>
      <trkpt lat="45.81776462495327" lon="8.93957675434649">
        <ele>432.25</ele>
        <time>2005-08-12T13:47:17Z</time>
      </trkpt>
      <trkpt lat="45.817756159231067" lon="8.939744057133794">
        <ele>428.8853759765625</ele>
        <time>2005-08-12T13:47:20Z</time>
      </trkpt>
      <trkpt lat="45.817732689902186" lon="8.939907671883702">
        <ele>426.4820556640625</ele>
        <time>2005-08-12T13:47:23Z</time>
      </trkpt>
      <trkpt lat="45.817705281078815" lon="8.940061647444964">
        <ele>426.0013427734375</ele>
        <time>2005-08-12T13:47:26Z</time>
      </trkpt>
      <trkpt lat="45.817673429846764" lon="8.940195087343454">
        <ele>424.5594482421875</ele>
        <time>2005-08-12T13:47:29Z</time>
      </trkpt>
      <trkpt lat="45.817641830071807" lon="8.940339423716068">
        <ele>422.63671875</ele>
        <time>2005-08-12T13:47:32Z</time>
      </trkpt>
      <trkpt lat="45.817611403763294" lon="8.940488873049617">
        <ele>421.6754150390625</ele>
        <time>2005-08-12T13:47:35Z</time>
      </trkpt>
      <trkpt lat="45.817531608045101" lon="8.940532961860299">
        <ele>420.714111328125</ele>
        <time>2005-08-12T13:47:51Z</time>
      </trkpt>
      <trkpt lat="45.817465642467141" lon="8.94064393825829">
        <ele>419.7528076171875</ele>
        <time>2005-08-12T13:47:55Z</time>
      </trkpt>
      <trkpt lat="45.817402778193355" lon="8.940796405076981">
        <ele>418.310791015625</ele>
        <time>2005-08-12T13:47:59Z</time>
      </trkpt>
      <trkpt lat="45.817352822050452" lon="8.940950380638242">
        <ele>417.349609375</ele>
        <time>2005-08-12T13:48:03Z</time>
      </trkpt>
      <trkpt lat="45.817368077114224" lon="8.941076947376132">
        <ele>416.38818359375</ele>
        <time>2005-08-12T13:48:07Z</time>
      </trkpt>
      <trkpt lat="45.817400934174657" lon="8.94119999371469">
        <ele>413.98486328125</ele>
        <time>2005-08-12T13:48:11Z</time>
      </trkpt>
      <trkpt lat="45.817485926672816" lon="8.941306695342064">
        <ele>413.0235595703125</ele>
        <time>2005-08-12T13:48:15Z</time>
      </trkpt>
      <trkpt lat="45.817552227526903" lon="8.941445080563426">
        <ele>412.062255859375</ele>
        <time>2005-08-12T13:48:19Z</time>
      </trkpt>
      <trkpt lat="45.817698407918215" lon="8.941364195197821">
        <ele>412.062255859375</ele>
        <time>2005-08-12T13:48:22Z</time>
      </trkpt>
      <trkpt lat="45.817804271355271" lon="8.941346257925034">
        <ele>411.1009521484375</ele>
        <time>2005-08-12T13:48:24Z</time>
      </trkpt>
      <trkpt lat="45.817920528352261" lon="8.941306779161096">
        <ele>410.6202392578125</ele>
        <time>2005-08-12T13:48:26Z</time>
      </trkpt>
      <trkpt lat="45.818018093705177" lon="8.941274425014854">
        <ele>410.1396484375</ele>
        <time>2005-08-12T13:48:28Z</time>
      </trkpt>
      <trkpt lat="45.818750085309148" lon="8.941643815487623">
        <ele>408.217041015625</ele>
        <time>2005-08-12T13:48:30Z</time>
      </trkpt>
      <trkpt lat="45.818781517446041" lon="8.941541807726026">
        <ele>407.736328125</ele>
        <time>2005-08-12T13:48:32Z</time>
      </trkpt>
      <trkpt lat="45.818814877420664" lon="8.941433178260922">
        <ele>406.77490234375</ele>
        <time>2005-08-12T13:48:34Z</time>
      </trkpt>
      <trkpt lat="45.818847818300128" lon="8.941326308995485">
        <ele>406.2943115234375</ele>
        <time>2005-08-12T13:48:36Z</time>
      </trkpt>
      <trkpt lat="45.818910850211978" lon="8.941121203824878">
        <ele>406.2943115234375</ele>
        <time>2005-08-12T13:48:39Z</time>
      </trkpt>
      <trkpt lat="45.819119140505791" lon="8.940823143348098">
        <ele>405.3330078125</ele>
        <time>2005-08-12T13:48:47Z</time>
      </trkpt>
      <trkpt lat="45.819279905408621" lon="8.940866896882653">
        <ele>404.852294921875</ele>
        <time>2005-08-12T13:48:51Z</time>
      </trkpt>
      <trkpt lat="45.819317456334829" lon="8.941008886322379">
        <ele>403.89111328125</ele>
        <time>2005-08-12T13:48:54Z</time>
      </trkpt>
      <trkpt lat="45.819440418854356" lon="8.941230336204171">
        <ele>401.48779296875</ele>
        <time>2005-08-12T13:49:14Z</time>
      </trkpt>
      <trkpt lat="45.819527003914118" lon="8.941378612071276">
        <ele>401.007080078125</ele>
        <time>2005-08-12T13:49:18Z</time>
      </trkpt>
      <trkpt lat="45.819614175707102" lon="8.941524289548397">
        <ele>400.5264892578125</ele>
        <time>2005-08-12T13:49:21Z</time>
      </trkpt>
      <trkpt lat="45.819674776867032" lon="8.94162705168128">
        <ele>400.5264892578125</ele>
        <time>2005-08-12T13:49:23Z</time>
      </trkpt>
      <trkpt lat="45.819734372198582" lon="8.941735345870256">
        <ele>401.007080078125</ele>
        <time>2005-08-12T13:49:25Z</time>
      </trkpt>
      <trkpt lat="45.819796901196241" lon="8.941843723878264">
        <ele>401.007080078125</ele>
        <time>2005-08-12T13:49:27Z</time>
      </trkpt>
      <trkpt lat="45.819860938936472" lon="8.941946737468243">
        <ele>400.5264892578125</ele>
        <time>2005-08-12T13:49:29Z</time>
      </trkpt>
      <trkpt lat="45.819926066324115" lon="8.942041369155049">
        <ele>401.007080078125</ele>
        <time>2005-08-12T13:49:31Z</time>
      </trkpt>
      <trkpt lat="45.819992115721107" lon="8.942135833203793">
        <ele>401.007080078125</ele>
        <time>2005-08-12T13:49:33Z</time>
      </trkpt>
      <trkpt lat="45.82005481235683" lon="8.942231638357043">
        <ele>401.48779296875</ele>
        <time>2005-08-12T13:49:35Z</time>
      </trkpt>
      <trkpt lat="45.820113401859999" lon="8.942333143204451">
        <ele>401.968505859375</ele>
        <time>2005-08-12T13:49:37Z</time>
      </trkpt>
      <trkpt lat="45.820175176486373" lon="8.942433558404446">
        <ele>401.968505859375</ele>
        <time>2005-08-12T13:49:39Z</time>
      </trkpt>
      <trkpt lat="45.820227395743132" lon="8.942535817623138">
        <ele>401.968505859375</ele>
        <time>2005-08-12T13:49:41Z</time>
      </trkpt>
      <trkpt lat="45.820305682718754" lon="8.942695744335651">
        <ele>401.48779296875</ele>
        <time>2005-08-12T13:49:44Z</time>
      </trkpt>
      <trkpt lat="45.820360416546464" lon="8.942799847573042">
        <ele>401.48779296875</ele>
        <time>2005-08-12T13:49:46Z</time>
      </trkpt>
      <trkpt lat="45.820419425144792" lon="8.942907974123955">
        <ele>401.48779296875</ele>
        <time>2005-08-12T13:49:48Z</time>
      </trkpt>
      <trkpt lat="45.820478433743119" lon="8.943018112331629">
        <ele>401.48779296875</ele>
        <time>2005-08-12T13:49:50Z</time>
      </trkpt>
      <trkpt lat="45.820534508675337" lon="8.943127999082208">
        <ele>401.48779296875</ele>
        <time>2005-08-12T13:49:52Z</time>
      </trkpt>
      <trkpt lat="45.820593181997538" lon="8.943241406232119">
        <ele>400.5264892578125</ele>
        <time>2005-08-12T13:49:54Z</time>
      </trkpt>
      <trkpt lat="45.820651100948453" lon="8.94335238263011">
        <ele>401.007080078125</ele>
        <time>2005-08-12T13:49:56Z</time>
      </trkpt>
      <trkpt lat="45.820709941908717" lon="8.943462856113911">
        <ele>400.0458984375</ele>
        <time>2005-08-12T13:49:58Z</time>
      </trkpt>
      <trkpt lat="45.82077163271606" lon="8.94357081502676">
        <ele>400.0458984375</ele>
        <time>2005-08-12T13:50:00Z</time>
      </trkpt>
      <trkpt lat="45.820838939398527" lon="8.943670811131597">
        <ele>400.0458984375</ele>
        <time>2005-08-12T13:50:02Z</time>
      </trkpt>
      <trkpt lat="45.820900378748775" lon="8.943768460303545">
        <ele>399.5650634765625</ele>
        <time>2005-08-12T13:50:04Z</time>
      </trkpt>
      <trkpt lat="45.820973720401525" lon="8.943861331790686">
        <ele>399.5650634765625</ele>
        <time>2005-08-12T13:50:07Z</time>
      </trkpt>
      <trkpt lat="45.82105946727097" lon="8.943878849968314">
        <ele>400.5264892578125</ele>
        <time>2005-08-12T13:50:11Z</time>
      </trkpt>
      <trkpt lat="45.821169186383486" lon="8.943920424208045">
        <ele>400.5264892578125</ele>
        <time>2005-08-12T13:50:16Z</time>
      </trkpt>
      <trkpt lat="45.821257783100009" lon="8.943985132500529">
        <ele>400.5264892578125</ele>
        <time>2005-08-12T13:50:19Z</time>
      </trkpt>
      <trkpt lat="45.821352079510689" lon="8.94405847415328">
        <ele>400.5264892578125</ele>
        <time>2005-08-12T13:50:22Z</time>
      </trkpt>
      <trkpt lat="45.821460457518697" lon="8.944128714501858">
        <ele>401.007080078125</ele>
        <time>2005-08-12T13:50:25Z</time>
      </trkpt>
      <trkpt lat="45.821566488593817" lon="8.94419769756496">
        <ele>400.5264892578125</ele>
        <time>2005-08-12T13:50:28Z</time>
      </trkpt>
      <trkpt lat="45.821673274040222" lon="8.944269865751267">
        <ele>401.007080078125</ele>
        <time>2005-08-12T13:50:31Z</time>
      </trkpt>
      <trkpt lat="45.821779305115342" lon="8.944350751116872">
        <ele>400.5264892578125</ele>
        <time>2005-08-12T13:50:34Z</time>
      </trkpt>
      <trkpt lat="45.821883575990796" lon="8.944433899596334">
        <ele>401.007080078125</ele>
        <time>2005-08-12T13:50:37Z</time>
      </trkpt>
      <trkpt lat="45.821982733905315" lon="8.944524675607681">
        <ele>401.007080078125</ele>
        <time>2005-08-12T13:50:40Z</time>
      </trkpt>
      <trkpt lat="45.822068145498633" lon="8.944624084979296">
        <ele>401.48779296875</ele>
        <time>2005-08-12T13:50:43Z</time>
      </trkpt>
      <trkpt lat="45.822136625647545" lon="8.94475425593555">
        <ele>401.007080078125</ele>
        <time>2005-08-12T13:50:46Z</time>
      </trkpt>
      <trkpt lat="45.822203764691949" lon="8.944841846823692">
        <ele>401.968505859375</ele>
        <time>2005-08-12T13:50:49Z</time>
      </trkpt>
      <trkpt lat="45.822291020303965" lon="8.944921474903822">
        <ele>401.968505859375</ele>
        <time>2005-08-12T13:50:52Z</time>
      </trkpt>
      <trkpt lat="45.822393111884594" lon="8.945016441866756">
        <ele>401.48779296875</ele>
        <time>2005-08-12T13:50:55Z</time>
      </trkpt>
      <trkpt lat="45.822500567883253" lon="8.945114342495799">
        <ele>401.48779296875</ele>
        <time>2005-08-12T13:50:58Z</time>
      </trkpt>
      <trkpt lat="45.822602743282914" lon="8.945217942818999">
        <ele>401.48779296875</ele>
        <time>2005-08-12T13:51:01Z</time>
      </trkpt>
      <trkpt lat="45.8227070979774" lon="8.945317687466741">
        <ele>401.48779296875</ele>
        <time>2005-08-12T13:51:04Z</time>
      </trkpt>
      <trkpt lat="45.822810279205441" lon="8.945411564782262">
        <ele>401.48779296875</ele>
        <time>2005-08-12T13:51:07Z</time>
      </trkpt>
      <trkpt lat="45.822912370786071" lon="8.94550234079361">
        <ele>401.968505859375</ele>
        <time>2005-08-12T13:51:10Z</time>
      </trkpt>
      <trkpt lat="45.823018150404096" lon="8.945586159825325">
        <ele>401.968505859375</ele>
        <time>2005-08-12T13:51:13Z</time>
      </trkpt>
      <trkpt lat="45.823127366602421" lon="8.945618513971567">
        <ele>402.9296875</ele>
        <time>2005-08-12T13:51:16Z</time>
      </trkpt>
      <trkpt lat="45.823221998289227" lon="8.945563193410635">
        <ele>404.852294921875</ele>
        <time>2005-08-12T13:51:20Z</time>
      </trkpt>
      <trkpt lat="45.823302380740643" lon="8.945472417399287">
        <ele>405.813720703125</ele>
        <time>2005-08-12T13:51:24Z</time>
      </trkpt>
      <trkpt lat="45.823386870324612" lon="8.945383066311479">
        <ele>405.813720703125</ele>
        <time>2005-08-12T13:51:28Z</time>
      </trkpt>
      <trkpt lat="45.82348451949656" lon="8.945303857326508">
        <ele>406.2943115234375</ele>
        <time>2005-08-12T13:51:32Z</time>
      </trkpt>
      <trkpt lat="45.823580827564001" lon="8.945248536765575">
        <ele>407.255615234375</ele>
        <time>2005-08-12T13:51:36Z</time>
      </trkpt>
      <trkpt lat="45.823673866689205" lon="8.945193719118834">
        <ele>407.255615234375</ele>
        <time>2005-08-12T13:51:40Z</time>
      </trkpt>
      <trkpt lat="45.823772354051471" lon="8.945103948935866">
        <ele>408.6976318359375</ele>
        <time>2005-08-12T13:51:45Z</time>
      </trkpt>
      <trkpt lat="45.823847707360983" lon="8.944996492937207">
        <ele>409.6590576171875</ele>
        <time>2005-08-12T13:51:50Z</time>
      </trkpt>
      <trkpt lat="45.823874194175005" lon="8.944852994754911">
        <ele>410.1396484375</ele>
        <time>2005-08-12T13:51:55Z</time>
      </trkpt>
      <trkpt lat="45.823820885270834" lon="8.94470589235425">
        <ele>411.1009521484375</ele>
        <time>2005-08-12T13:51:58Z</time>
      </trkpt>
      <trkpt lat="45.823814515024424" lon="8.944566752761602">
        <ele>412.062255859375</ele>
        <time>2005-08-12T13:52:01Z</time>
      </trkpt>
      <trkpt lat="45.823804875835776" lon="8.944386877119541">
        <ele>413.0235595703125</ele>
        <time>2005-08-12T13:52:05Z</time>
      </trkpt>
      <trkpt lat="45.823802947998047" lon="8.944233823567629">
        <ele>414.4654541015625</ele>
        <time>2005-08-12T13:52:09Z</time>
      </trkpt>
      <trkpt lat="45.82385340705514" lon="8.944135587662458">
        <ele>413.5042724609375</ele>
        <time>2005-08-12T13:52:15Z</time>
      </trkpt>
      <trkpt lat="45.823931191116571" lon="8.944038525223732">
        <ele>413.98486328125</ele>
        <time>2005-08-12T13:52:20Z</time>
      </trkpt>
      <trkpt lat="45.824004197493196" lon="8.943949844688177">
        <ele>413.98486328125</ele>
        <time>2005-08-12T13:52:24Z</time>
      </trkpt>
      <trkpt lat="45.824088854715228" lon="8.943859068676829">
        <ele>413.98486328125</ele>
        <time>2005-08-12T13:52:28Z</time>
      </trkpt>
      <trkpt lat="45.824179127812386" lon="8.943776590749621">
        <ele>413.98486328125</ele>
        <time>2005-08-12T13:52:31Z</time>
      </trkpt>
      <trkpt lat="45.824273088946939" lon="8.943692436441779">
        <ele>414.4654541015625</ele>
        <time>2005-08-12T13:52:34Z</time>
      </trkpt>
      <trkpt lat="45.824370654299855" lon="8.943613227456808">
        <ele>413.98486328125</ele>
        <time>2005-08-12T13:52:37Z</time>
      </trkpt>
      <trkpt lat="45.824468806385994" lon="8.943545166403055">
        <ele>414.4654541015625</ele>
        <time>2005-08-12T13:52:40Z</time>
      </trkpt>
      <trkpt lat="45.824561677873135" lon="8.943477272987366">
        <ele>414.4654541015625</ele>
        <time>2005-08-12T13:52:43Z</time>
      </trkpt>
      <trkpt lat="45.824655555188656" lon="8.94340367987752">
        <ele>414.4654541015625</ele>
        <time>2005-08-12T13:52:46Z</time>
      </trkpt>
      <trkpt lat="45.824756724759936" lon="8.943331176415086">
        <ele>414.4654541015625</ele>
        <time>2005-08-12T13:52:49Z</time>
      </trkpt>
      <trkpt lat="45.824855715036392" lon="8.943268479779363">
        <ele>414.9461669921875</ele>
        <time>2005-08-12T13:52:52Z</time>
      </trkpt>
      <trkpt lat="45.824953280389309" lon="8.94321558997035">
        <ele>414.9461669921875</ele>
        <time>2005-08-12T13:52:55Z</time>
      </trkpt>
      <trkpt lat="45.825050259009004" lon="8.943162113428116">
        <ele>415.4268798828125</ele>
        <time>2005-08-12T13:52:58Z</time>
      </trkpt>
      <trkpt lat="45.825149165466428" lon="8.943125065416098">
        <ele>415.4268798828125</ele>
        <time>2005-08-12T13:53:01Z</time>
      </trkpt>
      <trkpt lat="45.825237846001983" lon="8.943084077909589">
        <ele>415.4268798828125</ele>
        <time>2005-08-12T13:53:04Z</time>
      </trkpt>
      <trkpt lat="45.82533298060298" lon="8.943047365173698">
        <ele>415.907470703125</ele>
        <time>2005-08-12T13:53:07Z</time>
      </trkpt>
      <trkpt lat="45.825427193194628" lon="8.943012580275536">
        <ele>415.4268798828125</ele>
        <time>2005-08-12T13:53:10Z</time>
      </trkpt>
      <trkpt lat="45.825523836538196" lon="8.942977879196405">
        <ele>416.868896484375</ele>
        <time>2005-08-12T13:53:13Z</time>
      </trkpt>
      <trkpt lat="45.825622323900461" lon="8.942943681031466">
        <ele>417.349609375</ele>
        <time>2005-08-12T13:53:16Z</time>
      </trkpt>
      <trkpt lat="45.825720140710473" lon="8.942908644676209">
        <ele>418.310791015625</ele>
        <time>2005-08-12T13:53:19Z</time>
      </trkpt>
      <trkpt lat="45.825837319716811" lon="8.942864807322621">
        <ele>420.714111328125</ele>
        <time>2005-08-12T13:53:23Z</time>
      </trkpt>
      <trkpt lat="45.825931532308459" lon="8.942869333550334">
        <ele>420.714111328125</ele>
        <time>2005-08-12T13:53:27Z</time>
      </trkpt>
      <trkpt lat="45.826002191752195" lon="8.943000175058842">
        <ele>420.714111328125</ele>
        <time>2005-08-12T13:53:31Z</time>
      </trkpt>
      <trkpt lat="45.826064804568887" lon="8.943100003525615">
        <ele>420.714111328125</ele>
        <time>2005-08-12T13:53:34Z</time>
      </trkpt>
      <trkpt lat="45.826153066009283" lon="8.943136297166348">
        <ele>420.2333984375</ele>
        <time>2005-08-12T13:53:37Z</time>
      </trkpt>
      <trkpt lat="45.826275022700429" lon="8.943130513653159">
        <ele>420.714111328125</ele>
        <time>2005-08-12T13:53:41Z</time>
      </trkpt>
      <trkpt lat="45.826369319111109" lon="8.943135794252157">
        <ele>421.19482421875</ele>
        <time>2005-08-12T13:53:44Z</time>
      </trkpt>
      <trkpt lat="45.82646613009274" lon="8.943129759281874">
        <ele>421.6754150390625</ele>
        <time>2005-08-12T13:53:47Z</time>
      </trkpt>
      <trkpt lat="45.826561683788896" lon="8.943121545016766">
        <ele>421.6754150390625</ele>
        <time>2005-08-12T13:53:50Z</time>
      </trkpt>
      <trkpt lat="45.826678862795234" lon="8.943125819787383">
        <ele>421.6754150390625</ele>
        <time>2005-08-12T13:53:54Z</time>
      </trkpt>
      <trkpt lat="45.826800735667348" lon="8.943141745403409">
        <ele>422.63671875</ele>
        <time>2005-08-12T13:53:59Z</time>
      </trkpt>
      <trkpt lat="45.82691858522594" lon="8.943096566945314">
        <ele>422.63671875</ele>
        <time>2005-08-12T13:54:03Z</time>
      </trkpt>
      <trkpt lat="45.827019335702062" lon="8.943063793703914">
        <ele>423.117431640625</ele>
        <time>2005-08-12T13:54:06Z</time>
      </trkpt>
      <trkpt lat="45.827122097834945" lon="8.943041497841477">
        <ele>424.0787353515625</ele>
        <time>2005-08-12T13:54:09Z</time>
      </trkpt>
      <trkpt lat="45.827223602682352" lon="8.943023141473532">
        <ele>424.5594482421875</ele>
        <time>2005-08-12T13:54:12Z</time>
      </trkpt>
      <trkpt lat="45.827323347330093" lon="8.94300545565784">
        <ele>425.520751953125</ele>
        <time>2005-08-12T13:54:15Z</time>
      </trkpt>
      <trkpt lat="45.827420158311725" lon="8.942975532263517">
        <ele>426.4820556640625</ele>
        <time>2005-08-12T13:54:18Z</time>
      </trkpt>
      <trkpt lat="45.827510934323072" lon="8.942940244451165">
        <ele>426.4820556640625</ele>
        <time>2005-08-12T13:54:21Z</time>
      </trkpt>
      <trkpt lat="45.827605063095689" lon="8.942915098741651">
        <ele>427.443359375</ele>
        <time>2005-08-12T13:54:24Z</time>
      </trkpt>
      <trkpt lat="45.827699359506369" lon="8.942894479259849">
        <ele>426.9627685546875</ele>
        <time>2005-08-12T13:54:27Z</time>
      </trkpt>
      <trkpt lat="45.827800529077649" lon="8.94287888891995">
        <ele>427.443359375</ele>
        <time>2005-08-12T13:54:30Z</time>
      </trkpt>
      <trkpt lat="45.827909409999847" lon="8.942858185619116">
        <ele>426.9627685546875</ele>
        <time>2005-08-12T13:54:33Z</time>
      </trkpt>
      <trkpt lat="45.828034384176135" lon="8.942794147878885">
        <ele>426.9627685546875</ele>
        <time>2005-08-12T13:54:36Z</time>
      </trkpt>
      <trkpt lat="45.828136056661606" lon="8.942765649408102">
        <ele>426.0013427734375</ele>
        <time>2005-08-12T13:54:39Z</time>
      </trkpt>
      <trkpt lat="45.828130189329386" lon="8.942582085728645">
        <ele>426.4820556640625</ele>
        <time>2005-08-12T13:54:42Z</time>
      </trkpt>
      <trkpt lat="45.828121053054929" lon="8.942429954186082">
        <ele>426.4820556640625</ele>
        <time>2005-08-12T13:54:45Z</time>
      </trkpt>
      <trkpt lat="45.828133877366781" lon="8.942284947261214">
        <ele>426.9627685546875</ele>
        <time>2005-08-12T13:54:48Z</time>
      </trkpt>
      <trkpt lat="45.828155418857932" lon="8.942152177914977">
        <ele>427.9239501953125</ele>
        <time>2005-08-12T13:54:51Z</time>
      </trkpt>
      <trkpt lat="45.828177630901337" lon="8.942018738016486">
        <ele>427.9239501953125</ele>
        <time>2005-08-12T13:54:54Z</time>
      </trkpt>
      <trkpt lat="45.828226748853922" lon="8.941870629787445">
        <ele>429.365966796875</ele>
        <time>2005-08-12T13:54:58Z</time>
      </trkpt>
      <trkpt lat="45.828255163505673" lon="8.9417330827564">
        <ele>432.25</ele>
        <time>2005-08-12T13:55:03Z</time>
      </trkpt>
      <trkpt lat="45.828244099393487" lon="8.941616825759411">
        <ele>432.25</ele>
        <time>2005-08-12T13:55:08Z</time>
      </trkpt>
      <trkpt lat="45.828269245103002" lon="8.941492270678282">
        <ele>432.730712890625</ele>
        <time>2005-08-12T13:55:14Z</time>
      </trkpt>
      <trkpt lat="45.828265976160765" lon="8.941358914598823">
        <ele>434.172607421875</ele>
        <time>2005-08-12T13:55:21Z</time>
      </trkpt>
      <trkpt lat="45.82835759036243" lon="8.941297391429544">
        <ele>433.69189453125</ele>
        <time>2005-08-12T13:55:26Z</time>
      </trkpt>
      <trkpt lat="45.82844409160316" lon="8.941257325932384">
        <ele>432.25</ele>
        <time>2005-08-12T13:55:30Z</time>
      </trkpt>
      <trkpt lat="45.828552301973104" lon="8.94120829179883">
        <ele>430.8079833984375</ele>
        <time>2005-08-12T13:55:34Z</time>
      </trkpt>
      <trkpt lat="45.828654142096639" lon="8.941185073927045">
        <ele>429.8465576171875</ele>
        <time>2005-08-12T13:55:37Z</time>
      </trkpt>
      <trkpt lat="45.828775176778436" lon="8.941157748922706">
        <ele>428.8853759765625</ele>
        <time>2005-08-12T13:55:40Z</time>
      </trkpt>
      <trkpt lat="45.828903755173087" lon="8.941134614869952">
        <ele>428.8853759765625</ele>
        <time>2005-08-12T13:55:43Z</time>
      </trkpt>
      <trkpt lat="45.829038368538022" lon="8.941154144704342">
        <ele>428.4046630859375</ele>
        <time>2005-08-12T13:55:46Z</time>
      </trkpt>
      <trkpt lat="45.829173317179084" lon="8.941173674538732">
        <ele>427.9239501953125</ele>
        <time>2005-08-12T13:55:49Z</time>
      </trkpt>
      <trkpt lat="45.829308265820146" lon="8.941193288192153">
        <ele>427.9239501953125</ele>
        <time>2005-08-12T13:55:52Z</time>
      </trkpt>
      <trkpt lat="45.829432150349021" lon="8.941241903230548">
        <ele>427.443359375</ele>
        <time>2005-08-12T13:55:55Z</time>
      </trkpt>
      <trkpt lat="45.82950247451663" lon="8.941419012844563">
        <ele>427.443359375</ele>
        <time>2005-08-12T13:55:59Z</time>
      </trkpt>
      <trkpt lat="45.829595094546676" lon="8.941453797742724">
        <ele>426.4820556640625</ele>
        <time>2005-08-12T13:56:03Z</time>
      </trkpt>
      <trkpt lat="45.829699784517288" lon="8.941499730572105">
        <ele>425.520751953125</ele>
        <time>2005-08-12T13:56:07Z</time>
      </trkpt>
      <trkpt lat="45.829791566357017" lon="8.941542813554406">
        <ele>423.117431640625</ele>
        <time>2005-08-12T13:56:10Z</time>
      </trkpt>
      <trkpt lat="45.829879911616445" lon="8.94160894677043">
        <ele>422.156005859375</ele>
        <time>2005-08-12T13:56:13Z</time>
      </trkpt>
      <trkpt lat="45.829994073137641" lon="8.941668206825852">
        <ele>420.714111328125</ele>
        <time>2005-08-12T13:56:16Z</time>
      </trkpt>
      <trkpt lat="45.830080406740308" lon="8.941711625084281">
        <ele>419.272216796875</ele>
        <time>2005-08-12T13:56:18Z</time>
      </trkpt>
      <trkpt lat="45.830166824162006" lon="8.94175504334271">
        <ele>419.272216796875</ele>
        <time>2005-08-12T13:56:20Z</time>
      </trkpt>
      <trkpt lat="45.83029548637569" lon="8.941807681694627">
        <ele>419.7528076171875</ele>
        <time>2005-08-12T13:56:23Z</time>
      </trkpt>
      <trkpt lat="45.830335635691881" lon="8.941669464111328">
        <ele>418.79150390625</ele>
        <time>2005-08-12T13:56:26Z</time>
      </trkpt>
      <trkpt lat="45.830388944596052" lon="8.941516662016511">
        <ele>419.272216796875</ele>
        <time>2005-08-12T13:56:30Z</time>
      </trkpt>
      <trkpt lat="45.830481983721256" lon="8.94145262427628">
        <ele>419.7528076171875</ele>
        <time>2005-08-12T13:56:33Z</time>
      </trkpt>
      <trkpt lat="45.830586170777678" lon="8.941426640376449">
        <ele>420.2333984375</ele>
        <time>2005-08-12T13:56:36Z</time>
      </trkpt>
      <trkpt lat="45.83066051825881" lon="8.94153862260282">
        <ele>420.2333984375</ele>
        <time>2005-08-12T13:56:41Z</time>
      </trkpt>
      <trkpt lat="45.830696895718575" lon="8.941659573465586">
        <ele>422.156005859375</ele>
        <time>2005-08-12T13:56:47Z</time>
      </trkpt>
      <trkpt lat="45.830730590969324" lon="8.941792510449886">
        <ele>422.63671875</ele>
        <time>2005-08-12T13:56:52Z</time>
      </trkpt>
      <trkpt lat="45.830812733620405" lon="8.941836012527347">
        <ele>423.117431640625</ele>
        <time>2005-08-12T13:57:01Z</time>
      </trkpt>
      <trkpt lat="45.830915244296193" lon="8.941742386668921">
        <ele>425.0401611328125</ele>
        <time>2005-08-12T13:57:08Z</time>
      </trkpt>
      <trkpt lat="45.831021191552281" lon="8.941663345322013">
        <ele>423.5980224609375</ele>
        <time>2005-08-12T13:57:13Z</time>
      </trkpt>
      <trkpt lat="45.831123450770974" lon="8.941661836579442">
        <ele>423.5980224609375</ele>
        <time>2005-08-12T13:57:17Z</time>
      </trkpt>
      <trkpt lat="45.831233505159616" lon="8.941724868491292">
        <ele>423.5980224609375</ele>
        <time>2005-08-12T13:57:21Z</time>
      </trkpt>
      <trkpt lat="45.831368789076805" lon="8.941704416647553">
        <ele>424.0787353515625</ele>
        <time>2005-08-12T13:57:25Z</time>
      </trkpt>
      <trkpt lat="45.831470629200339" lon="8.941648593172431">
        <ele>423.5980224609375</ele>
        <time>2005-08-12T13:57:28Z</time>
      </trkpt>
      <trkpt lat="45.831568446010351" lon="8.941570641472936">
        <ele>423.117431640625</ele>
        <time>2005-08-12T13:57:31Z</time>
      </trkpt>
      <trkpt lat="45.831670705229044" lon="8.941480955109">
        <ele>423.117431640625</ele>
        <time>2005-08-12T13:57:34Z</time>
      </trkpt>
      <trkpt lat="45.831756871193647" lon="8.941397303715348">
        <ele>423.117431640625</ele>
        <time>2005-08-12T13:57:37Z</time>
      </trkpt>
      <trkpt lat="45.831840941682458" lon="8.94130845554173">
        <ele>423.5980224609375</ele>
        <time>2005-08-12T13:57:40Z</time>
      </trkpt>
      <trkpt lat="45.831938087940216" lon="8.941264450550079">
        <ele>424.0787353515625</ele>
        <time>2005-08-12T13:57:43Z</time>
      </trkpt>
      <trkpt lat="45.832034396007657" lon="8.941280376166105">
        <ele>424.0787353515625</ele>
        <time>2005-08-12T13:57:46Z</time>
      </trkpt>
      <trkpt lat="45.832134895026684" lon="8.941335529088974">
        <ele>426.4820556640625</ele>
        <time>2005-08-12T13:57:50Z</time>
      </trkpt>
      <trkpt lat="45.832242602482438" lon="8.941387077793479">
        <ele>426.9627685546875</ele>
        <time>2005-08-12T13:57:54Z</time>
      </trkpt>
      <trkpt lat="45.832351483404636" lon="8.941463269293308">
        <ele>426.4820556640625</ele>
        <time>2005-08-12T13:57:58Z</time>
      </trkpt>
      <trkpt lat="45.832443684339523" lon="8.941519428044558">
        <ele>426.9627685546875</ele>
        <time>2005-08-12T13:58:01Z</time>
      </trkpt>
      <trkpt lat="45.832537645474076" lon="8.941567707806826">
        <ele>427.443359375</ele>
        <time>2005-08-12T13:58:04Z</time>
      </trkpt>
      <trkpt lat="45.832630349323153" lon="8.941617244854569">
        <ele>427.443359375</ele>
        <time>2005-08-12T13:58:07Z</time>
      </trkpt>
      <trkpt lat="45.832720706239343" lon="8.941676085814834">
        <ele>427.443359375</ele>
        <time>2005-08-12T13:58:10Z</time>
      </trkpt>
      <trkpt lat="45.832809302955866" lon="8.941739117726684">
        <ele>427.9239501953125</ele>
        <time>2005-08-12T13:58:13Z</time>
      </trkpt>
      <trkpt lat="45.832892702892423" lon="8.94180147908628">
        <ele>427.9239501953125</ele>
        <time>2005-08-12T13:58:16Z</time>
      </trkpt>
      <trkpt lat="45.832985658198595" lon="8.941845735535026">
        <ele>427.9239501953125</ele>
        <time>2005-08-12T13:58:19Z</time>
      </trkpt>
      <trkpt lat="45.83307676948607" lon="8.941850513219833">
        <ele>428.4046630859375</ele>
        <time>2005-08-12T13:58:22Z</time>
      </trkpt>
      <trkpt lat="45.833175759762526" lon="8.941823104396462">
        <ele>429.8465576171875</ele>
        <time>2005-08-12T13:58:26Z</time>
      </trkpt>
      <trkpt lat="45.833326550200582" lon="8.94173065200448">
        <ele>431.7691650390625</ele>
        <time>2005-08-12T13:59:54Z</time>
      </trkpt>
      <trkpt lat="45.833412129431963" lon="8.941616909578443">
        <ele>431.7691650390625</ele>
        <time>2005-08-12T13:59:57Z</time>
      </trkpt>
      <trkpt lat="45.833520842716098" lon="8.94161481410265">
        <ele>432.25</ele>
        <time>2005-08-12T14:00:00Z</time>
      </trkpt>
      <trkpt lat="45.833625867962837" lon="8.941660076379776">
        <ele>432.25</ele>
        <time>2005-08-12T14:00:03Z</time>
      </trkpt>
      <trkpt lat="45.83373885601759" lon="8.941708188503981">
        <ele>433.2113037109375</ele>
        <time>2005-08-12T14:00:06Z</time>
      </trkpt>
      <trkpt lat="45.833856118842959" lon="8.941746996715665">
        <ele>433.2113037109375</ele>
        <time>2005-08-12T14:00:09Z</time>
      </trkpt>
      <trkpt lat="45.833967681974173" lon="8.941798126325011">
        <ele>433.69189453125</ele>
        <time>2005-08-12T14:00:12Z</time>
      </trkpt>
      <trkpt lat="45.834077065810561" lon="8.941858392208815">
        <ele>434.172607421875</ele>
        <time>2005-08-12T14:00:15Z</time>
      </trkpt>
      <trkpt lat="45.83418351598084" lon="8.941913712769747">
        <ele>434.6533203125</ele>
        <time>2005-08-12T14:00:18Z</time>
      </trkpt>
      <trkpt lat="45.83428175188601" lon="8.941941289231181">
        <ele>436.09521484375</ele>
        <time>2005-08-12T14:00:21Z</time>
      </trkpt>
      <trkpt lat="45.834352243691683" lon="8.941863169893622">
        <ele>437.0565185546875</ele>
        <time>2005-08-12T14:00:24Z</time>
      </trkpt>
      <trkpt lat="45.834358194842935" lon="8.941712463274598">
        <ele>437.537109375</ele>
        <time>2005-08-12T14:00:27Z</time>
      </trkpt>
      <trkpt lat="45.834365403279662" lon="8.941551698371768">
        <ele>437.537109375</ele>
        <time>2005-08-12T14:00:30Z</time>
      </trkpt>
      <trkpt lat="45.834377640858293" lon="8.941384647041559">
        <ele>437.537109375</ele>
        <time>2005-08-12T14:00:33Z</time>
      </trkpt>
      <trkpt lat="45.834387866780162" lon="8.941219188272953">
        <ele>437.537109375</ele>
        <time>2005-08-12T14:00:36Z</time>
      </trkpt>
      <trkpt lat="45.834393901750445" lon="8.94105289131403">
        <ele>438.9791259765625</ele>
        <time>2005-08-12T14:00:39Z</time>
      </trkpt>
      <trkpt lat="45.834411922842264" lon="8.940891288220882">
        <ele>439.459716796875</ele>
        <time>2005-08-12T14:00:42Z</time>
      </trkpt>
      <trkpt lat="45.834423573687673" lon="8.940731277689338">
        <ele>439.459716796875</ele>
        <time>2005-08-12T14:00:45Z</time>
      </trkpt>
      <trkpt lat="45.834505464881659" lon="8.940651984885335">
        <ele>440.90185546875</ele>
        <time>2005-08-12T14:00:48Z</time>
      </trkpt>
      <trkpt lat="45.834590457379818" lon="8.94069280475378">
        <ele>441.3824462890625</ele>
        <time>2005-08-12T14:00:51Z</time>
      </trkpt>
      <trkpt lat="45.834687435999513" lon="8.940715435892344">
        <ele>442.824462890625</ele>
        <time>2005-08-12T14:00:55Z</time>
      </trkpt>
      <trkpt lat="45.834785839542747" lon="8.940752316266298">
        <ele>443.3050537109375</ele>
        <time>2005-08-12T14:00:59Z</time>
      </trkpt>
      <trkpt lat="45.834885165095329" lon="8.940782491117716">
        <ele>444.7470703125</ele>
        <time>2005-08-12T14:01:03Z</time>
      </trkpt>
      <trkpt lat="45.834967810660601" lon="8.940836135298014">
        <ele>446.1890869140625</ele>
        <time>2005-08-12T14:01:07Z</time>
      </trkpt>
      <trkpt lat="45.835020700469613" lon="8.940953146666288">
        <ele>446.1890869140625</ele>
        <time>2005-08-12T14:01:11Z</time>
      </trkpt>
      <trkpt lat="45.835060849785805" lon="8.941107960417867">
        <ele>446.669677734375</ele>
        <time>2005-08-12T14:01:15Z</time>
      </trkpt>
      <trkpt lat="45.835090018808842" lon="8.941271407529712">
        <ele>446.669677734375</ele>
        <time>2005-08-12T14:01:19Z</time>
      </trkpt>
      <trkpt lat="45.835113236680627" lon="8.941389508545399">
        <ele>446.669677734375</ele>
        <time>2005-08-12T14:01:22Z</time>
      </trkpt>
      <trkpt lat="45.835147015750408" lon="8.941540382802486">
        <ele>447.1502685546875</ele>
        <time>2005-08-12T14:01:26Z</time>
      </trkpt>
      <trkpt lat="45.835174256935716" lon="8.941681953147054">
        <ele>448.11181640625</ele>
        <time>2005-08-12T14:01:30Z</time>
      </trkpt>
      <trkpt lat="45.835170317441225" lon="8.941905666142702">
        <ele>450.5150146484375</ele>
        <time>2005-08-12T14:01:53Z</time>
      </trkpt>
      <trkpt lat="45.835145255550742" lon="8.941923603415489">
        <ele>450.99560546875</ele>
        <time>2005-08-12T14:01:58Z</time>
      </trkpt>
      <trkpt lat="45.83523066714406" lon="8.942093169316649">
        <ele>450.5150146484375</ele>
        <time>2005-08-12T14:02:04Z</time>
      </trkpt>
      <trkpt lat="45.835279868915677" lon="8.942259466275573">
        <ele>450.5150146484375</ele>
        <time>2005-08-12T14:02:08Z</time>
      </trkpt>
      <trkpt lat="45.8353356923908" lon="8.942436492070556">
        <ele>450.5150146484375</ele>
        <time>2005-08-12T14:02:12Z</time>
      </trkpt>
      <trkpt lat="45.835395120084286" lon="8.942608321085572">
        <ele>450.5150146484375</ele>
        <time>2005-08-12T14:02:16Z</time>
      </trkpt>
      <trkpt lat="45.835431329905987" lon="8.94278802908957">
        <ele>450.5150146484375</ele>
        <time>2005-08-12T14:02:20Z</time>
      </trkpt>
      <trkpt lat="45.835448428988457" lon="8.942939741536975">
        <ele>450.5150146484375</ele>
        <time>2005-08-12T14:02:25Z</time>
      </trkpt>
      <trkpt lat="45.835497966036201" lon="8.943079384043813">
        <ele>450.5150146484375</ele>
        <time>2005-08-12T14:02:31Z</time>
      </trkpt>
      <trkpt lat="45.835559908300638" lon="8.943183068186045">
        <ele>450.034423828125</ele>
        <time>2005-08-12T14:02:47Z</time>
      </trkpt>
      <trkpt lat="45.835603661835194" lon="8.943343833088875">
        <ele>449.5537109375</ele>
        <time>2005-08-12T14:02:52Z</time>
      </trkpt>
      <trkpt lat="45.835639117285609" lon="8.943486241623759">
        <ele>448.11181640625</ele>
        <time>2005-08-12T14:02:55Z</time>
      </trkpt>
      <trkpt lat="45.835726205259562" lon="8.943716576322913">
        <ele>447.1502685546875</ele>
        <time>2005-08-12T14:02:58Z</time>
      </trkpt>
      <trkpt lat="45.835754284635186" lon="8.943891925737262">
        <ele>447.1502685546875</ele>
        <time>2005-08-12T14:03:00Z</time>
      </trkpt>
      <trkpt lat="45.835779095068574" lon="8.944064676761627">
        <ele>447.6309814453125</ele>
        <time>2005-08-12T14:03:02Z</time>
      </trkpt>
      <trkpt lat="45.835794266313314" lon="8.944254023954272">
        <ele>448.11181640625</ele>
        <time>2005-08-12T14:03:05Z</time>
      </trkpt>
      <trkpt lat="45.835807761177421" lon="8.944422919303179">
        <ele>448.5924072265625</ele>
        <time>2005-08-12T14:03:08Z</time>
      </trkpt>
      <trkpt lat="45.835820585489273" lon="8.944583851844072">
        <ele>448.5924072265625</ele>
        <time>2005-08-12T14:03:11Z</time>
      </trkpt>
      <trkpt lat="45.835832739248872" lon="8.94473522901535">
        <ele>449.5537109375</ele>
        <time>2005-08-12T14:03:14Z</time>
      </trkpt>
      <trkpt lat="45.835848245769739" lon="8.944928599521518">
        <ele>450.5150146484375</ele>
        <time>2005-08-12T14:03:18Z</time>
      </trkpt>
      <trkpt lat="45.835866602137685" lon="8.945113755762577">
        <ele>450.99560546875</ele>
        <time>2005-08-12T14:03:22Z</time>
      </trkpt>
      <trkpt lat="45.835926532745361" lon="8.945263708010316">
        <ele>450.99560546875</ele>
        <time>2005-08-12T14:03:26Z</time>
      </trkpt>
      <trkpt lat="45.835992833599448" lon="8.945429250597954">
        <ele>450.99560546875</ele>
        <time>2005-08-12T14:03:30Z</time>
      </trkpt>
      <trkpt lat="45.836059134453535" lon="8.94558247178793">
        <ele>451.476318359375</ele>
        <time>2005-08-12T14:03:34Z</time>
      </trkpt>
      <trkpt lat="45.836202800273895" lon="8.94561767578125">
        <ele>452.4376220703125</ele>
        <time>2005-08-12T14:03:39Z</time>
      </trkpt>
      <trkpt lat="45.836267927661538" lon="8.94561767578125">
        <ele>453.879638671875</ele>
        <time>2005-08-12T14:03:49Z</time>
      </trkpt>
      <trkpt lat="45.836451994255185" lon="8.94561767578125">
        <ele>456.282958984375</ele>
        <time>2005-08-12T14:03:56Z</time>
      </trkpt>
      <trkpt lat="45.83657193928957" lon="8.94561767578125">
        <ele>457.2442626953125</ele>
        <time>2005-08-12T14:04:02Z</time>
      </trkpt>
      <trkpt lat="45.836657518520951" lon="8.94566553644836">
        <ele>458.20556640625</ele>
        <time>2005-08-12T14:04:08Z</time>
      </trkpt>
      <trkpt lat="45.836749132722616" lon="8.94573200494051">
        <ele>460.128173828125</ele>
        <time>2005-08-12T14:04:14Z</time>
      </trkpt>
      <trkpt lat="45.836848793551326" lon="8.945804508402944">
        <ele>461.5701904296875</ele>
        <time>2005-08-12T14:04:20Z</time>
      </trkpt>
      <trkpt lat="45.836937641724944" lon="8.945869216695428">
        <ele>462.05078125</ele>
        <time>2005-08-12T14:04:25Z</time>
      </trkpt>
      <trkpt lat="45.837031435221434" lon="8.945937277749181">
        <ele>463.4927978515625</ele>
        <time>2005-08-12T14:04:30Z</time>
      </trkpt>
      <trkpt lat="45.837170658633113" lon="8.945960998535156">
        <ele>464.4541015625</ele>
        <time>2005-08-12T14:04:35Z</time>
      </trkpt>
      <trkpt lat="45.837235450744629" lon="8.945930823683739">
        <ele>465.41552734375</ele>
        <time>2005-08-12T14:04:40Z</time>
      </trkpt>
      <trkpt lat="45.837835762649775" lon="8.946059988811612">
        <ele>473.1060791015625</ele>
        <time>2005-08-12T14:05:24Z</time>
      </trkpt>
      <trkpt lat="45.837920671328902" lon="8.945980779826641">
        <ele>473.1060791015625</ele>
        <time>2005-08-12T14:05:30Z</time>
      </trkpt>
      <trkpt lat="45.838004490360618" lon="8.945893859490752">
        <ele>473.1060791015625</ele>
        <time>2005-08-12T14:05:35Z</time>
      </trkpt>
      <trkpt lat="45.838097613304853" lon="8.945790678262711">
        <ele>473.586669921875</ele>
        <time>2005-08-12T14:05:40Z</time>
      </trkpt>
      <trkpt lat="45.838196855038404" lon="8.945715995505452">
        <ele>474.0672607421875</ele>
        <time>2005-08-12T14:05:44Z</time>
      </trkpt>
      <trkpt lat="45.83828067407012" lon="8.945636618882418">
        <ele>474.5479736328125</ele>
        <time>2005-08-12T14:05:48Z</time>
      </trkpt>
      <trkpt lat="45.838375389575958" lon="8.945553721860051">
        <ele>474.5479736328125</ele>
        <time>2005-08-12T14:05:52Z</time>
      </trkpt>
      <trkpt lat="45.838467506691813" lon="8.945448864251375">
        <ele>475.0286865234375</ele>
        <time>2005-08-12T14:05:56Z</time>
      </trkpt>
      <trkpt lat="45.838551660999656" lon="8.945347610861063">
        <ele>475.0286865234375</ele>
        <time>2005-08-12T14:06:00Z</time>
      </trkpt>
      <trkpt lat="45.838633719831705" lon="8.945202939212322">
        <ele>475.0286865234375</ele>
        <time>2005-08-12T14:06:04Z</time>
      </trkpt>
      <trkpt lat="45.838701697066426" lon="8.945075031369925">
        <ele>476.9512939453125</ele>
        <time>2005-08-12T14:06:08Z</time>
      </trkpt>
      <trkpt lat="45.838770596310496" lon="8.944947877898812">
        <ele>476.4705810546875</ele>
        <time>2005-08-12T14:06:12Z</time>
      </trkpt>
      <trkpt lat="45.838854247704148" lon="8.944799350574613">
        <ele>475.0286865234375</ele>
        <time>2005-08-12T14:06:16Z</time>
      </trkpt>
      <trkpt lat="45.838936725631356" lon="8.944623917341232">
        <ele>474.5479736328125</ele>
        <time>2005-08-12T14:06:20Z</time>
      </trkpt>
      <trkpt lat="45.838991878554225" lon="8.944455441087484">
        <ele>473.586669921875</ele>
        <time>2005-08-12T14:06:23Z</time>
      </trkpt>
      <trkpt lat="45.839042505249381" lon="8.944234326481819">
        <ele>473.1060791015625</ele>
        <time>2005-08-12T14:06:26Z</time>
      </trkpt>
      <trkpt lat="45.839071171358228" lon="8.944072471931577">
        <ele>472.1446533203125</ele>
        <time>2005-08-12T14:06:28Z</time>
      </trkpt>
      <trkpt lat="45.839106207713485" lon="8.943846747279167">
        <ele>470.221923828125</ele>
        <time>2005-08-12T14:06:31Z</time>
      </trkpt>
      <trkpt lat="45.839137136936188" lon="8.943645246326923">
        <ele>469.7413330078125</ele>
        <time>2005-08-12T14:06:34Z</time>
      </trkpt>
      <trkpt lat="45.839158175513148" lon="8.943442823365331">
        <ele>469.2607421875</ele>
        <time>2005-08-12T14:06:37Z</time>
      </trkpt>
      <trkpt lat="45.839171167463064" lon="8.9432492852211">
        <ele>469.2607421875</ele>
        <time>2005-08-12T14:06:40Z</time>
      </trkpt>
      <trkpt lat="45.839192625135183" lon="8.943079886958003">
        <ele>469.2607421875</ele>
        <time>2005-08-12T14:06:43Z</time>
      </trkpt>
      <trkpt lat="45.839214166626334" lon="8.942910488694906">
        <ele>468.29931640625</ele>
        <time>2005-08-12T14:06:46Z</time>
      </trkpt>
      <trkpt lat="45.839235624298453" lon="8.942741174250841">
        <ele>468.780029296875</ele>
        <time>2005-08-12T14:06:49Z</time>
      </trkpt>
      <trkpt lat="45.839254483580589" lon="8.942576134577394">
        <ele>468.780029296875</ele>
        <time>2005-08-12T14:06:52Z</time>
      </trkpt>
      <trkpt lat="45.839274181053042" lon="8.942416626960039">
        <ele>467.8187255859375</ele>
        <time>2005-08-12T14:06:55Z</time>
      </trkpt>
      <trkpt lat="45.839284406974912" lon="8.942270195111632">
        <ele>466.857421875</ele>
        <time>2005-08-12T14:06:58Z</time>
      </trkpt>
      <trkpt lat="45.839299075305462" lon="8.942113788798451">
        <ele>465.41552734375</ele>
        <time>2005-08-12T14:07:01Z</time>
      </trkpt>
      <trkpt lat="45.8393160905689" lon="8.941943887621164">
        <ele>464.934814453125</ele>
        <time>2005-08-12T14:07:04Z</time>
      </trkpt>
      <trkpt lat="45.839338302612305" lon="8.941816901788116">
        <ele>464.4541015625</ele>
        <time>2005-08-12T14:07:06Z</time>
      </trkpt>
      <trkpt lat="45.839363448321819" lon="8.941682958975434">
        <ele>463.4927978515625</ele>
        <time>2005-08-12T14:07:08Z</time>
      </trkpt>
      <trkpt lat="45.839390605688095" lon="8.941545831039548">
        <ele>463.0120849609375</ele>
        <time>2005-08-12T14:07:10Z</time>
      </trkpt>
      <trkpt lat="45.839417846873403" lon="8.941408703103662">
        <ele>461.5701904296875</ele>
        <time>2005-08-12T14:07:12Z</time>
      </trkpt>
      <trkpt lat="45.839445004239678" lon="8.941271575167775">
        <ele>461.0894775390625</ele>
        <time>2005-08-12T14:07:14Z</time>
      </trkpt>
      <trkpt lat="45.839453637599945" lon="8.94113402813673">
        <ele>461.0894775390625</ele>
        <time>2005-08-12T14:07:16Z</time>
      </trkpt>
      <trkpt lat="45.839472999796271" lon="8.940997403115034">
        <ele>460.6087646484375</ele>
        <time>2005-08-12T14:07:18Z</time>
      </trkpt>
      <trkpt lat="45.839477190747857" lon="8.94086186774075">
        <ele>460.128173828125</ele>
        <time>2005-08-12T14:07:20Z</time>
      </trkpt>
      <trkpt lat="45.839496972039342" lon="8.940724739804864">
        <ele>461.0894775390625</ele>
        <time>2005-08-12T14:07:22Z</time>
      </trkpt>
      <trkpt lat="45.839516753330827" lon="8.940587695688009">
        <ele>462.05078125</ele>
        <time>2005-08-12T14:07:24Z</time>
      </trkpt>
      <trkpt lat="45.839528236538172" lon="8.940460877493024">
        <ele>461.5701904296875</ele>
        <time>2005-08-12T14:07:26Z</time>
      </trkpt>
      <trkpt lat="45.839549191296101" lon="8.940327353775501">
        <ele>460.6087646484375</ele>
        <time>2005-08-12T14:07:28Z</time>
      </trkpt>
      <trkpt lat="45.839555477723479" lon="8.940197685733438">
        <ele>460.6087646484375</ele>
        <time>2005-08-12T14:07:30Z</time>
      </trkpt>
      <trkpt lat="45.839574672281742" lon="8.940065251663327">
        <ele>460.128173828125</ele>
        <time>2005-08-12T14:07:32Z</time>
      </trkpt>
      <trkpt lat="45.839569391682744" lon="8.939927956089377">
        <ele>459.1668701171875</ele>
        <time>2005-08-12T14:07:34Z</time>
      </trkpt>
      <trkpt lat="45.839554807171226" lon="8.939784625545144">
        <ele>458.20556640625</ele>
        <time>2005-08-12T14:07:36Z</time>
      </trkpt>
      <trkpt lat="45.839539216831326" lon="8.939633835107088">
        <ele>456.7635498046875</ele>
        <time>2005-08-12T14:07:38Z</time>
      </trkpt>
      <trkpt lat="45.839545587077737" lon="8.939485307782888">
        <ele>454.8408203125</ele>
        <time>2005-08-12T14:07:40Z</time>
      </trkpt>
      <trkpt lat="45.839551957324147" lon="8.939336696639657">
        <ele>452.4376220703125</ele>
        <time>2005-08-12T14:07:42Z</time>
      </trkpt>
      <trkpt lat="45.839558243751526" lon="8.939188169315457">
        <ele>448.5924072265625</ele>
        <time>2005-08-12T14:07:44Z</time>
      </trkpt>
      <trkpt lat="45.839564613997936" lon="8.939039558172226">
        <ele>446.669677734375</ele>
        <time>2005-08-12T14:07:46Z</time>
      </trkpt>
      <trkpt lat="45.839570900425315" lon="8.938891030848026">
        <ele>444.7470703125</ele>
        <time>2005-08-12T14:07:48Z</time>
      </trkpt>
      <trkpt lat="45.839577270671725" lon="8.938742419704795">
        <ele>444.2664794921875</ele>
        <time>2005-08-12T14:07:50Z</time>
      </trkpt>
      <trkpt lat="45.839583640918136" lon="8.938593892380595">
        <ele>443.7857666015625</ele>
        <time>2005-08-12T14:07:52Z</time>
      </trkpt>
      <trkpt lat="45.839589927345514" lon="8.938445281237364">
        <ele>441.8631591796875</ele>
        <time>2005-08-12T14:07:54Z</time>
      </trkpt>
      <trkpt lat="45.839564027264714" lon="8.938277307897806">
        <ele>438.49853515625</ele>
        <time>2005-08-12T14:07:56Z</time>
      </trkpt>
      <trkpt lat="45.839538713917136" lon="8.938108664005995">
        <ele>435.1339111328125</ele>
        <time>2005-08-12T14:07:58Z</time>
      </trkpt>
      <trkpt lat="45.839535193517804" lon="8.937949072569609">
        <ele>432.730712890625</ele>
        <time>2005-08-12T14:08:00Z</time>
      </trkpt>
      <trkpt lat="45.839531756937504" lon="8.937789481133223">
        <ele>430.3272705078125</ele>
        <time>2005-08-12T14:08:02Z</time>
      </trkpt>
      <trkpt lat="45.839528236538172" lon="8.937629973515868">
        <ele>428.8853759765625</ele>
        <time>2005-08-12T14:08:04Z</time>
      </trkpt>
      <trkpt lat="45.83952471613884" lon="8.937470382079482">
        <ele>428.4046630859375</ele>
        <time>2005-08-12T14:08:06Z</time>
      </trkpt>
      <trkpt lat="45.839521195739508" lon="8.937310790643096">
        <ele>428.4046630859375</ele>
        <time>2005-08-12T14:08:08Z</time>
      </trkpt>
      <trkpt lat="45.839517675340176" lon="8.937151283025742">
        <ele>428.8853759765625</ele>
        <time>2005-08-12T14:08:10Z</time>
      </trkpt>
      <trkpt lat="45.839123725891113" lon="8.935918807983398">
        <ele>428.4046630859375</ele>
        <time>2005-08-12T14:08:12Z</time>
      </trkpt>
      <trkpt lat="45.839123725891113" lon="8.935918807983398">
        <ele>428.4046630859375</ele>
        <time>2005-08-12T14:08:14Z</time>
      </trkpt>
      <trkpt lat="45.839123725891113" lon="8.935918807983398">
        <ele>428.4046630859375</ele>
        <time>2005-08-12T14:08:16Z</time>
      </trkpt>
      <trkpt lat="45.839123725891113" lon="8.935918807983398">
        <ele>427.443359375</ele>
        <time>2005-08-12T14:08:18Z</time>
      </trkpt>
      <trkpt lat="45.839123725891113" lon="8.935918807983398">
        <ele>428.4046630859375</ele>
        <time>2005-08-12T14:08:20Z</time>
      </trkpt>
      <trkpt lat="45.839123725891113" lon="8.935918807983398">
        <ele>427.9239501953125</ele>
        <time>2005-08-12T14:08:22Z</time>
      </trkpt>
      <trkpt lat="45.83795721642673" lon="8.936670748516917">
        <ele>427.9239501953125</ele>
        <time>2005-08-12T14:08:32Z</time>
      </trkpt>
      <trkpt lat="45.837046774104238" lon="8.936627330258489">
        <ele>433.69189453125</ele>
        <time>2005-08-12T14:10:42Z</time>
      </trkpt>
      <trkpt lat="45.836385693401098" lon="8.936705449596047">
        <ele>434.6533203125</ele>
        <time>2005-08-12T14:11:04Z</time>
      </trkpt>
      <trkpt lat="45.836302461102605" lon="8.936775606125593">
        <ele>435.614501953125</ele>
        <time>2005-08-12T14:11:14Z</time>
      </trkpt>
      <trkpt lat="45.836118729785085" lon="8.936730595305562">
        <ele>437.537109375</ele>
        <time>2005-08-12T14:11:21Z</time>
      </trkpt>
      <trkpt lat="45.835916390642524" lon="8.93671534024179">
        <ele>437.537109375</ele>
        <time>2005-08-12T14:11:27Z</time>
      </trkpt>
      <trkpt lat="45.835804659873247" lon="8.936761189252138">
        <ele>439.459716796875</ele>
        <time>2005-08-12T14:11:33Z</time>
      </trkpt>
      <trkpt lat="45.835696281865239" lon="8.936747191473842">
        <ele>439.9404296875</ele>
        <time>2005-08-12T14:11:40Z</time>
      </trkpt>
      <trkpt lat="45.83562252111733" lon="8.936685249209404">
        <ele>437.0565185546875</ele>
        <time>2005-08-12T14:11:49Z</time>
      </trkpt>
      <trkpt lat="45.835544904693961" lon="8.936590282246471">
        <ele>433.69189453125</ele>
        <time>2005-08-12T14:11:57Z</time>
      </trkpt>
      <trkpt lat="45.835467036813498" lon="8.936432786285877">
        <ele>432.25</ele>
        <time>2005-08-12T14:12:04Z</time>
      </trkpt>
      <trkpt lat="45.835390510037541" lon="8.936143862083554">
        <ele>429.8465576171875</ele>
        <time>2005-08-12T14:12:09Z</time>
      </trkpt>
      <trkpt lat="45.835329992696643" lon="8.935943534597755">
        <ele>429.365966796875</ele>
        <time>2005-08-12T14:12:13Z</time>
      </trkpt>
      <trkpt lat="45.835259165614843" lon="8.935687718912959">
        <ele>428.4046630859375</ele>
        <time>2005-08-12T14:12:18Z</time>
      </trkpt>
      <trkpt lat="45.835189763456583" lon="8.935412289574742">
        <ele>427.443359375</ele>
        <time>2005-08-12T14:12:23Z</time>
      </trkpt>
      <trkpt lat="45.835152547806501" lon="8.935237359255552">
        <ele>425.0401611328125</ele>
        <time>2005-08-12T14:12:27Z</time>
      </trkpt>
      <trkpt lat="45.835122875869274" lon="8.935019597411156">
        <ele>423.5980224609375</ele>
        <time>2005-08-12T14:12:31Z</time>
      </trkpt>
      <trkpt lat="45.835118014365435" lon="8.934624809771776">
        <ele>421.6754150390625</ele>
        <time>2005-08-12T14:12:40Z</time>
      </trkpt>
      <trkpt lat="45.835118098184466" lon="8.934351895004511">
        <ele>420.2333984375</ele>
        <time>2005-08-12T14:12:48Z</time>
      </trkpt>
      <trkpt lat="45.835178783163428" lon="8.934209486469626">
        <ele>418.79150390625</ele>
        <time>2005-08-12T14:12:53Z</time>
      </trkpt>
      <trkpt lat="45.835220441222191" lon="8.93403522670269">
        <ele>416.38818359375</ele>
        <time>2005-08-12T14:12:58Z</time>
      </trkpt>
      <trkpt lat="45.835245000198483" lon="8.933848142623901">
        <ele>413.98486328125</ele>
        <time>2005-08-12T14:13:03Z</time>
      </trkpt>
      <trkpt lat="45.835266793146729" lon="8.933685533702374">
        <ele>412.062255859375</ele>
        <time>2005-08-12T14:13:08Z</time>
      </trkpt>
      <trkpt lat="45.835271151736379" lon="8.933493420481682">
        <ele>411.5816650390625</ele>
        <time>2005-08-12T14:13:14Z</time>
      </trkpt>
      <trkpt lat="45.835262937471271" lon="8.933298457413912">
        <ele>411.5816650390625</ele>
        <time>2005-08-12T14:13:22Z</time>
      </trkpt>
      <trkpt lat="45.835232427343726" lon="8.933114474639297">
        <ele>406.77490234375</ele>
        <time>2005-08-12T14:13:31Z</time>
      </trkpt>
      <trkpt lat="45.83511876873672" lon="8.93290744163096">
        <ele>403.410400390625</ele>
        <time>2005-08-12T14:13:42Z</time>
      </trkpt>
      <trkpt lat="45.835093455389142" lon="8.932748939841986">
        <ele>398.603759765625</ele>
        <time>2005-08-12T14:13:51Z</time>
      </trkpt>
      <trkpt lat="45.835071578621864" lon="8.932587588205934">
        <ele>395.2391357421875</ele>
        <time>2005-08-12T14:14:00Z</time>
      </trkpt>
      <trkpt lat="45.835055401548743" lon="8.932445934042335">
        <ele>394.758544921875</ele>
        <time>2005-08-12T14:14:09Z</time>
      </trkpt>
      <trkpt lat="45.83501030690968" lon="8.932307800278068">
        <ele>393.7972412109375</ele>
        <time>2005-08-12T14:14:17Z</time>
      </trkpt>
      <trkpt lat="45.83456464111805" lon="8.932007309049368">
        <ele>387.548583984375</ele>
        <time>2005-08-12T14:14:45Z</time>
      </trkpt>
      <trkpt lat="45.834462884813547" lon="8.931773453950882">
        <ele>380.3387451171875</ele>
        <time>2005-08-12T14:14:53Z</time>
      </trkpt>
      <trkpt lat="45.834450228139758" lon="8.931582765653729">
        <ele>374.57080078125</ele>
        <time>2005-08-12T14:14:59Z</time>
      </trkpt>
      <trkpt lat="45.834484342485666" lon="8.931412529200316">
        <ele>367.3609619140625</ele>
        <time>2005-08-12T14:15:05Z</time>
      </trkpt>
      <trkpt lat="45.834463471546769" lon="8.931214464828372">
        <ele>364.9576416015625</ele>
        <time>2005-08-12T14:15:13Z</time>
      </trkpt>
      <trkpt lat="45.834053345024586" lon="8.930591270327568">
        <ele>363.5157470703125</ele>
        <time>2005-08-12T14:15:30Z</time>
      </trkpt>
      <trkpt lat="45.834050495177507" lon="8.930437378585339">
        <ele>362.07373046875</ele>
        <time>2005-08-12T14:15:37Z</time>
      </trkpt>
      <trkpt lat="45.834142779931426" lon="8.930377531796694">
        <ele>361.5931396484375</ele>
        <time>2005-08-12T14:15:42Z</time>
      </trkpt>
      <trkpt lat="45.834175469353795" lon="8.930267309769988">
        <ele>358.708984375</ele>
        <time>2005-08-12T14:15:48Z</time>
      </trkpt>
      <trkpt lat="45.834079999476671" lon="8.930231099948287">
        <ele>357.747802734375</ele>
        <time>2005-08-12T14:15:51Z</time>
      </trkpt>
      <trkpt lat="45.833966340869665" lon="8.930175108835101">
        <ele>356.786376953125</ele>
        <time>2005-08-12T14:15:54Z</time>
      </trkpt>
      <trkpt lat="45.833851592615247" lon="8.930109310895205">
        <ele>356.786376953125</ele>
        <time>2005-08-12T14:15:57Z</time>
      </trkpt>
      <trkpt lat="45.833735084161162" lon="8.930052481591702">
        <ele>357.26708984375</ele>
        <time>2005-08-12T14:16:00Z</time>
      </trkpt>
      <trkpt lat="45.833616983145475" lon="8.92999473027885">
        <ele>357.747802734375</ele>
        <time>2005-08-12T14:16:03Z</time>
      </trkpt>
      <trkpt lat="45.833496619015932" lon="8.929936727508903">
        <ele>357.26708984375</ele>
        <time>2005-08-12T14:16:06Z</time>
      </trkpt>
      <trkpt lat="45.833371058106422" lon="8.929876377806068">
        <ele>356.786376953125</ele>
        <time>2005-08-12T14:16:09Z</time>
      </trkpt>
      <trkpt lat="45.833243988454342" lon="8.929814100265503">
        <ele>356.786376953125</ele>
        <time>2005-08-12T14:16:12Z</time>
      </trkpt>
      <trkpt lat="45.833108872175217" lon="8.92974947579205">
        <ele>357.26708984375</ele>
        <time>2005-08-12T14:16:15Z</time>
      </trkpt>
      <trkpt lat="45.833016587421298" lon="8.929712595418096">
        <ele>355.8251953125</ele>
        <time>2005-08-12T14:16:17Z</time>
      </trkpt>
      <trkpt lat="45.832927571609616" lon="8.929675882682204">
        <ele>355.8251953125</ele>
        <time>2005-08-12T14:16:19Z</time>
      </trkpt>
      <trkpt lat="45.832838471978903" lon="8.929639253765345">
        <ele>355.344482421875</ele>
        <time>2005-08-12T14:16:21Z</time>
      </trkpt>
      <trkpt lat="45.832749456167221" lon="8.929602541029453">
        <ele>355.8251953125</ele>
        <time>2005-08-12T14:16:23Z</time>
      </trkpt>
      <trkpt lat="45.832658931612968" lon="8.92956574447453">
        <ele>355.344482421875</ele>
        <time>2005-08-12T14:16:25Z</time>
      </trkpt>
      <trkpt lat="45.83257058635354" lon="8.929533138871193">
        <ele>355.8251953125</ele>
        <time>2005-08-12T14:16:27Z</time>
      </trkpt>
      <trkpt lat="45.832482241094112" lon="8.929500533267856">
        <ele>355.344482421875</ele>
        <time>2005-08-12T14:16:29Z</time>
      </trkpt>
      <trkpt lat="45.832383586093783" lon="8.929462563246489">
        <ele>355.344482421875</ele>
        <time>2005-08-12T14:16:31Z</time>
      </trkpt>
      <trkpt lat="45.832291385158896" lon="8.92942694015801">
        <ele>355.8251953125</ele>
        <time>2005-08-12T14:16:33Z</time>
      </trkpt>
      <trkpt lat="45.83219918422401" lon="8.929391317069531">
        <ele>356.3057861328125</ele>
        <time>2005-08-12T14:16:35Z</time>
      </trkpt>
      <trkpt lat="45.832106983289123" lon="8.929355693981051">
        <ele>355.344482421875</ele>
        <time>2005-08-12T14:16:37Z</time>
      </trkpt>
      <trkpt lat="45.832014782354236" lon="8.929319987073541">
        <ele>355.8251953125</ele>
        <time>2005-08-12T14:16:39Z</time>
      </trkpt>
      <trkpt lat="45.831921407952905" lon="8.929291991516948">
        <ele>355.8251953125</ele>
        <time>2005-08-12T14:16:41Z</time>
      </trkpt>
      <trkpt lat="45.831829709932208" lon="8.929258212447166">
        <ele>355.344482421875</ele>
        <time>2005-08-12T14:16:43Z</time>
      </trkpt>
      <trkpt lat="45.831738011911511" lon="8.929224517196417">
        <ele>355.8251953125</ele>
        <time>2005-08-12T14:16:45Z</time>
      </trkpt>
      <trkpt lat="45.831646313890815" lon="8.929190821945667">
        <ele>355.344482421875</ele>
        <time>2005-08-12T14:16:47Z</time>
      </trkpt>
      <trkpt lat="45.831554615870118" lon="8.929157126694918">
        <ele>355.8251953125</ele>
        <time>2005-08-12T14:16:49Z</time>
      </trkpt>
      <trkpt lat="45.831468869000673" lon="8.929131058976054">
        <ele>355.8251953125</ele>
        <time>2005-08-12T14:16:51Z</time>
      </trkpt>
      <trkpt lat="45.8313690405339" lon="8.929092166945338">
        <ele>356.3057861328125</ele>
        <time>2005-08-12T14:16:53Z</time>
      </trkpt>
      <trkpt lat="45.831286478787661" lon="8.929073978215456">
        <ele>356.3057861328125</ele>
        <time>2005-08-12T14:16:55Z</time>
      </trkpt>
      <trkpt lat="45.831151613965631" lon="8.929041372612119">
        <ele>355.8251953125</ele>
        <time>2005-08-12T14:16:58Z</time>
      </trkpt>
      <trkpt lat="45.831058910116553" lon="8.929011700674892">
        <ele>355.8251953125</ele>
        <time>2005-08-12T14:17:00Z</time>
      </trkpt>
      <trkpt lat="45.830956986173987" lon="8.92899108119309">
        <ele>356.3057861328125</ele>
        <time>2005-08-12T14:17:02Z</time>
      </trkpt>
      <trkpt lat="45.830862857401371" lon="8.92897205427289">
        <ele>355.8251953125</ele>
        <time>2005-08-12T14:17:04Z</time>
      </trkpt>
      <trkpt lat="45.830770740285516" lon="8.928947495296598">
        <ele>355.8251953125</ele>
        <time>2005-08-12T14:17:06Z</time>
      </trkpt>
      <trkpt lat="45.830676779150963" lon="8.92893198877573">
        <ele>355.8251953125</ele>
        <time>2005-08-12T14:17:08Z</time>
      </trkpt>
      <trkpt lat="45.830580219626427" lon="8.928904496133328">
        <ele>355.344482421875</ele>
        <time>2005-08-12T14:17:10Z</time>
      </trkpt>
      <trkpt lat="45.830483576282859" lon="8.928877003490925">
        <ele>354.86376953125</ele>
        <time>2005-08-12T14:17:12Z</time>
      </trkpt>
      <trkpt lat="45.830386932939291" lon="8.928849510848522">
        <ele>354.3831787109375</ele>
        <time>2005-08-12T14:17:14Z</time>
      </trkpt>
      <trkpt lat="45.830290289595723" lon="8.928822102025151">
        <ele>353.902587890625</ele>
        <time>2005-08-12T14:17:16Z</time>
      </trkpt>
      <trkpt lat="45.830193646252155" lon="8.928794609382749">
        <ele>354.3831787109375</ele>
        <time>2005-08-12T14:17:18Z</time>
      </trkpt>
      <trkpt lat="45.830094907432795" lon="8.92878295853734">
        <ele>353.421875</ele>
        <time>2005-08-12T14:17:20Z</time>
      </trkpt>
      <trkpt lat="45.829998096451163" lon="8.928757729008794">
        <ele>353.421875</ele>
        <time>2005-08-12T14:17:22Z</time>
      </trkpt>
      <trkpt lat="45.829901285469532" lon="8.928732499480248">
        <ele>353.421875</ele>
        <time>2005-08-12T14:17:24Z</time>
      </trkpt>
      <trkpt lat="45.829807491973042" lon="8.928760578855872">
        <ele>352.941162109375</ele>
        <time>2005-08-12T14:17:26Z</time>
      </trkpt>
      <trkpt lat="45.829705568030477" lon="8.928785054013133">
        <ele>352.941162109375</ele>
        <time>2005-08-12T14:17:28Z</time>
      </trkpt>
      <trkpt lat="45.829622419551015" lon="8.928830064833164">
        <ele>352.4605712890625</ele>
        <time>2005-08-12T14:17:30Z</time>
      </trkpt>
      <trkpt lat="45.829519154503942" lon="8.928812714293599">
        <ele>352.4605712890625</ele>
        <time>2005-08-12T14:17:32Z</time>
      </trkpt>
      <trkpt lat="45.829404573887587" lon="8.92883475869894">
        <ele>352.941162109375</ele>
        <time>2005-08-12T14:17:34Z</time>
      </trkpt>
      <trkpt lat="45.829295441508293" lon="8.928842302411795">
        <ele>352.4605712890625</ele>
        <time>2005-08-12T14:17:36Z</time>
      </trkpt>
      <trkpt lat="45.829170299693942" lon="8.928861580789089">
        <ele>352.4605712890625</ele>
        <time>2005-08-12T14:17:38Z</time>
      </trkpt>
      <trkpt lat="45.829057563096285" lon="8.9288972876966">
        <ele>351.9798583984375</ele>
        <time>2005-08-12T14:17:40Z</time>
      </trkpt>
      <trkpt lat="45.828943736851215" lon="8.928929977118969">
        <ele>352.4605712890625</ele>
        <time>2005-08-12T14:17:42Z</time>
      </trkpt>
      <trkpt lat="45.828835275024176" lon="8.928942801430821">
        <ele>352.941162109375</ele>
        <time>2005-08-12T14:17:44Z</time>
      </trkpt>
      <trkpt lat="45.828736368566751" lon="8.928965181112289">
        <ele>352.4605712890625</ele>
        <time>2005-08-12T14:17:46Z</time>
      </trkpt>
      <trkpt lat="45.828634696081281" lon="8.928983369842172">
        <ele>351.9798583984375</ele>
        <time>2005-08-12T14:17:48Z</time>
      </trkpt>
      <trkpt lat="45.828531514853239" lon="8.929016729816794">
        <ele>351.4991455078125</ele>
        <time>2005-08-12T14:17:50Z</time>
      </trkpt>
      <trkpt lat="45.828424477949739" lon="8.929008180275559">
        <ele>351.9798583984375</ele>
        <time>2005-08-12T14:17:52Z</time>
      </trkpt>
      <trkpt lat="45.828324900940061" lon="8.9290233515203">
        <ele>351.4991455078125</ele>
        <time>2005-08-12T14:17:54Z</time>
      </trkpt>
      <trkpt lat="45.8282227255404" lon="8.929035253822804">
        <ele>351.4991455078125</ele>
        <time>2005-08-12T14:17:56Z</time>
      </trkpt>
      <trkpt lat="45.828130021691322" lon="8.929057717323303">
        <ele>351.0184326171875</ele>
        <time>2005-08-12T14:17:58Z</time>
      </trkpt>
      <trkpt lat="45.828025583177805" lon="8.929049922153354">
        <ele>350.537841796875</ele>
        <time>2005-08-12T14:18:00Z</time>
      </trkpt>
      <trkpt lat="45.82793053239584" lon="8.929080348461866">
        <ele>350.0572509765625</ele>
        <time>2005-08-12T14:18:02Z</time>
      </trkpt>
      <trkpt lat="45.827832045033574" lon="8.929090574383736">
        <ele>350.0572509765625</ele>
        <time>2005-08-12T14:18:04Z</time>
      </trkpt>
      <trkpt lat="45.827730875462294" lon="8.929084539413452">
        <ele>349.5765380859375</ele>
        <time>2005-08-12T14:18:06Z</time>
      </trkpt>
      <trkpt lat="45.827629789710045" lon="8.929078504443169">
        <ele>350.537841796875</ele>
        <time>2005-08-12T14:18:08Z</time>
      </trkpt>
      <trkpt lat="45.827528620138764" lon="8.929072385653853">
        <ele>350.0572509765625</ele>
        <time>2005-08-12T14:18:10Z</time>
      </trkpt>
      <trkpt lat="45.827432731166482" lon="8.929082863032818">
        <ele>350.0572509765625</ele>
        <time>2005-08-12T14:18:12Z</time>
      </trkpt>
      <trkpt lat="45.827332399785519" lon="8.929086048156023">
        <ele>350.537841796875</ele>
        <time>2005-08-12T14:18:14Z</time>
      </trkpt>
      <trkpt lat="45.827234582975507" lon="8.929100381210446">
        <ele>350.0572509765625</ele>
        <time>2005-08-12T14:18:16Z</time>
      </trkpt>
      <trkpt lat="45.827118158340454" lon="8.929085126146674">
        <ele>352.4605712890625</ele>
        <time>2005-08-12T14:18:19Z</time>
      </trkpt>
      <trkpt lat="45.827001733705401" lon="8.929062243551016">
        <ele>351.0184326171875</ele>
        <time>2005-08-12T14:18:22Z</time>
      </trkpt>
      <trkpt lat="45.826911628246307" lon="8.929040031507611">
        <ele>351.4991455078125</ele>
        <time>2005-08-12T14:18:24Z</time>
      </trkpt>
      <trkpt lat="45.826772823929787" lon="8.928994098678231">
        <ele>350.537841796875</ele>
        <time>2005-08-12T14:18:27Z</time>
      </trkpt>
      <trkpt lat="45.826675677672029" lon="8.928965767845511">
        <ele>350.0572509765625</ele>
        <time>2005-08-12T14:18:29Z</time>
      </trkpt>
      <trkpt lat="45.826577357947826" lon="8.928930647671223">
        <ele>349.5765380859375</ele>
        <time>2005-08-12T14:18:31Z</time>
      </trkpt>
      <trkpt lat="45.826476439833641" lon="8.92887381836772">
        <ele>350.0572509765625</ele>
        <time>2005-08-12T14:18:33Z</time>
      </trkpt>
      <trkpt lat="45.826376779004931" lon="8.928814474493265">
        <ele>349.0958251953125</ele>
        <time>2005-08-12T14:18:35Z</time>
      </trkpt>
      <trkpt lat="45.8262799680233" lon="8.928751610219479">
        <ele>349.5765380859375</ele>
        <time>2005-08-12T14:18:37Z</time>
      </trkpt>
      <trkpt lat="45.826180893927813" lon="8.928685979917646">
        <ele>350.0572509765625</ele>
        <time>2005-08-12T14:18:39Z</time>
      </trkpt>
      <trkpt lat="45.826084921136498" lon="8.928624875843525">
        <ele>350.537841796875</ele>
        <time>2005-08-12T14:18:41Z</time>
      </trkpt>
      <trkpt lat="45.825991630554199" lon="8.928564693778753">
        <ele>351.0184326171875</ele>
        <time>2005-08-12T14:18:43Z</time>
      </trkpt>
      <trkpt lat="45.825906470417976" lon="8.928485820069909">
        <ele>351.0184326171875</ele>
        <time>2005-08-12T14:18:45Z</time>
      </trkpt>
      <trkpt lat="45.825822064653039" lon="8.928410718217492">
        <ele>351.0184326171875</ele>
        <time>2005-08-12T14:18:47Z</time>
      </trkpt>
      <trkpt lat="45.825736653059721" lon="8.928334442898631">
        <ele>351.0184326171875</ele>
        <time>2005-08-12T14:18:49Z</time>
      </trkpt>
      <trkpt lat="45.8256496489048" lon="8.928265795111656">
        <ele>351.0184326171875</ele>
        <time>2005-08-12T14:18:51Z</time>
      </trkpt>
      <trkpt lat="45.825561890378594" lon="8.928202344104648">
        <ele>351.0184326171875</ele>
        <time>2005-08-12T14:18:53Z</time>
      </trkpt>
      <trkpt lat="45.825473461300135" lon="8.928140988573432">
        <ele>351.4991455078125</ele>
        <time>2005-08-12T14:18:55Z</time>
      </trkpt>
      <trkpt lat="45.825385199859738" lon="8.928076531738043">
        <ele>351.0184326171875</ele>
        <time>2005-08-12T14:18:57Z</time>
      </trkpt>
      <trkpt lat="45.825296938419342" lon="8.928012158721685">
        <ele>351.0184326171875</ele>
        <time>2005-08-12T14:18:59Z</time>
      </trkpt>
      <trkpt lat="45.825208676978946" lon="8.927947701886296">
        <ele>351.0184326171875</ele>
        <time>2005-08-12T14:19:01Z</time>
      </trkpt>
      <trkpt lat="45.825120415538549" lon="8.927883245050907">
        <ele>350.0572509765625</ele>
        <time>2005-08-12T14:19:03Z</time>
      </trkpt>
      <trkpt lat="45.825026286765933" lon="8.927827756851912">
        <ele>350.0572509765625</ele>
        <time>2005-08-12T14:19:05Z</time>
      </trkpt>
      <trkpt lat="45.824935594573617" lon="8.92780713737011">
        <ele>356.3057861328125</ele>
        <time>2005-08-12T14:21:01Z</time>
      </trkpt>
      <trkpt lat="45.824799053370953" lon="8.927658023312688">
        <ele>357.747802734375</ele>
        <time>2005-08-12T14:21:12Z</time>
      </trkpt>
      <trkpt lat="45.82471925765276" lon="8.927511004731059">
        <ele>361.5931396484375</ele>
        <time>2005-08-12T14:21:24Z</time>
      </trkpt>
      <trkpt lat="45.824677683413029" lon="8.927371697500348">
        <ele>364.4769287109375</ele>
        <time>2005-08-12T14:21:34Z</time>
      </trkpt>
      <trkpt lat="45.824638707563281" lon="8.927204562351108">
        <ele>367.3609619140625</ele>
        <time>2005-08-12T14:21:44Z</time>
      </trkpt>
      <trkpt lat="45.824598474428058" lon="8.927044635638595">
        <ele>369.7642822265625</ele>
        <time>2005-08-12T14:21:53Z</time>
      </trkpt>
      <trkpt lat="45.824577435851097" lon="8.92687825486064">
        <ele>372.648193359375</ele>
        <time>2005-08-12T14:22:02Z</time>
      </trkpt>
      <trkpt lat="45.824650442227721" lon="8.926940113306046">
        <ele>375.051513671875</ele>
        <time>2005-08-12T14:22:20Z</time>
      </trkpt>
      <trkpt lat="45.824724454432726" lon="8.927062321454287">
        <ele>377.9354248046875</ele>
        <time>2005-08-12T14:22:29Z</time>
      </trkpt>
      <trkpt lat="45.824810871854424" lon="8.927142284810543">
        <ele>379.8580322265625</ele>
        <time>2005-08-12T14:22:40Z</time>
      </trkpt>
      <trkpt lat="45.824893349781632" lon="8.927106661722064">
        <ele>383.22265625</ele>
        <time>2005-08-12T14:22:55Z</time>
      </trkpt>
      <trkpt lat="45.824965769425035" lon="8.927012868225575">
        <ele>385.1453857421875</ele>
        <time>2005-08-12T14:23:07Z</time>
      </trkpt>
      <trkpt lat="45.825013546273112" lon="8.926858138293028">
        <ele>388.510009765625</ele>
        <time>2005-08-12T14:23:20Z</time>
      </trkpt>
      <trkpt lat="45.825057467445731" lon="8.92677079886198">
        <ele>392.8359375</ele>
        <time>2005-08-12T14:23:34Z</time>
      </trkpt>
      <trkpt lat="45.825127204880118" lon="8.926750598475337">
        <ele>395.2391357421875</ele>
        <time>2005-08-12T14:23:45Z</time>
      </trkpt>
      <trkpt lat="45.82519669085741" lon="8.92664423212409">
        <ele>395.7198486328125</ele>
        <time>2005-08-12T14:23:58Z</time>
      </trkpt>
      <trkpt lat="45.825070207938552" lon="8.926233686506748">
        <ele>398.1231689453125</ele>
        <time>2005-08-12T14:24:24Z</time>
      </trkpt>
      <trkpt lat="45.824993010610342" lon="8.926063282415271">
        <ele>399.5650634765625</ele>
        <time>2005-08-12T14:24:30Z</time>
      </trkpt>
      <trkpt lat="45.82491128705442" lon="8.925869325175881">
        <ele>401.48779296875</ele>
        <time>2005-08-12T14:24:37Z</time>
      </trkpt>
      <trkpt lat="45.824827048927546" lon="8.925693891942501">
        <ele>402.4490966796875</ele>
        <time>2005-08-12T14:24:44Z</time>
      </trkpt>
      <trkpt lat="45.824751192703843" lon="8.925540503114462">
        <ele>402.4490966796875</ele>
        <time>2005-08-12T14:24:49Z</time>
      </trkpt>
      <trkpt lat="45.824686903506517" lon="8.925409242510796">
        <ele>401.968505859375</ele>
        <time>2005-08-12T14:24:53Z</time>
      </trkpt>
      <trkpt lat="45.824621776118875" lon="8.925261469557881">
        <ele>402.4490966796875</ele>
        <time>2005-08-12T14:24:58Z</time>
      </trkpt>
      <trkpt lat="45.82462789490819" lon="8.92512509599328">
        <ele>404.3717041015625</ele>
        <time>2005-08-12T14:25:03Z</time>
      </trkpt>
      <trkpt lat="45.824711881577969" lon="8.925050497055054">
        <ele>406.2943115234375</ele>
        <time>2005-08-12T14:25:09Z</time>
      </trkpt>
      <trkpt lat="45.824788995087147" lon="8.924966091290116">
        <ele>406.2943115234375</ele>
        <time>2005-08-12T14:25:15Z</time>
      </trkpt>
      <trkpt lat="45.8247896656394" lon="8.924829130992293">
        <ele>407.736328125</ele>
        <time>2005-08-12T14:25:23Z</time>
      </trkpt>
      <trkpt lat="45.824726214632392" lon="8.924685968086124">
        <ele>407.255615234375</ele>
        <time>2005-08-12T14:25:28Z</time>
      </trkpt>
      <trkpt lat="45.824664356186986" lon="8.924561580643058">
        <ele>407.255615234375</ele>
        <time>2005-08-12T14:25:32Z</time>
      </trkpt>
      <trkpt lat="45.824604425579309" lon="8.92443266697228">
        <ele>407.255615234375</ele>
        <time>2005-08-12T14:25:36Z</time>
      </trkpt>
      <trkpt lat="45.824537118896842" lon="8.924294700846076">
        <ele>407.736328125</ele>
        <time>2005-08-12T14:25:40Z</time>
      </trkpt>
      <trkpt lat="45.824478277936578" lon="8.924165619537234">
        <ele>407.736328125</ele>
        <time>2005-08-12T14:25:44Z</time>
      </trkpt>
      <trkpt lat="45.824420442804694" lon="8.924047937616706">
        <ele>408.217041015625</ele>
        <time>2005-08-12T14:25:48Z</time>
      </trkpt>
      <trkpt lat="45.824362020939589" lon="8.923934027552605">
        <ele>407.736328125</ele>
        <time>2005-08-12T14:25:52Z</time>
      </trkpt>
      <trkpt lat="45.824300916865468" lon="8.923812909051776">
        <ele>407.255615234375</ele>
        <time>2005-08-12T14:25:56Z</time>
      </trkpt>
      <trkpt lat="45.8242526371032" lon="8.923695478588343">
        <ele>407.255615234375</ele>
        <time>2005-08-12T14:26:00Z</time>
      </trkpt>
      <trkpt lat="45.824194299057126" lon="8.923573270440102">
        <ele>406.77490234375</ele>
        <time>2005-08-12T14:26:04Z</time>
      </trkpt>
      <trkpt lat="45.824154317378998" lon="8.923440081998706">
        <ele>407.255615234375</ele>
        <time>2005-08-12T14:26:08Z</time>
      </trkpt>
      <trkpt lat="45.824167560786009" lon="8.923299014568329">
        <ele>407.255615234375</ele>
        <time>2005-08-12T14:26:12Z</time>
      </trkpt>
      <trkpt lat="45.824182983487844" lon="8.923148140311241">
        <ele>407.736328125</ele>
        <time>2005-08-12T14:26:18Z</time>
      </trkpt>
      <trkpt lat="45.824291948229074" lon="8.92309189774096">
        <ele>410.6202392578125</ele>
        <time>2005-08-12T14:26:29Z</time>
      </trkpt>
      <trkpt lat="45.824390770867467" lon="8.92302199266851">
        <ele>413.0235595703125</ele>
        <time>2005-08-12T14:26:39Z</time>
      </trkpt>
      <trkpt lat="45.82447593100369" lon="8.92295653000474">
        <ele>413.98486328125</ele>
        <time>2005-08-12T14:26:48Z</time>
      </trkpt>
      <trkpt lat="45.82456829957664" lon="8.922869944944978">
        <ele>413.98486328125</ele>
        <time>2005-08-12T14:26:57Z</time>
      </trkpt>
      <trkpt lat="45.824638037011027" lon="8.922783443704248">
        <ele>413.5042724609375</ele>
        <time>2005-08-12T14:27:05Z</time>
      </trkpt>
      <trkpt lat="45.824774159118533" lon="8.922705575823784">
        <ele>416.38818359375</ele>
        <time>2005-08-12T14:27:11Z</time>
      </trkpt>
      <trkpt lat="45.824870970100164" lon="8.922646818682551">
        <ele>417.8302001953125</ele>
        <time>2005-08-12T14:27:16Z</time>
      </trkpt>
      <trkpt lat="45.824958980083466" lon="8.922590492293239">
        <ele>418.310791015625</ele>
        <time>2005-08-12T14:27:21Z</time>
      </trkpt>
      <trkpt lat="45.825046906247735" lon="8.922534165903926">
        <ele>419.272216796875</ele>
        <time>2005-08-12T14:27:26Z</time>
      </trkpt>
      <trkpt lat="45.825134916231036" lon="8.922477923333645">
        <ele>420.714111328125</ele>
        <time>2005-08-12T14:27:31Z</time>
      </trkpt>
      <trkpt lat="45.825222926214337" lon="8.922421596944332">
        <ele>420.714111328125</ele>
        <time>2005-08-12T14:27:36Z</time>
      </trkpt>
      <trkpt lat="45.825310852378607" lon="8.922365354374051">
        <ele>420.714111328125</ele>
        <time>2005-08-12T14:27:41Z</time>
      </trkpt>
      <trkpt lat="45.825398862361908" lon="8.922309027984738">
        <ele>423.117431640625</ele>
        <time>2005-08-12T14:27:46Z</time>
      </trkpt>
      <trkpt lat="45.825486872345209" lon="8.922252701595426">
        <ele>425.0401611328125</ele>
        <time>2005-08-12T14:27:51Z</time>
      </trkpt>
      <trkpt lat="45.825574798509479" lon="8.922196459025145">
        <ele>425.520751953125</ele>
        <time>2005-08-12T14:27:56Z</time>
      </trkpt>
      <trkpt lat="45.82566280849278" lon="8.922140132635832">
        <ele>425.520751953125</ele>
        <time>2005-08-12T14:28:01Z</time>
      </trkpt>
      <trkpt lat="45.825762217864394" lon="8.922054804861546">
        <ele>425.520751953125</ele>
        <time>2005-08-12T14:28:06Z</time>
      </trkpt>
      <trkpt lat="45.825858693569899" lon="8.921933686360717">
        <ele>425.520751953125</ele>
        <time>2005-08-12T14:28:12Z</time>
      </trkpt>
      <trkpt lat="45.826027421280742" lon="8.921763617545366">
        <ele>425.0401611328125</ele>
        <time>2005-08-12T14:28:58Z</time>
      </trkpt>
      <trkpt lat="45.825977213680744" lon="8.921901416033506">
        <ele>425.0401611328125</ele>
        <time>2005-08-12T14:29:07Z</time>
      </trkpt>
      <trkpt lat="45.825943099334836" lon="8.922031922265887">
        <ele>426.0013427734375</ele>
        <time>2005-08-12T14:29:13Z</time>
      </trkpt>
      <trkpt lat="45.825926503166556" lon="8.922202493995428">
        <ele>426.0013427734375</ele>
        <time>2005-08-12T14:29:19Z</time>
      </trkpt>
      <trkpt lat="45.825922060757875" lon="8.92236384563148">
        <ele>426.4820556640625</ele>
        <time>2005-08-12T14:29:24Z</time>
      </trkpt>
      <trkpt lat="45.825917785987258" lon="8.922526789829135">
        <ele>426.9627685546875</ele>
        <time>2005-08-12T14:29:29Z</time>
      </trkpt>
      <trkpt lat="45.825920384377241" lon="8.922702139243484">
        <ele>427.9239501953125</ele>
        <time>2005-08-12T14:29:34Z</time>
      </trkpt>
      <trkpt lat="45.825927508994937" lon="8.922858294099569">
        <ele>428.8853759765625</ele>
        <time>2005-08-12T14:29:39Z</time>
      </trkpt>
      <trkpt lat="45.825935555621982" lon="8.923025010153651">
        <ele>429.365966796875</ele>
        <time>2005-08-12T14:29:44Z</time>
      </trkpt>
      <trkpt lat="45.825943183153868" lon="8.923196336254478">
        <ele>430.3272705078125</ele>
        <time>2005-08-12T14:29:49Z</time>
      </trkpt>
      <trkpt lat="45.825962796807289" lon="8.923364644870162">
        <ele>430.8079833984375</ele>
        <time>2005-08-12T14:29:54Z</time>
      </trkpt>
      <trkpt lat="45.825980482622981" lon="8.923500431701541">
        <ele>430.3272705078125</ele>
        <time>2005-08-12T14:29:58Z</time>
      </trkpt>
      <trkpt lat="45.825992468744516" lon="8.923681313171983">
        <ele>428.4046630859375</ele>
        <time>2005-08-12T14:30:02Z</time>
      </trkpt>
      <trkpt lat="45.82599070854485" lon="8.923825062811375">
        <ele>426.9627685546875</ele>
        <time>2005-08-12T14:30:05Z</time>
      </trkpt>
      <trkpt lat="45.825988948345184" lon="8.924000663682818">
        <ele>426.4820556640625</ele>
        <time>2005-08-12T14:30:08Z</time>
      </trkpt>
      <trkpt lat="45.82600730471313" lon="8.924212893471122">
        <ele>425.0401611328125</ele>
        <time>2005-08-12T14:30:11Z</time>
      </trkpt>
      <trkpt lat="45.826015854254365" lon="8.924372065812349">
        <ele>424.5594482421875</ele>
        <time>2005-08-12T14:30:13Z</time>
      </trkpt>
      <trkpt lat="45.826020296663046" lon="8.924522520974279">
        <ele>424.0787353515625</ele>
        <time>2005-08-12T14:30:15Z</time>
      </trkpt>
      <trkpt lat="45.826026750728488" lon="8.924659648910165">
        <ele>424.0787353515625</ele>
        <time>2005-08-12T14:30:17Z</time>
      </trkpt>
      <trkpt lat="45.826033120974898" lon="8.924796776846051">
        <ele>425.0401611328125</ele>
        <time>2005-08-12T14:30:19Z</time>
      </trkpt>
      <trkpt lat="45.82603957504034" lon="8.924933820962906">
        <ele>425.520751953125</ele>
        <time>2005-08-12T14:30:21Z</time>
      </trkpt>
      <trkpt lat="45.826045945286751" lon="8.925070948898792">
        <ele>425.520751953125</ele>
        <time>2005-08-12T14:30:23Z</time>
      </trkpt>
      <trkpt lat="45.826058769598603" lon="8.925220733508468">
        <ele>426.0013427734375</ele>
        <time>2005-08-12T14:30:25Z</time>
      </trkpt>
      <trkpt lat="45.826077628880739" lon="8.925418294966221">
        <ele>426.0013427734375</ele>
        <time>2005-08-12T14:30:28Z</time>
      </trkpt>
      <trkpt lat="45.826106127351522" lon="8.925576629117131">
        <ele>426.4820556640625</ele>
        <time>2005-08-12T14:30:31Z</time>
      </trkpt>
      <trkpt lat="45.826154993847013" lon="8.925662124529481">
        <ele>426.4820556640625</ele>
        <time>2005-08-12T14:30:34Z</time>
      </trkpt>
      <trkpt lat="45.8262540679425" lon="8.925724066793919">
        <ele>426.4820556640625</ele>
        <time>2005-08-12T14:30:38Z</time>
      </trkpt>
      <trkpt lat="45.826319949701428" lon="8.925846023485065">
        <ele>426.4820556640625</ele>
        <time>2005-08-12T14:30:42Z</time>
      </trkpt>
      <trkpt lat="45.826394129544497" lon="8.925957251340151">
        <ele>426.9627685546875</ele>
        <time>2005-08-12T14:30:46Z</time>
      </trkpt>
      <trkpt lat="45.826476020738482" lon="8.926070742309094">
        <ele>427.443359375</ele>
        <time>2005-08-12T14:30:50Z</time>
      </trkpt>
      <trkpt lat="45.826559001579881" lon="8.926214743405581">
        <ele>426.9627685546875</ele>
        <time>2005-08-12T14:30:55Z</time>
      </trkpt>
      <trkpt lat="45.82663276232779" lon="8.926351703703404">
        <ele>426.9627685546875</ele>
        <time>2005-08-12T14:31:00Z</time>
      </trkpt>
      <trkpt lat="45.826731417328119" lon="8.926472151651979">
        <ele>426.9627685546875</ele>
        <time>2005-08-12T14:31:04Z</time>
      </trkpt>
      <trkpt lat="45.826802747324109" lon="8.926594946533442">
        <ele>425.520751953125</ele>
        <time>2005-08-12T14:31:08Z</time>
      </trkpt>
      <trkpt lat="45.826866282150149" lon="8.926712376996875">
        <ele>421.19482421875</ele>
        <time>2005-08-12T14:31:12Z</time>
      </trkpt>
      <trkpt lat="45.826929900795221" lon="8.926829723641276">
        <ele>420.2333984375</ele>
        <time>2005-08-12T14:31:16Z</time>
      </trkpt>
      <trkpt lat="45.826993435621262" lon="8.92694715410471">
        <ele>418.79150390625</ele>
        <time>2005-08-12T14:31:20Z</time>
      </trkpt>
      <trkpt lat="45.827057054266334" lon="8.927064584568143">
        <ele>416.868896484375</ele>
        <time>2005-08-12T14:31:24Z</time>
      </trkpt>
      <trkpt lat="45.827120589092374" lon="8.927181931212544">
        <ele>414.9461669921875</ele>
        <time>2005-08-12T14:31:28Z</time>
      </trkpt>
      <trkpt lat="45.827184207737446" lon="8.927299361675978">
        <ele>414.4654541015625</ele>
        <time>2005-08-12T14:31:32Z</time>
      </trkpt>
      <trkpt lat="45.827247742563486" lon="8.927416708320379">
        <ele>413.5042724609375</ele>
        <time>2005-08-12T14:31:36Z</time>
      </trkpt>
      <trkpt lat="45.827311277389526" lon="8.927534138783813">
        <ele>413.0235595703125</ele>
        <time>2005-08-12T14:31:40Z</time>
      </trkpt>
      <trkpt lat="45.827374896034598" lon="8.927651569247246">
        <ele>413.0235595703125</ele>
        <time>2005-08-12T14:31:44Z</time>
      </trkpt>
      <trkpt lat="45.827438430860639" lon="8.927768915891647">
        <ele>412.5428466796875</ele>
        <time>2005-08-12T14:31:48Z</time>
      </trkpt>
      <trkpt lat="45.827502049505711" lon="8.927886346355081">
        <ele>412.062255859375</ele>
        <time>2005-08-12T14:31:52Z</time>
      </trkpt>
      <trkpt lat="45.827565584331751" lon="8.928003776818514">
        <ele>412.5428466796875</ele>
        <time>2005-08-12T14:31:56Z</time>
      </trkpt>
      <trkpt lat="45.827629202976823" lon="8.928121123462915">
        <ele>411.5816650390625</ele>
        <time>2005-08-12T14:32:00Z</time>
      </trkpt>
      <trkpt lat="45.828903587535024" lon="8.926297221332789">
        <ele>412.5428466796875</ele>
        <time>2005-08-12T14:34:38Z</time>
      </trkpt>
      <trkpt lat="45.828900067135692" lon="8.926314571872354">
        <ele>412.062255859375</ele>
        <time>2005-08-12T14:35:07Z</time>
      </trkpt>
      <trkpt lat="45.828957483172417" lon="8.926171157509089">
        <ele>411.5816650390625</ele>
        <time>2005-08-12T14:35:10Z</time>
      </trkpt>
      <trkpt lat="45.829038871452212" lon="8.926032520830631">
        <ele>412.062255859375</ele>
        <time>2005-08-12T14:35:13Z</time>
      </trkpt>
      <trkpt lat="45.829127887263894" lon="8.925909977406263">
        <ele>411.5816650390625</ele>
        <time>2005-08-12T14:35:16Z</time>
      </trkpt>
      <trkpt lat="45.829219417646527" lon="8.925802689045668">
        <ele>412.062255859375</ele>
        <time>2005-08-12T14:35:19Z</time>
      </trkpt>
      <trkpt lat="45.829300386831164" lon="8.925694562494755">
        <ele>412.062255859375</ele>
        <time>2005-08-12T14:35:22Z</time>
      </trkpt>
      <trkpt lat="45.829382445663214" lon="8.925620885565877">
        <ele>412.5428466796875</ele>
        <time>2005-08-12T14:35:25Z</time>
      </trkpt>
      <trkpt lat="45.8294677734375" lon="8.925551064312458">
        <ele>413.5042724609375</ele>
        <time>2005-08-12T14:35:28Z</time>
      </trkpt>
      <trkpt lat="45.82955326884985" lon="8.925472274422646">
        <ele>413.0235595703125</ele>
        <time>2005-08-12T14:35:31Z</time>
      </trkpt>
      <trkpt lat="45.829637758433819" lon="8.925389125943184">
        <ele>413.0235595703125</ele>
        <time>2005-08-12T14:35:34Z</time>
      </trkpt>
      <trkpt lat="45.829718224704266" lon="8.925294829532504">
        <ele>413.5042724609375</ele>
        <time>2005-08-12T14:35:37Z</time>
      </trkpt>
      <trkpt lat="45.829795422032475" lon="8.925201622769237">
        <ele>413.0235595703125</ele>
        <time>2005-08-12T14:35:40Z</time>
      </trkpt>
      <trkpt lat="45.829868176952004" lon="8.925111014395952">
        <ele>413.0235595703125</ele>
        <time>2005-08-12T14:35:43Z</time>
      </trkpt>
      <trkpt lat="45.829960713163018" lon="8.925089556723833">
        <ele>413.98486328125</ele>
        <time>2005-08-12T14:35:47Z</time>
      </trkpt>
      <trkpt lat="45.830059787258506" lon="8.925165077671409">
        <ele>414.9461669921875</ele>
        <time>2005-08-12T14:35:51Z</time>
      </trkpt>
      <trkpt lat="45.830139499157667" lon="8.925225930288434">
        <ele>415.4268798828125</ele>
        <time>2005-08-12T14:35:54Z</time>
      </trkpt>
      <trkpt lat="45.830220133066177" lon="8.925281837582588">
        <ele>415.4268798828125</ele>
        <time>2005-08-12T14:35:57Z</time>
      </trkpt>
      <trkpt lat="45.83029892295599" lon="8.925339840352535">
        <ele>415.907470703125</ele>
        <time>2005-08-12T14:36:00Z</time>
      </trkpt>
      <trkpt lat="45.83038492128253" lon="8.925403710454702">
        <ele>416.38818359375</ele>
        <time>2005-08-12T14:36:03Z</time>
      </trkpt>
      <trkpt lat="45.830463459715247" lon="8.925473866984248">
        <ele>415.907470703125</ele>
        <time>2005-08-12T14:36:06Z</time>
      </trkpt>
      <trkpt lat="45.830550044775009" lon="8.925545699894428">
        <ele>416.868896484375</ele>
        <time>2005-08-12T14:36:10Z</time>
      </trkpt>
      <trkpt lat="45.830639731138945" lon="8.925594901666045">
        <ele>417.349609375</ele>
        <time>2005-08-12T14:36:14Z</time>
      </trkpt>
      <trkpt lat="45.830740900710225" lon="8.925635805353522">
        <ele>418.79150390625</ele>
        <time>2005-08-12T14:36:19Z</time>
      </trkpt>
      <trkpt lat="45.830834778025746" lon="8.925676038488746">
        <ele>419.7528076171875</ele>
        <time>2005-08-12T14:36:24Z</time>
      </trkpt>
      <trkpt lat="45.830925637856126" lon="8.925714679062367">
        <ele>420.2333984375</ele>
        <time>2005-08-12T14:36:29Z</time>
      </trkpt>
      <trkpt lat="45.831033596768975" lon="8.925691125914455">
        <ele>419.7528076171875</ele>
        <time>2005-08-12T14:36:34Z</time>
      </trkpt>
      <trkpt lat="45.831103166565299" lon="8.925592806190252">
        <ele>420.2333984375</ele>
        <time>2005-08-12T14:36:40Z</time>
      </trkpt>
      <trkpt lat="45.831153290346265" lon="8.925478979945183">
        <ele>422.63671875</ele>
        <time>2005-08-12T14:36:45Z</time>
      </trkpt>
      <trkpt lat="45.831200061365962" lon="8.92534838989377">
        <ele>424.5594482421875</ele>
        <time>2005-08-12T14:36:51Z</time>
      </trkpt>
      <trkpt lat="45.831232331693172" lon="8.925218638032675">
        <ele>426.9627685546875</ele>
        <time>2005-08-12T14:36:57Z</time>
      </trkpt>
      <trkpt lat="45.831262674182653" lon="8.925080085173249">
        <ele>427.9239501953125</ele>
        <time>2005-08-12T14:37:03Z</time>
      </trkpt>
      <trkpt lat="45.831275833770633" lon="8.924918314442039">
        <ele>430.3272705078125</ele>
        <time>2005-08-12T14:37:09Z</time>
      </trkpt>
      <trkpt lat="45.831295950338244" lon="8.924748497083783">
        <ele>432.25</ele>
        <time>2005-08-12T14:37:15Z</time>
      </trkpt>
      <trkpt lat="45.831349678337574" lon="8.9246232714504">
        <ele>433.69189453125</ele>
        <time>2005-08-12T14:37:22Z</time>
      </trkpt>
      <trkpt lat="45.831367196515203" lon="8.924434762448072">
        <ele>436.575927734375</ele>
        <time>2005-08-12T14:37:30Z</time>
      </trkpt>
      <trkpt lat="45.831383541226387" lon="8.924269387498498">
        <ele>438.49853515625</ele>
        <time>2005-08-12T14:37:38Z</time>
      </trkpt>
      <trkpt lat="45.83140374161303" lon="8.924093954265118">
        <ele>440.90185546875</ele>
        <time>2005-08-12T14:37:47Z</time>
      </trkpt>
      <trkpt lat="45.83140810020268" lon="8.923929668962956">
        <ele>442.3438720703125</ele>
        <time>2005-08-12T14:37:55Z</time>
      </trkpt>
      <trkpt lat="45.831421762704849" lon="8.923777705058456">
        <ele>445.2276611328125</ele>
        <time>2005-08-12T14:38:03Z</time>
      </trkpt>
      <trkpt lat="45.831436095759273" lon="8.92362984828651">
        <ele>447.6309814453125</ele>
        <time>2005-08-12T14:38:11Z</time>
      </trkpt>
      <trkpt lat="45.831503737717867" lon="8.923609647899866">
        <ele>445.2276611328125</ele>
        <time>2005-08-12T14:38:21Z</time>
      </trkpt>
      <trkpt lat="45.831546150147915" lon="8.923751888796687">
        <ele>443.7857666015625</ele>
        <time>2005-08-12T14:38:23Z</time>
      </trkpt>
      <trkpt lat="45.831588646396995" lon="8.923894129693508">
        <ele>443.3050537109375</ele>
        <time>2005-08-12T14:38:25Z</time>
      </trkpt>
      <trkpt lat="45.831631058827043" lon="8.924036370590329">
        <ele>442.3438720703125</ele>
        <time>2005-08-12T14:38:27Z</time>
      </trkpt>
      <trkpt lat="45.831673471257091" lon="8.924178695306182">
        <ele>442.3438720703125</ele>
        <time>2005-08-12T14:38:29Z</time>
      </trkpt>
      <trkpt lat="45.83171596750617" lon="8.924320936203003">
        <ele>441.8631591796875</ele>
        <time>2005-08-12T14:38:31Z</time>
      </trkpt>
      <trkpt lat="45.831758379936218" lon="8.924463177099824">
        <ele>441.8631591796875</ele>
        <time>2005-08-12T14:38:33Z</time>
      </trkpt>
      <trkpt lat="45.831803055480123" lon="8.924589911475778">
        <ele>442.3438720703125</ele>
        <time>2005-08-12T14:38:35Z</time>
      </trkpt>
      <trkpt lat="45.831875894218683" lon="8.924744976684451">
        <ele>442.824462890625</ele>
        <time>2005-08-12T14:38:38Z</time>
      </trkpt>
      <trkpt lat="45.831948732957244" lon="8.924900125712156">
        <ele>444.2664794921875</ele>
        <time>2005-08-12T14:38:41Z</time>
      </trkpt>
      <trkpt lat="45.832014530897141" lon="8.925019567832351">
        <ele>445.2276611328125</ele>
        <time>2005-08-12T14:38:44Z</time>
      </trkpt>
      <trkpt lat="45.832087369635701" lon="8.925123251974583">
        <ele>447.6309814453125</ele>
        <time>2005-08-12T14:38:49Z</time>
      </trkpt>
      <trkpt lat="45.832169093191624" lon="8.925210339948535">
        <ele>448.5924072265625</ele>
        <time>2005-08-12T14:38:56Z</time>
      </trkpt>
      <trkpt lat="45.832242853939533" lon="8.925313269719482">
        <ele>450.99560546875</ele>
        <time>2005-08-12T14:39:03Z</time>
      </trkpt>
      <trkpt lat="45.832331534475088" lon="8.925385689362884">
        <ele>452.4376220703125</ele>
        <time>2005-08-12T14:39:10Z</time>
      </trkpt>
      <trkpt lat="45.832423400133848" lon="8.925369009375572">
        <ele>453.39892578125</ele>
        <time>2005-08-12T14:39:17Z</time>
      </trkpt>
      <trkpt lat="45.832529766485095" lon="8.925300361588597">
        <ele>454.8408203125</ele>
        <time>2005-08-12T14:39:24Z</time>
      </trkpt>
      <trkpt lat="45.832611657679081" lon="8.925137501209974">
        <ele>454.8408203125</ele>
        <time>2005-08-12T14:39:31Z</time>
      </trkpt>
      <trkpt lat="45.832660105079412" lon="8.924923595041037">
        <ele>455.321533203125</ele>
        <time>2005-08-12T14:39:37Z</time>
      </trkpt>
      <trkpt lat="45.832714503630996" lon="8.924745814874768">
        <ele>456.282958984375</ele>
        <time>2005-08-12T14:39:42Z</time>
      </trkpt>
      <trkpt lat="45.832756413146853" lon="8.924566190689802">
        <ele>456.7635498046875</ele>
        <time>2005-08-12T14:39:47Z</time>
      </trkpt>
      <trkpt lat="45.832799579948187" lon="8.92441850155592">
        <ele>458.20556640625</ele>
        <time>2005-08-12T14:39:52Z</time>
      </trkpt>
      <trkpt lat="45.832871915772557" lon="8.924273243173957">
        <ele>458.6861572265625</ele>
        <time>2005-08-12T14:39:57Z</time>
      </trkpt>
      <trkpt lat="45.832919692620635" lon="8.92410434782505">
        <ele>460.128173828125</ele>
        <time>2005-08-12T14:40:02Z</time>
      </trkpt>
      <trkpt lat="45.832950286567211" lon="8.923931680619717">
        <ele>462.05078125</ele>
        <time>2005-08-12T14:40:07Z</time>
      </trkpt>
      <trkpt lat="45.832968894392252" lon="8.923721965402365">
        <ele>464.4541015625</ele>
        <time>2005-08-12T14:40:12Z</time>
      </trkpt>
      <trkpt lat="45.832995045930147" lon="8.92353898845613">
        <ele>465.8961181640625</ele>
        <time>2005-08-12T14:40:17Z</time>
      </trkpt>
      <trkpt lat="45.833009714260697" lon="8.923365399241447">
        <ele>466.857421875</ele>
        <time>2005-08-12T14:40:22Z</time>
      </trkpt>
      <trkpt lat="45.833015078678727" lon="8.923200024291873">
        <ele>467.338134765625</ele>
        <time>2005-08-12T14:40:27Z</time>
      </trkpt>
      <trkpt lat="45.833028992637992" lon="8.923050072044134">
        <ele>467.338134765625</ele>
        <time>2005-08-12T14:40:32Z</time>
      </trkpt>
      <trkpt lat="45.833044415339828" lon="8.922908836975694">
        <ele>467.8187255859375</ele>
        <time>2005-08-12T14:40:37Z</time>
      </trkpt>
      <trkpt lat="45.833046091720462" lon="8.922755280509591">
        <ele>468.29931640625</ele>
        <time>2005-08-12T14:40:42Z</time>
      </trkpt>
      <trkpt lat="45.833055982366204" lon="8.922578254714608">
        <ele>469.2607421875</ele>
        <time>2005-08-12T14:40:47Z</time>
      </trkpt>
      <trkpt lat="45.833039972931147" lon="8.922379016876221">
        <ele>469.7413330078125</ele>
        <time>2005-08-12T14:40:52Z</time>
      </trkpt>
      <trkpt lat="45.833041146397591" lon="8.922195620834827">
        <ele>469.7413330078125</ele>
        <time>2005-08-12T14:40:57Z</time>
      </trkpt>
      <trkpt lat="45.833052545785904" lon="8.922029575332999">
        <ele>470.221923828125</ele>
        <time>2005-08-12T14:41:03Z</time>
      </trkpt>
      <trkpt lat="45.833057826384902" lon="8.921872163191438">
        <ele>468.780029296875</ele>
        <time>2005-08-12T14:41:08Z</time>
      </trkpt>
      <trkpt lat="45.833049612119794" lon="8.92173008993268">
        <ele>469.2607421875</ele>
        <time>2005-08-12T14:41:12Z</time>
      </trkpt>
      <trkpt lat="45.833024634048343" lon="8.921552561223507">
        <ele>469.7413330078125</ele>
        <time>2005-08-12T14:41:17Z</time>
      </trkpt>
      <trkpt lat="45.832988256588578" lon="8.921380480751395">
        <ele>470.221923828125</ele>
        <time>2005-08-12T14:41:22Z</time>
      </trkpt>
      <trkpt lat="45.832954477518797" lon="8.921185517683625">
        <ele>470.221923828125</ele>
        <time>2005-08-12T14:41:27Z</time>
      </trkpt>
      <trkpt lat="45.832929080352187" lon="8.92101519741118">
        <ele>472.1446533203125</ele>
        <time>2005-08-12T14:41:32Z</time>
      </trkpt>
      <trkpt lat="45.832845345139503" lon="8.920802464708686">
        <ele>474.0672607421875</ele>
        <time>2005-08-12T14:41:39Z</time>
      </trkpt>
      <trkpt lat="45.832759598270059" lon="8.920632060617209">
        <ele>472.6253662109375</ele>
        <time>2005-08-12T14:41:44Z</time>
      </trkpt>
      <trkpt lat="45.832672426477075" lon="8.920503482222557">
        <ele>472.6253662109375</ele>
        <time>2005-08-12T14:41:48Z</time>
      </trkpt>
      <trkpt lat="45.832600258290768" lon="8.920388901606202">
        <ele>471.6639404296875</ele>
        <time>2005-08-12T14:41:52Z</time>
      </trkpt>
      <trkpt lat="45.832519289106131" lon="8.920252528041601">
        <ele>472.1446533203125</ele>
        <time>2005-08-12T14:41:56Z</time>
      </trkpt>
      <trkpt lat="45.832444438710809" lon="8.920119507238269">
        <ele>472.1446533203125</ele>
        <time>2005-08-12T14:42:00Z</time>
      </trkpt>
      <trkpt lat="45.832368163391948" lon="8.919998472556472">
        <ele>472.1446533203125</ele>
        <time>2005-08-12T14:42:04Z</time>
      </trkpt>
      <trkpt lat="45.832281326875091" lon="8.919926472008228">
        <ele>472.1446533203125</ele>
        <time>2005-08-12T14:42:09Z</time>
      </trkpt>
      <trkpt lat="45.832186695188284" lon="8.9198864903301">
        <ele>472.6253662109375</ele>
        <time>2005-08-12T14:42:14Z</time>
      </trkpt>
      <trkpt lat="45.832067085430026" lon="8.919930495321751">
        <ele>472.6253662109375</ele>
        <time>2005-08-12T14:42:19Z</time>
      </trkpt>
      <trkpt lat="45.831977399066091" lon="8.920070305466652">
        <ele>473.1060791015625</ele>
        <time>2005-08-12T14:42:25Z</time>
      </trkpt>
      <trkpt lat="45.832046968862414" lon="8.920157141983509">
        <ele>474.5479736328125</ele>
        <time>2005-08-12T14:42:29Z</time>
      </trkpt>
      <trkpt lat="45.832082843407989" lon="8.920317487791181">
        <ele>475.9898681640625</ele>
        <time>2005-08-12T14:42:35Z</time>
      </trkpt>
      <trkpt lat="45.832125591114163" lon="8.920492921024561">
        <ele>476.9512939453125</ele>
        <time>2005-08-12T14:42:41Z</time>
      </trkpt>
      <trkpt lat="45.832178983837366" lon="8.920612698420882">
        <ele>478.8739013671875</ele>
        <time>2005-08-12T14:42:51Z</time>
      </trkpt>
      <trkpt lat="45.832047890871763" lon="8.920823503285646">
        <ele>479.8350830078125</ele>
        <time>2005-08-12T14:43:20Z</time>
      </trkpt>
      <trkpt lat="45.83200816065073" lon="8.920976053923369">
        <ele>480.31591796875</ele>
        <time>2005-08-12T14:43:25Z</time>
      </trkpt>
      <trkpt lat="45.832001622766256" lon="8.921156013384461">
        <ele>484.1611328125</ele>
        <time>2005-08-12T14:43:30Z</time>
      </trkpt>
      <trkpt lat="45.831984775140882" lon="8.921323819085956">
        <ele>485.1224365234375</ele>
        <time>2005-08-12T14:43:35Z</time>
      </trkpt>
      <trkpt lat="45.831966670230031" lon="8.921468071639538">
        <ele>486.083740234375</ele>
        <time>2005-08-12T14:43:40Z</time>
      </trkpt>
      <trkpt lat="45.831943200901151" lon="8.921632273122668">
        <ele>488.0064697265625</ele>
        <time>2005-08-12T14:43:45Z</time>
      </trkpt>
      <trkpt lat="45.831949319690466" lon="8.921802341938019">
        <ele>490.4097900390625</ele>
        <time>2005-08-12T14:43:50Z</time>
      </trkpt>
      <trkpt lat="45.831953678280115" lon="8.921965286135674">
        <ele>492.3323974609375</ele>
        <time>2005-08-12T14:43:55Z</time>
      </trkpt>
      <trkpt lat="45.831977650523186" lon="8.922127559781075">
        <ele>493.7742919921875</ele>
        <time>2005-08-12T14:44:01Z</time>
      </trkpt>
      <trkpt lat="45.831991899758577" lon="8.922292599454522">
        <ele>494.735595703125</ele>
        <time>2005-08-12T14:44:07Z</time>
      </trkpt>
      <trkpt lat="45.832010759040713" lon="8.922430397942662">
        <ele>495.2161865234375</ele>
        <time>2005-08-12T14:44:12Z</time>
      </trkpt>
      <trkpt lat="45.832052752375603" lon="8.922582613304257">
        <ele>496.6583251953125</ele>
        <time>2005-08-12T14:44:18Z</time>
      </trkpt>
      <trkpt lat="45.832106731832027" lon="8.922729967162013">
        <ele>498.100341796875</ele>
        <time>2005-08-12T14:44:24Z</time>
      </trkpt>
      <trkpt lat="45.832151910290122" lon="8.922852845862508">
        <ele>500.5035400390625</ele>
        <time>2005-08-12T14:44:29Z</time>
      </trkpt>
      <trkpt lat="45.832211086526513" lon="8.922976395115256">
        <ele>501.46484375</ele>
        <time>2005-08-12T14:44:35Z</time>
      </trkpt>
      <trkpt lat="45.832301275804639" lon="8.923031464219093">
        <ele>502.4261474609375</ele>
        <time>2005-08-12T14:44:42Z</time>
      </trkpt>
      <trkpt lat="45.832340167835355" lon="8.922867514193058">
        <ele>502.90673828125</ele>
        <time>2005-08-12T14:44:47Z</time>
      </trkpt>
      <trkpt lat="45.832341592758894" lon="8.922702390700579">
        <ele>502.4261474609375</ele>
        <time>2005-08-12T14:44:51Z</time>
      </trkpt>
      <trkpt lat="45.832356093451381" lon="8.922511618584395">
        <ele>500.984130859375</ele>
        <time>2005-08-12T14:44:54Z</time>
      </trkpt>
      <trkpt lat="45.832376377657056" lon="8.922348925843835">
        <ele>499.542236328125</ele>
        <time>2005-08-12T14:44:56Z</time>
      </trkpt>
      <trkpt lat="45.832397500053048" lon="8.922180365771055">
        <ele>498.100341796875</ele>
        <time>2005-08-12T14:44:58Z</time>
      </trkpt>
      <trkpt lat="45.832418370991945" lon="8.922012811526656">
        <ele>497.138916015625</ele>
        <time>2005-08-12T14:45:00Z</time>
      </trkpt>
      <trkpt lat="45.832439577206969" lon="8.921843580901623">
        <ele>496.177734375</ele>
        <time>2005-08-12T14:45:02Z</time>
      </trkpt>
      <trkpt lat="45.832460867241025" lon="8.921673428267241">
        <ele>495.6968994140625</ele>
        <time>2005-08-12T14:45:04Z</time>
      </trkpt>
      <trkpt lat="45.83247184753418" lon="8.921486595645547">
        <ele>494.2550048828125</ele>
        <time>2005-08-12T14:45:06Z</time>
      </trkpt>
      <trkpt lat="45.83247184753418" lon="8.921310575678945">
        <ele>491.3709716796875</ele>
        <time>2005-08-12T14:45:08Z</time>
      </trkpt>
      <trkpt lat="45.832448210567236" lon="8.921116450801492">
        <ele>489.4483642578125</ele>
        <time>2005-08-12T14:45:10Z</time>
      </trkpt>
      <trkpt lat="45.832393225282431" lon="8.921024836599827">
        <ele>487.525634765625</ele>
        <time>2005-08-12T14:45:12Z</time>
      </trkpt>
      <trkpt lat="45.832343101501465" lon="8.920941352844238">
        <ele>485.1224365234375</ele>
        <time>2005-08-12T14:45:14Z</time>
      </trkpt>
      <trkpt lat="45.83233798854053" lon="8.92093900591135">
        <ele>483.680419921875</ele>
        <time>2005-08-12T14:45:16Z</time>
      </trkpt>
      <trkpt lat="45.832294654101133" lon="8.920920481905341">
        <ele>481.2772216796875</ele>
        <time>2005-08-12T14:45:18Z</time>
      </trkpt>
      <trkpt lat="45.832251403480768" lon="8.920901957899332">
        <ele>479.8350830078125</ele>
        <time>2005-08-12T14:45:20Z</time>
      </trkpt>
      <trkpt lat="45.831699371337891" lon="8.920426368713379">
        <ele>472.6253662109375</ele>
        <time>2005-08-12T14:46:06Z</time>
      </trkpt>
      <trkpt lat="45.831699371337891" lon="8.920426368713379">
        <ele>473.586669921875</ele>
        <time>2005-08-12T14:46:15Z</time>
      </trkpt>
      <trkpt lat="45.831699371337891" lon="8.920426368713379">
        <ele>474.5479736328125</ele>
        <time>2005-08-12T14:46:22Z</time>
      </trkpt>
      <trkpt lat="45.831719152629375" lon="8.919618939980865">
        <ele>476.9512939453125</ele>
        <time>2005-08-12T14:46:29Z</time>
      </trkpt>
      <trkpt lat="45.831634243950248" lon="8.919527744874358">
        <ele>477.9124755859375</ele>
        <time>2005-08-12T14:46:35Z</time>
      </trkpt>
      <trkpt lat="45.831548664718866" lon="8.919420121237636">
        <ele>478.8739013671875</ele>
        <time>2005-08-12T14:46:41Z</time>
      </trkpt>
      <trkpt lat="45.83146870136261" lon="8.919322052970529">
        <ele>478.8739013671875</ele>
        <time>2005-08-12T14:46:47Z</time>
      </trkpt>
      <trkpt lat="45.831372728571296" lon="8.919240916147828">
        <ele>479.3544921875</ele>
        <time>2005-08-12T14:46:53Z</time>
      </trkpt>
      <trkpt lat="45.831279689446092" lon="8.919132454320788">
        <ele>479.8350830078125</ele>
        <time>2005-08-12T14:46:59Z</time>
      </trkpt>
      <trkpt lat="45.831196876242757" lon="8.919040421023965">
        <ele>481.2772216796875</ele>
        <time>2005-08-12T14:47:04Z</time>
      </trkpt>
      <trkpt lat="45.831086989492178" lon="8.918950818479061">
        <ele>482.71923828125</ele>
        <time>2005-08-12T14:47:09Z</time>
      </trkpt>
      <trkpt lat="45.830973079428077" lon="8.918883427977562">
        <ele>483.680419921875</ele>
        <time>2005-08-12T14:47:14Z</time>
      </trkpt>
      <trkpt lat="45.830892780795693" lon="8.918781001120806">
        <ele>483.1998291015625</ele>
        <time>2005-08-12T14:47:20Z</time>
      </trkpt>
      <trkpt lat="45.830805525183678" lon="8.918667677789927">
        <ele>482.71923828125</ele>
        <time>2005-08-12T14:47:25Z</time>
      </trkpt>
      <trkpt lat="45.830737045034766" lon="8.91855594702065">
        <ele>482.238525390625</ele>
        <time>2005-08-12T14:47:29Z</time>
      </trkpt>
      <trkpt lat="45.830669151619077" lon="8.918435163795948">
        <ele>481.7578125</ele>
        <time>2005-08-12T14:47:33Z</time>
      </trkpt>
      <trkpt lat="45.830593127757311" lon="8.918319912627339">
        <ele>481.2772216796875</ele>
        <time>2005-08-12T14:47:37Z</time>
      </trkpt>
      <trkpt lat="45.830505033954978" lon="8.918208600953221">
        <ele>481.2772216796875</ele>
        <time>2005-08-12T14:47:41Z</time>
      </trkpt>
      <trkpt lat="45.830418784171343" lon="8.918079771101475">
        <ele>480.31591796875</ele>
        <time>2005-08-12T14:47:45Z</time>
      </trkpt>
      <trkpt lat="45.830360446125269" lon="8.917914144694805">
        <ele>479.8350830078125</ele>
        <time>2005-08-12T14:47:49Z</time>
      </trkpt>
      <trkpt lat="45.830323314294219" lon="8.917770059779286">
        <ele>479.3544921875</ele>
        <time>2005-08-12T14:47:52Z</time>
      </trkpt>
      <trkpt lat="45.830265646800399" lon="8.917606277391315">
        <ele>477.9124755859375</ele>
        <time>2005-08-12T14:47:55Z</time>
      </trkpt>
      <trkpt lat="45.830205380916595" lon="8.917428916320205">
        <ele>477.431884765625</ele>
        <time>2005-08-12T14:47:58Z</time>
      </trkpt>
      <trkpt lat="45.830123573541641" lon="8.917233450338244">
        <ele>478.3931884765625</ele>
        <time>2005-08-12T14:48:01Z</time>
      </trkpt>
      <trkpt lat="45.830034390091896" lon="8.917062459513545">
        <ele>477.9124755859375</ele>
        <time>2005-08-12T14:48:04Z</time>
      </trkpt>
      <trkpt lat="45.829915450885892" lon="8.9168731123209">
        <ele>475.0286865234375</ele>
        <time>2005-08-12T14:48:07Z</time>
      </trkpt>
      <trkpt lat="45.829836493358016" lon="8.916745204478502">
        <ele>474.0672607421875</ele>
        <time>2005-08-12T14:48:09Z</time>
      </trkpt>
      <trkpt lat="45.829767677932978" lon="8.91660631634295">
        <ele>472.1446533203125</ele>
        <time>2005-08-12T14:48:11Z</time>
      </trkpt>
      <trkpt lat="45.829685619100928" lon="8.916460303589702">
        <ele>470.70263671875</ele>
        <time>2005-08-12T14:48:13Z</time>
      </trkpt>
      <trkpt lat="45.829609762877226" lon="8.916321080178022">
        <ele>469.7413330078125</ele>
        <time>2005-08-12T14:48:15Z</time>
      </trkpt>
      <trkpt lat="45.829533906653523" lon="8.916180012747645">
        <ele>467.338134765625</ele>
        <time>2005-08-12T14:48:17Z</time>
      </trkpt>
      <trkpt lat="45.829473221674562" lon="8.916036514565349">
        <ele>465.8961181640625</ele>
        <time>2005-08-12T14:48:19Z</time>
      </trkpt>
      <trkpt lat="45.829420667141676" lon="8.915892513468862">
        <ele>462.5313720703125</ele>
        <time>2005-08-12T14:48:21Z</time>
      </trkpt>
      <trkpt lat="45.829378003254533" lon="8.915754212066531">
        <ele>460.6087646484375</ele>
        <time>2005-08-12T14:48:23Z</time>
      </trkpt>
      <trkpt lat="45.829332321882248" lon="8.91560073941946">
        <ele>457.7249755859375</ele>
        <time>2005-08-12T14:48:25Z</time>
      </trkpt>
      <trkpt lat="45.829288149252534" lon="8.915442824363709">
        <ele>454.3602294921875</ele>
        <time>2005-08-12T14:48:27Z</time>
      </trkpt>
      <trkpt lat="45.829243808984756" lon="8.915272587910295">
        <ele>452.918212890625</ele>
        <time>2005-08-12T14:48:29Z</time>
      </trkpt>
      <trkpt lat="45.829208102077246" lon="8.915101513266563">
        <ele>450.5150146484375</ele>
        <time>2005-08-12T14:48:31Z</time>
      </trkpt>
      <trkpt lat="45.82917314954102" lon="8.914945777505636">
        <ele>448.5924072265625</ele>
        <time>2005-08-12T14:48:33Z</time>
      </trkpt>
      <trkpt lat="45.82913601770997" lon="8.914767075330019">
        <ele>447.1502685546875</ele>
        <time>2005-08-12T14:48:35Z</time>
      </trkpt>
      <trkpt lat="45.829092347994447" lon="8.914621900767088">
        <ele>446.669677734375</ele>
        <time>2005-08-12T14:48:37Z</time>
      </trkpt>
      <trkpt lat="45.829054126515985" lon="8.914490388706327">
        <ele>445.7083740234375</ele>
        <time>2005-08-12T14:48:39Z</time>
      </trkpt>
      <trkpt lat="45.829019928351045" lon="8.914367510005832">
        <ele>444.2664794921875</ele>
        <time>2005-08-12T14:48:41Z</time>
      </trkpt>
      <trkpt lat="45.828956728801131" lon="8.914244966581464">
        <ele>442.824462890625</ele>
        <time>2005-08-12T14:48:43Z</time>
      </trkpt>
      <trkpt lat="45.828328924253583" lon="8.912536986172199">
        <ele>439.459716796875</ele>
        <time>2005-08-12T14:52:17Z</time>
      </trkpt>
      <trkpt lat="45.828023990616202" lon="8.912199279293418">
        <ele>440.4212646484375</ele>
        <time>2005-08-12T14:52:22Z</time>
      </trkpt>
      <trkpt lat="45.828029941767454" lon="8.912140941247344">
        <ele>440.90185546875</ele>
        <time>2005-08-12T14:52:27Z</time>
      </trkpt>
      <trkpt lat="45.827870601788163" lon="8.912112694233656">
        <ele>440.90185546875</ele>
        <time>2005-08-12T14:52:32Z</time>
      </trkpt>
      <trkpt lat="45.827766247093678" lon="8.91200733371079">
        <ele>440.4212646484375</ele>
        <time>2005-08-12T14:52:38Z</time>
      </trkpt>
      <trkpt lat="45.827580001205206" lon="8.912165416404605">
        <ele>439.459716796875</ele>
        <time>2005-08-12T14:52:42Z</time>
      </trkpt>
      <trkpt lat="45.827482687309384" lon="8.912230879068375">
        <ele>439.459716796875</ele>
        <time>2005-08-12T14:52:46Z</time>
      </trkpt>
      <trkpt lat="45.827382691204548" lon="8.912264741957188">
        <ele>439.9404296875</ele>
        <time>2005-08-12T14:52:50Z</time>
      </trkpt>
      <trkpt lat="45.827282695099711" lon="8.912298604846001">
        <ele>440.4212646484375</ele>
        <time>2005-08-12T14:52:54Z</time>
      </trkpt>
      <trkpt lat="45.827182698994875" lon="8.912332467734814">
        <ele>440.4212646484375</ele>
        <time>2005-08-12T14:52:58Z</time>
      </trkpt>
      <trkpt lat="45.827082702890038" lon="8.912366330623627">
        <ele>440.4212646484375</ele>
        <time>2005-08-12T14:53:02Z</time>
      </trkpt>
      <trkpt lat="45.82698262296617" lon="8.91240019351244">
        <ele>439.9404296875</ele>
        <time>2005-08-12T14:53:06Z</time>
      </trkpt>
      <trkpt lat="45.826861001551151" lon="8.912365576252341">
        <ele>439.9404296875</ele>
        <time>2005-08-12T14:53:09Z</time>
      </trkpt>
      <trkpt lat="45.826776176691055" lon="8.912283349782229">
        <ele>440.4212646484375</ele>
        <time>2005-08-12T14:53:11Z</time>
      </trkpt>
      <trkpt lat="45.826691435649991" lon="8.912201039493084">
        <ele>440.4212646484375</ele>
        <time>2005-08-12T14:53:13Z</time>
      </trkpt>
      <trkpt lat="45.826606694608927" lon="8.912118813022971">
        <ele>440.4212646484375</ele>
        <time>2005-08-12T14:53:15Z</time>
      </trkpt>
      <trkpt lat="45.826484570279717" lon="8.912079585716128">
        <ele>440.4212646484375</ele>
        <time>2005-08-12T14:53:18Z</time>
      </trkpt>
      <trkpt lat="45.826378287747502" lon="8.912066258490086">
        <ele>439.459716796875</ele>
        <time>2005-08-12T14:53:22Z</time>
      </trkpt>
      <trkpt lat="45.826268484815955" lon="8.912052679806948">
        <ele>436.575927734375</ele>
        <time>2005-08-12T14:53:27Z</time>
      </trkpt>
      <trkpt lat="45.826226323843002" lon="8.912116633728147">
        <ele>436.09521484375</ele>
        <time>2005-08-12T14:53:31Z</time>
      </trkpt>
      <trkpt lat="45.826254654675722" lon="8.91223942860961">
        <ele>434.6533203125</ele>
        <time>2005-08-12T14:53:34Z</time>
      </trkpt>
      <trkpt lat="45.825862884521484" lon="8.912873268127441">
        <ele>433.2113037109375</ele>
        <time>2005-08-12T14:53:36Z</time>
      </trkpt>
      <trkpt lat="45.825862884521484" lon="8.912873268127441">
        <ele>429.8465576171875</ele>
        <time>2005-08-12T14:53:38Z</time>
      </trkpt>
      <trkpt lat="45.825862884521484" lon="8.912873268127441">
        <ele>428.4046630859375</ele>
        <time>2005-08-12T14:53:40Z</time>
      </trkpt>
      <trkpt lat="45.825876547023654" lon="8.912941664457321">
        <ele>428.4046630859375</ele>
        <time>2005-08-12T14:53:42Z</time>
      </trkpt>
      <trkpt lat="45.825902782380581" lon="8.913072757422924">
        <ele>427.443359375</ele>
        <time>2005-08-12T14:53:44Z</time>
      </trkpt>
      <trkpt lat="45.825905799865723" lon="8.913161437958479">
        <ele>427.443359375</ele>
        <time>2005-08-12T14:53:46Z</time>
      </trkpt>
      <trkpt lat="45.825905799865723" lon="8.913323543965817">
        <ele>425.0401611328125</ele>
        <time>2005-08-12T14:53:48Z</time>
      </trkpt>
      <trkpt lat="45.825905799865723" lon="8.913499563932419">
        <ele>423.117431640625</ele>
        <time>2005-08-12T14:53:50Z</time>
      </trkpt>
      <trkpt lat="45.825905799865723" lon="8.913681032136083">
        <ele>421.6754150390625</ele>
        <time>2005-08-12T14:53:52Z</time>
      </trkpt>
      <trkpt lat="45.82578300498426" lon="8.913819584995508">
        <ele>419.7528076171875</ele>
        <time>2005-08-12T14:53:55Z</time>
      </trkpt>
      <trkpt lat="45.825725505128503" lon="8.913680026307702">
        <ele>418.79150390625</ele>
        <time>2005-08-12T14:53:57Z</time>
      </trkpt>
      <trkpt lat="45.825666831806302" lon="8.913537450134754">
        <ele>417.349609375</ele>
        <time>2005-08-12T14:53:59Z</time>
      </trkpt>
      <trkpt lat="45.825587539002299" lon="8.913352377712727">
        <ele>416.868896484375</ele>
        <time>2005-08-12T14:54:01Z</time>
      </trkpt>
      <trkpt lat="45.825489722192287" lon="8.913156827911735">
        <ele>413.98486328125</ele>
        <time>2005-08-12T14:54:03Z</time>
      </trkpt>
      <trkpt lat="45.825393330305815" lon="8.912964127957821">
        <ele>411.5816650390625</ele>
        <time>2005-08-12T14:54:05Z</time>
      </trkpt>
      <trkpt lat="45.82521915435791" lon="8.912873268127441">
        <ele>408.217041015625</ele>
        <time>2005-08-12T14:54:09Z</time>
      </trkpt>
      <trkpt lat="45.825085714459419" lon="8.912892378866673">
        <ele>406.77490234375</ele>
        <time>2005-08-12T14:54:11Z</time>
      </trkpt>
      <trkpt lat="45.824937438592315" lon="8.912913585081697">
        <ele>405.813720703125</ele>
        <time>2005-08-12T14:54:13Z</time>
      </trkpt>
      <trkpt lat="45.824874993413687" lon="8.912959937006235">
        <ele>404.3717041015625</ele>
        <time>2005-08-12T14:54:15Z</time>
      </trkpt>
      <trkpt lat="45.824752198532224" lon="8.913082731887698">
        <ele>402.4490966796875</ele>
        <time>2005-08-12T14:54:17Z</time>
      </trkpt>
      <trkpt lat="45.824618339538574" lon="8.913216590881348">
        <ele>401.007080078125</ele>
        <time>2005-08-12T14:54:19Z</time>
      </trkpt>
      <trkpt lat="45.824578609317541" lon="8.913296051323414">
        <ele>400.5264892578125</ele>
        <time>2005-08-12T14:54:20Z</time>
      </trkpt>
      <trkpt lat="45.824467968195677" lon="8.913517417386174">
        <ele>399.5650634765625</ele>
        <time>2005-08-12T14:54:22Z</time>
      </trkpt>
      <trkpt lat="45.824178708717227" lon="8.913627387955785">
        <ele>399.5650634765625</ele>
        <time>2005-08-12T14:54:24Z</time>
      </trkpt>
      <trkpt lat="45.824072510004044" lon="8.913566702976823">
        <ele>400.5264892578125</ele>
        <time>2005-08-12T14:54:26Z</time>
      </trkpt>
      <trkpt lat="45.824058931320906" lon="8.913560584187508">
        <ele>401.007080078125</ele>
        <time>2005-08-12T14:54:28Z</time>
      </trkpt>
      <trkpt lat="45.823959019035101" lon="8.913603415712714">
        <ele>401.968505859375</ele>
        <time>2005-08-12T14:54:31Z</time>
      </trkpt>
      <trkpt lat="45.823852820321918" lon="8.913649013265967">
        <ele>402.9296875</ele>
        <time>2005-08-12T14:54:34Z</time>
      </trkpt>
      <trkpt lat="45.823657270520926" lon="8.913572821766138">
        <ele>403.410400390625</ele>
        <time>2005-08-12T14:54:37Z</time>
      </trkpt>
      <trkpt lat="45.823631286621094" lon="8.913559913635254">
        <ele>403.410400390625</ele>
        <time>2005-08-12T14:55:17Z</time>
      </trkpt>
      <trkpt lat="45.823631286621094" lon="8.913400238379836">
        <ele>402.4490966796875</ele>
        <time>2005-08-12T14:55:22Z</time>
      </trkpt>
      <trkpt lat="45.823631286621094" lon="8.913262104615569">
        <ele>401.48779296875</ele>
        <time>2005-08-12T14:55:59Z</time>
      </trkpt>
      <trkpt lat="45.823631286621094" lon="8.913090443238616">
        <ele>401.007080078125</ele>
        <time>2005-08-12T14:56:02Z</time>
      </trkpt>
      <trkpt lat="45.823631286621094" lon="8.912958260625601">
        <ele>401.007080078125</ele>
        <time>2005-08-12T14:56:04Z</time>
      </trkpt>
      <trkpt lat="45.823631286621094" lon="8.912826832383871">
        <ele>400.5264892578125</ele>
        <time>2005-08-12T14:56:06Z</time>
      </trkpt>
      <trkpt lat="45.823330879211426" lon="8.91240119934082">
        <ele>399.5650634765625</ele>
        <time>2005-08-12T14:56:08Z</time>
      </trkpt>
      <trkpt lat="45.823330879211426" lon="8.91240119934082">
        <ele>399.0843505859375</ele>
        <time>2005-08-12T14:56:10Z</time>
      </trkpt>
      <trkpt lat="45.823321407660842" lon="8.912379238754511">
        <ele>397.6424560546875</ele>
        <time>2005-08-12T14:56:12Z</time>
      </trkpt>
      <trkpt lat="45.823230296373367" lon="8.912168936803937">
        <ele>395.7198486328125</ele>
        <time>2005-08-12T14:56:14Z</time>
      </trkpt>
      <trkpt lat="45.823147147893906" lon="8.911977158859372">
        <ele>393.3165283203125</ele>
        <time>2005-08-12T14:56:16Z</time>
      </trkpt>
      <trkpt lat="45.823068944737315" lon="8.911796612665057">
        <ele>391.87451171875</ele>
        <time>2005-08-12T14:56:18Z</time>
      </trkpt>
      <trkpt lat="45.822995686903596" lon="8.911627633497119">
        <ele>391.87451171875</ele>
        <time>2005-08-12T14:56:20Z</time>
      </trkpt>
      <trkpt lat="45.822926871478558" lon="8.91146888025105">
        <ele>391.393798828125</ele>
        <time>2005-08-12T14:56:22Z</time>
      </trkpt>
      <trkpt lat="45.822865180671215" lon="8.911326555535197">
        <ele>389.951904296875</ele>
        <time>2005-08-12T14:56:24Z</time>
      </trkpt>
      <trkpt lat="45.822806004434824" lon="8.911190098151565">
        <ele>388.510009765625</ele>
        <time>2005-08-12T14:56:26Z</time>
      </trkpt>
      <trkpt lat="45.822772979736328" lon="8.911113739013672">
        <ele>387.548583984375</ele>
        <time>2005-08-12T14:56:28Z</time>
      </trkpt>
      <trkpt lat="45.822772979736328" lon="8.911113739013672">
        <ele>386.58740234375</ele>
        <time>2005-08-12T14:56:31Z</time>
      </trkpt>
      <trkpt lat="45.822772979736328" lon="8.911113739013672">
        <ele>384.664794921875</ele>
        <time>2005-08-12T14:56:33Z</time>
      </trkpt>
      <trkpt lat="45.822772979736328" lon="8.911113739013672">
        <ele>383.7032470703125</ele>
        <time>2005-08-12T14:56:35Z</time>
      </trkpt>
      <trkpt lat="45.822772979736328" lon="8.911113739013672">
        <ele>381.7806396484375</ele>
        <time>2005-08-12T14:56:37Z</time>
      </trkpt>
      <trkpt lat="45.822772979736328" lon="8.911113739013672">
        <ele>381.300048828125</ele>
        <time>2005-08-12T14:56:39Z</time>
      </trkpt>
      <trkpt lat="45.822490928694606" lon="8.91031326726079">
        <ele>379.8580322265625</ele>
        <time>2005-08-12T14:56:41Z</time>
      </trkpt>
      <trkpt lat="45.822434769943357" lon="8.91021067276597">
        <ele>378.8968505859375</ele>
        <time>2005-08-12T14:56:43Z</time>
      </trkpt>
      <trkpt lat="45.822317590937018" lon="8.910202039405704">
        <ele>378.4161376953125</ele>
        <time>2005-08-12T14:56:45Z</time>
      </trkpt>
      <trkpt lat="45.82220041193068" lon="8.910193406045437">
        <ele>377.9354248046875</ele>
        <time>2005-08-12T14:56:47Z</time>
      </trkpt>
      <trkpt lat="45.822051214054227" lon="8.910211594775319">
        <ele>376.9742431640625</ele>
        <time>2005-08-12T14:56:49Z</time>
      </trkpt>
      <trkpt lat="45.821919701993465" lon="8.91023313626647">
        <ele>376.4935302734375</ele>
        <time>2005-08-12T14:56:51Z</time>
      </trkpt>
      <trkpt lat="45.821794727817178" lon="8.910246882587671">
        <ele>376.0128173828125</ele>
        <time>2005-08-12T14:56:53Z</time>
      </trkpt>
      <trkpt lat="45.821655923500657" lon="8.910275716334581">
        <ele>376.4935302734375</ele>
        <time>2005-08-12T14:56:55Z</time>
      </trkpt>
      <trkpt lat="45.821523824706674" lon="8.910293905064464">
        <ele>375.5321044921875</ele>
        <time>2005-08-12T14:56:57Z</time>
      </trkpt>
      <trkpt lat="45.821394072845578" lon="8.910300442948937">
        <ele>375.051513671875</ele>
        <time>2005-08-12T14:56:59Z</time>
      </trkpt>
      <trkpt lat="45.821270439773798" lon="8.910298766568303">
        <ele>374.57080078125</ele>
        <time>2005-08-12T14:57:01Z</time>
      </trkpt>
      <trkpt lat="45.820922255516052" lon="8.910604789853096">
        <ele>374.57080078125</ele>
        <time>2005-08-12T14:57:03Z</time>
      </trkpt>
      <trkpt lat="45.820841118693352" lon="8.91058836132288">
        <ele>374.090087890625</ele>
        <time>2005-08-12T14:57:05Z</time>
      </trkpt>
      <trkpt lat="45.820723352953792" lon="8.910564891994">
        <ele>374.57080078125</ele>
        <time>2005-08-12T14:57:08Z</time>
      </trkpt>
      <trkpt lat="45.820624195039272" lon="8.910570256412029">
        <ele>374.090087890625</ele>
        <time>2005-08-12T14:58:46Z</time>
      </trkpt>
      <trkpt lat="45.820514559745789" lon="8.910550307482481">
        <ele>374.090087890625</ele>
        <time>2005-08-12T14:58:50Z</time>
      </trkpt>
      <trkpt lat="45.820415820926428" lon="8.910521809011698">
        <ele>373.6094970703125</ele>
        <time>2005-08-12T14:58:53Z</time>
      </trkpt>
      <trkpt lat="45.820319345220923" lon="8.910479312762618">
        <ele>373.6094970703125</ele>
        <time>2005-08-12T14:58:56Z</time>
      </trkpt>
      <trkpt lat="45.82021608017385" lon="8.910422148182988">
        <ele>373.12890625</ele>
        <time>2005-08-12T14:58:59Z</time>
      </trkpt>
      <trkpt lat="45.820110216736794" lon="8.910341765731573">
        <ele>372.16748046875</ele>
        <time>2005-08-12T14:59:02Z</time>
      </trkpt>
      <trkpt lat="45.819997815415263" lon="8.910242859274149">
        <ele>371.6868896484375</ele>
        <time>2005-08-12T14:59:05Z</time>
      </trkpt>
      <trkpt lat="45.819887509569526" lon="8.910127691924572">
        <ele>371.206298828125</ele>
        <time>2005-08-12T14:59:08Z</time>
      </trkpt>
      <trkpt lat="45.81978022120893" lon="8.910002382472158">
        <ele>371.206298828125</ele>
        <time>2005-08-12T14:59:11Z</time>
      </trkpt>
      <trkpt lat="45.81967419013381" lon="8.909888220950961">
        <ele>370.7255859375</ele>
        <time>2005-08-12T14:59:14Z</time>
      </trkpt>
      <trkpt lat="45.819575451314449" lon="8.909805659204722">
        <ele>371.206298828125</ele>
        <time>2005-08-12T14:59:17Z</time>
      </trkpt>
      <trkpt lat="45.819474281743169" lon="8.90972251072526">
        <ele>370.7255859375</ele>
        <time>2005-08-12T14:59:20Z</time>
      </trkpt>
      <trkpt lat="45.819365987554193" lon="8.909640787169337">
        <ele>370.7255859375</ele>
        <time>2005-08-12T14:59:23Z</time>
      </trkpt>
      <trkpt lat="45.819248137995601" lon="8.909575995057821">
        <ele>370.7255859375</ele>
        <time>2005-08-12T14:59:26Z</time>
      </trkpt>
      <trkpt lat="45.819130288437009" lon="8.909509358927608">
        <ele>370.244873046875</ele>
        <time>2005-08-12T14:59:29Z</time>
      </trkpt>
      <trkpt lat="45.819005230441689" lon="8.909464348107576">
        <ele>370.244873046875</ele>
        <time>2005-08-12T14:59:32Z</time>
      </trkpt>
      <trkpt lat="45.818873634561896" lon="8.909436939284205">
        <ele>370.7255859375</ele>
        <time>2005-08-12T14:59:35Z</time>
      </trkpt>
      <trkpt lat="45.818746816366911" lon="8.90939268283546">
        <ele>369.7642822265625</ele>
        <time>2005-08-12T14:59:38Z</time>
      </trkpt>
      <trkpt lat="45.818618908524513" lon="8.909354628995061">
        <ele>369.28369140625</ele>
        <time>2005-08-12T14:59:41Z</time>
      </trkpt>
      <trkpt lat="45.81848974339664" lon="8.909319005906582">
        <ele>369.28369140625</ele>
        <time>2005-08-12T14:59:44Z</time>
      </trkpt>
      <trkpt lat="45.818398632109165" lon="8.90929645858705">
        <ele>369.28369140625</ele>
        <time>2005-08-12T14:59:46Z</time>
      </trkpt>
      <trkpt lat="45.818307353183627" lon="8.909273408353329">
        <ele>369.28369140625</ele>
        <time>2005-08-12T14:59:48Z</time>
      </trkpt>
      <trkpt lat="45.818216158077121" lon="8.909250358119607">
        <ele>369.28369140625</ele>
        <time>2005-08-12T14:59:50Z</time>
      </trkpt>
      <trkpt lat="45.818121358752251" lon="8.909223871305585">
        <ele>368.802978515625</ele>
        <time>2005-08-12T14:59:52Z</time>
      </trkpt>
      <trkpt lat="45.818020021542907" lon="8.90920308418572">
        <ele>368.802978515625</ele>
        <time>2005-08-12T14:59:54Z</time>
      </trkpt>
      <trkpt lat="45.817920444533229" lon="8.909187829121947">
        <ele>369.28369140625</ele>
        <time>2005-08-12T14:59:56Z</time>
      </trkpt>
      <trkpt lat="45.81781885586679" lon="8.909177435562015">
        <ele>369.28369140625</ele>
        <time>2005-08-12T14:59:58Z</time>
      </trkpt>
      <trkpt lat="45.817715926095843" lon="8.909170394763351">
        <ele>369.28369140625</ele>
        <time>2005-08-12T15:00:00Z</time>
      </trkpt>
      <trkpt lat="45.817194320261478" lon="8.90939855016768">
        <ele>368.802978515625</ele>
        <time>2005-08-12T15:00:02Z</time>
      </trkpt>
      <trkpt lat="45.817193984985352" lon="8.909397125244141">
        <ele>369.28369140625</ele>
        <time>2005-08-12T15:00:05Z</time>
      </trkpt>
      <trkpt lat="45.817193984985352" lon="8.909397125244141">
        <ele>369.28369140625</ele>
        <time>2005-08-12T15:00:08Z</time>
      </trkpt>
      <trkpt lat="45.817203540354967" lon="8.909444566816092">
        <ele>368.802978515625</ele>
        <time>2005-08-12T15:00:22Z</time>
      </trkpt>
      <trkpt lat="45.817247126251459" lon="8.909631567075849">
        <ele>369.7642822265625</ele>
        <time>2005-08-12T15:00:26Z</time>
      </trkpt>
      <trkpt lat="45.817298423498869" lon="8.909787721931934">
        <ele>370.244873046875</ele>
        <time>2005-08-12T15:00:29Z</time>
      </trkpt>
      <trkpt lat="45.817346284165978" lon="8.909942787140608">
        <ele>370.7255859375</ele>
        <time>2005-08-12T15:00:32Z</time>
      </trkpt>
      <trkpt lat="45.817396240308881" lon="8.910095421597362">
        <ele>371.206298828125</ele>
        <time>2005-08-12T15:00:35Z</time>
      </trkpt>
      <trkpt lat="45.817446447908878" lon="8.910245206207037">
        <ele>371.6868896484375</ele>
        <time>2005-08-12T15:00:38Z</time>
      </trkpt>
      <trkpt lat="45.817499253898859" lon="8.910384932532907">
        <ele>372.16748046875</ele>
        <time>2005-08-12T15:00:41Z</time>
      </trkpt>
      <trkpt lat="45.817541414871812" lon="8.910521306097508">
        <ele>373.12890625</ele>
        <time>2005-08-12T15:00:44Z</time>
      </trkpt>
      <trkpt lat="45.817582150921226" lon="8.910688357427716">
        <ele>373.6094970703125</ele>
        <time>2005-08-12T15:00:48Z</time>
      </trkpt>
      <trkpt lat="45.817611906677485" lon="8.910817271098495">
        <ele>374.090087890625</ele>
        <time>2005-08-12T15:00:51Z</time>
      </trkpt>
      <trkpt lat="45.817641746252775" lon="8.910952303558588">
        <ele>374.57080078125</ele>
        <time>2005-08-12T15:00:54Z</time>
      </trkpt>
      <trkpt lat="45.817680805921555" lon="8.911086246371269">
        <ele>374.57080078125</ele>
        <time>2005-08-12T15:00:57Z</time>
      </trkpt>
      <trkpt lat="45.817733779549599" lon="8.911218512803316">
        <ele>375.051513671875</ele>
        <time>2005-08-12T15:01:00Z</time>
      </trkpt>
      <trkpt lat="45.817786669358611" lon="8.911356143653393">
        <ele>375.051513671875</ele>
        <time>2005-08-12T15:01:03Z</time>
      </trkpt>
      <trkpt lat="45.817828327417374" lon="8.911499809473753">
        <ele>375.051513671875</ele>
        <time>2005-08-12T15:01:06Z</time>
      </trkpt>
      <trkpt lat="45.817832937464118" lon="8.911656383424997">
        <ele>375.5321044921875</ele>
        <time>2005-08-12T15:01:09Z</time>
      </trkpt>
      <trkpt lat="45.817809803411365" lon="8.911814549937844">
        <ele>375.051513671875</ele>
        <time>2005-08-12T15:01:12Z</time>
      </trkpt>
      <trkpt lat="45.817778455093503" lon="8.911917479708791">
        <ele>375.051513671875</ele>
        <time>2005-08-12T15:01:14Z</time>
      </trkpt>
      <trkpt lat="45.817674100399017" lon="8.912036335095763">
        <ele>375.051513671875</ele>
        <time>2005-08-12T15:01:17Z</time>
      </trkpt>
      <trkpt lat="45.817606458440423" lon="8.912177151069045">
        <ele>375.051513671875</ele>
        <time>2005-08-12T15:01:20Z</time>
      </trkpt>
      <trkpt lat="45.817528842017055" lon="8.91233230009675">
        <ele>375.051513671875</ele>
        <time>2005-08-12T15:01:23Z</time>
      </trkpt>
      <trkpt lat="45.817453237250447" lon="8.912483425810933">
        <ele>374.57080078125</ele>
        <time>2005-08-12T15:01:26Z</time>
      </trkpt>
      <trkpt lat="45.817429181188345" lon="8.912693057209253">
        <ele>375.051513671875</ele>
        <time>2005-08-12T15:01:29Z</time>
      </trkpt>
      <trkpt lat="45.817512916401029" lon="8.912832532078028">
        <ele>375.051513671875</ele>
        <time>2005-08-12T15:01:32Z</time>
      </trkpt>
      <trkpt lat="45.81759799271822" lon="8.91297435387969">
        <ele>375.5321044921875</ele>
        <time>2005-08-12T15:01:35Z</time>
      </trkpt>
      <trkpt lat="45.817666053771973" lon="8.913087844848633">
        <ele>375.5321044921875</ele>
        <time>2005-08-12T15:01:38Z</time>
      </trkpt>
      <trkpt lat="45.817801170051098" lon="8.913121456280351">
        <ele>376.0128173828125</ele>
        <time>2005-08-12T15:01:41Z</time>
      </trkpt>
      <trkpt lat="45.817797984927893" lon="8.913120618090034">
        <ele>376.4935302734375</ele>
        <time>2005-08-12T15:01:48Z</time>
      </trkpt>
      <trkpt lat="45.817666053771973" lon="8.913087844848633">
        <ele>375.051513671875</ele>
        <time>2005-08-12T15:01:53Z</time>
      </trkpt>
      <trkpt lat="45.817666053771973" lon="8.913087844848633">
        <ele>372.648193359375</ele>
        <time>2005-08-12T15:01:56Z</time>
      </trkpt>
      <trkpt lat="45.817666053771973" lon="8.913087844848633">
        <ele>370.244873046875</ele>
        <time>2005-08-12T15:01:58Z</time>
      </trkpt>
      <trkpt lat="45.817666053771973" lon="8.913087844848633">
        <ele>368.322265625</ele>
        <time>2005-08-12T15:02:00Z</time>
      </trkpt>
      <trkpt lat="45.817666053771973" lon="8.913087844848633">
        <ele>366.8802490234375</ele>
        <time>2005-08-12T15:02:02Z</time>
      </trkpt>
      <trkpt lat="45.818046424537897" lon="8.913130760192871">
        <ele>364.4769287109375</ele>
        <time>2005-08-12T15:02:04Z</time>
      </trkpt>
      <trkpt lat="45.818110881373286" lon="8.913130760192871">
        <ele>362.5543212890625</ele>
        <time>2005-08-12T15:02:06Z</time>
      </trkpt>
      <trkpt lat="45.818138122558594" lon="8.913130760192871">
        <ele>359.189697265625</ele>
        <time>2005-08-12T15:02:08Z</time>
      </trkpt>
      <trkpt lat="45.818209955468774" lon="8.9131223782897">
        <ele>357.747802734375</ele>
        <time>2005-08-12T15:02:10Z</time>
      </trkpt>
      <trkpt lat="45.818299725651741" lon="8.913111817091703">
        <ele>357.26708984375</ele>
        <time>2005-08-12T15:02:12Z</time>
      </trkpt>
      <trkpt lat="45.818454036489129" lon="8.914311267435551">
        <ele>356.786376953125</ele>
        <time>2005-08-12T15:02:14Z</time>
      </trkpt>
      <trkpt lat="45.81873893737793" lon="8.91514778137207">
        <ele>355.344482421875</ele>
        <time>2005-08-12T15:02:16Z</time>
      </trkpt>
      <trkpt lat="45.81873893737793" lon="8.91514778137207">
        <ele>354.3831787109375</ele>
        <time>2005-08-12T15:02:18Z</time>
      </trkpt>
      <trkpt lat="45.81873893737793" lon="8.91514778137207">
        <ele>336.598876953125</ele>
        <time>2005-08-12T15:03:22Z</time>
      </trkpt>
      <trkpt lat="45.8183812815696" lon="8.915751613676548">
        <ele>336.1181640625</ele>
        <time>2005-08-12T15:03:24Z</time>
      </trkpt>
      <trkpt lat="45.818269215524197" lon="8.915807185694575">
        <ele>336.1181640625</ele>
        <time>2005-08-12T15:03:26Z</time>
      </trkpt>
      <trkpt lat="45.818176176398993" lon="8.915874911472201">
        <ele>336.598876953125</ele>
        <time>2005-08-12T15:03:28Z</time>
      </trkpt>
      <trkpt lat="45.818110294640064" lon="8.915970968082547">
        <ele>336.598876953125</ele>
        <time>2005-08-12T15:03:30Z</time>
      </trkpt>
      <trkpt lat="45.818049106746912" lon="8.916131984442473">
        <ele>337.0794677734375</ele>
        <time>2005-08-12T15:03:33Z</time>
      </trkpt>
      <trkpt lat="45.818050531670451" lon="8.91630188561976">
        <ele>337.0794677734375</ele>
        <time>2005-08-12T15:03:36Z</time>
      </trkpt>
      <trkpt lat="45.818109624087811" lon="8.916442450135946">
        <ele>337.0794677734375</ele>
        <time>2005-08-12T15:03:39Z</time>
      </trkpt>
      <trkpt lat="45.818187408149242" lon="8.916582092642784">
        <ele>337.56005859375</ele>
        <time>2005-08-12T15:03:42Z</time>
      </trkpt>
      <trkpt lat="45.818284386768937" lon="8.916705725714564">
        <ele>338.040771484375</ele>
        <time>2005-08-12T15:03:45Z</time>
      </trkpt>
      <trkpt lat="45.818387735635042" lon="8.916827766224742">
        <ele>338.521484375</ele>
        <time>2005-08-12T15:03:48Z</time>
      </trkpt>
      <trkpt lat="45.81846920773387" lon="8.91697134822607">
        <ele>338.521484375</ele>
        <time>2005-08-12T15:03:51Z</time>
      </trkpt>
      <trkpt lat="45.818530563265085" lon="8.917119037359953">
        <ele>339.482666015625</ele>
        <time>2005-08-12T15:03:54Z</time>
      </trkpt>
      <trkpt lat="45.818588817492127" lon="8.917265553027391">
        <ele>339.482666015625</ele>
        <time>2005-08-12T15:03:57Z</time>
      </trkpt>
      <trkpt lat="45.8186368457973" lon="8.917416092008352">
        <ele>339.482666015625</ele>
        <time>2005-08-12T15:04:00Z</time>
      </trkpt>
      <trkpt lat="45.818688310682774" lon="8.917565792798996">
        <ele>339.482666015625</ele>
        <time>2005-08-12T15:04:03Z</time>
      </trkpt>
      <trkpt lat="45.818733237683773" lon="8.917699987068772">
        <ele>339.96337890625</ele>
        <time>2005-08-12T15:04:06Z</time>
      </trkpt>
      <trkpt lat="45.818767519667745" lon="8.917797803878784">
        <ele>340.444091796875</ele>
        <time>2005-08-12T15:04:12Z</time>
      </trkpt>
      <trkpt lat="45.818672217428684" lon="8.917871899902821">
        <ele>341.885986328125</ele>
        <time>2005-08-12T15:04:48Z</time>
      </trkpt>
      <trkpt lat="45.818553194403648" lon="8.917882042005658">
        <ele>342.36669921875</ele>
        <time>2005-08-12T15:04:54Z</time>
      </trkpt>
      <trkpt lat="45.818456467241049" lon="8.917895620688796">
        <ele>342.36669921875</ele>
        <time>2005-08-12T15:04:59Z</time>
      </trkpt>
      <trkpt lat="45.818338366225362" lon="8.917910121381283">
        <ele>342.36669921875</ele>
        <time>2005-08-12T15:05:04Z</time>
      </trkpt>
      <trkpt lat="45.818232921883464" lon="8.91792512498796">
        <ele>342.36669921875</ele>
        <time>2005-08-12T15:05:08Z</time>
      </trkpt>
      <trkpt lat="45.818110881373286" lon="8.917942894622684">
        <ele>342.8472900390625</ele>
        <time>2005-08-12T15:05:12Z</time>
      </trkpt>
      <trkpt lat="45.81799479201436" lon="8.917941972613335">
        <ele>343.327880859375</ele>
        <time>2005-08-12T15:05:16Z</time>
      </trkpt>
      <trkpt lat="45.817774850875139" lon="8.917869217693806">
        <ele>343.80859375</ele>
        <time>2005-08-12T15:06:12Z</time>
      </trkpt>
      <trkpt lat="45.817668149247766" lon="8.917872989550233">
        <ele>345.7313232421875</ele>
        <time>2005-08-12T15:06:19Z</time>
      </trkpt>
      <trkpt lat="45.817563124001026" lon="8.917871899902821">
        <ele>346.2120361328125</ele>
        <time>2005-08-12T15:06:25Z</time>
      </trkpt>
      <trkpt lat="45.817341087386012" lon="8.917984133586288">
        <ele>350.0572509765625</ele>
        <time>2005-08-12T15:07:34Z</time>
      </trkpt>
      <trkpt lat="45.817244276404381" lon="8.918092008680105">
        <ele>353.421875</ele>
        <time>2005-08-12T15:07:40Z</time>
      </trkpt>
      <trkpt lat="45.817153165116906" lon="8.918141629546881">
        <ele>354.86376953125</ele>
        <time>2005-08-12T15:07:46Z</time>
      </trkpt>
      <trkpt lat="45.817038919776678" lon="8.91810248605907">
        <ele>355.8251953125</ele>
        <time>2005-08-12T15:07:53Z</time>
      </trkpt>
      <trkpt lat="45.816972618922591" lon="8.918011961504817">
        <ele>357.747802734375</ele>
        <time>2005-08-12T15:08:00Z</time>
      </trkpt>
      <trkpt lat="45.816913610324264" lon="8.917903332039714">
        <ele>359.67041015625</ele>
        <time>2005-08-12T15:08:07Z</time>
      </trkpt>
      <trkpt lat="45.816890308633447" lon="8.917724965140224">
        <ele>361.1124267578125</ele>
        <time>2005-08-12T15:08:15Z</time>
      </trkpt>
      <trkpt lat="45.816868180409074" lon="8.917555231601">
        <ele>363.0350341796875</ele>
        <time>2005-08-12T15:08:21Z</time>
      </trkpt>
      <trkpt lat="45.816845297813416" lon="8.917405195534229">
        <ele>364.9576416015625</ele>
        <time>2005-08-12T15:08:26Z</time>
      </trkpt>
      <trkpt lat="45.816830629482865" lon="8.917225571349263">
        <ele>366.8802490234375</ele>
        <time>2005-08-12T15:08:31Z</time>
      </trkpt>
      <trkpt lat="45.816794754937291" lon="8.917067907750607">
        <ele>368.322265625</ele>
        <time>2005-08-12T15:08:36Z</time>
      </trkpt>
      <trkpt lat="45.816767010837793" lon="8.917164383456111">
        <ele>369.28369140625</ele>
        <time>2005-08-12T15:08:40Z</time>
      </trkpt>
      <trkpt lat="45.816717138513923" lon="8.91727963462472">
        <ele>370.244873046875</ele>
        <time>2005-08-12T15:08:45Z</time>
      </trkpt>
      <trkpt lat="45.816727532073855" lon="8.917407542467117">
        <ele>371.206298828125</ele>
        <time>2005-08-12T15:08:50Z</time>
      </trkpt>
      <trkpt lat="45.816780254244804" lon="8.917523883283138">
        <ele>373.12890625</ele>
        <time>2005-08-12T15:08:54Z</time>
      </trkpt>
      <trkpt lat="45.816823588684201" lon="8.91763779334724">
        <ele>374.090087890625</ele>
        <time>2005-08-12T15:08:58Z</time>
      </trkpt>
      <trkpt lat="45.816830126568675" lon="8.917768551036716">
        <ele>375.051513671875</ele>
        <time>2005-08-12T15:09:03Z</time>
      </trkpt>
      <trkpt lat="45.816855607554317" lon="8.917909953743219">
        <ele>376.0128173828125</ele>
        <time>2005-08-12T15:09:08Z</time>
      </trkpt>
      <trkpt lat="45.816840017214417" lon="8.918020594865084">
        <ele>377.454833984375</ele>
        <time>2005-08-12T15:09:13Z</time>
      </trkpt>
      <trkpt lat="45.816775560379028" lon="8.918126709759235">
        <ele>378.4161376953125</ele>
        <time>2005-08-12T15:09:18Z</time>
      </trkpt>
      <trkpt lat="45.816732058301568" lon="8.918107179924846">
        <ele>384.18408203125</ele>
        <time>2005-08-12T15:09:40Z</time>
      </trkpt>
      <trkpt lat="45.816717054694891" lon="8.917909618467093">
        <ele>386.106689453125</ele>
        <time>2005-08-12T15:09:47Z</time>
      </trkpt>
      <trkpt lat="45.81666324287653" lon="8.917688252404332">
        <ele>387.0679931640625</ele>
        <time>2005-08-12T15:09:55Z</time>
      </trkpt>
      <trkpt lat="45.816594259813428" lon="8.917482560500503">
        <ele>388.9906005859375</ele>
        <time>2005-08-12T15:10:02Z</time>
      </trkpt>
      <trkpt lat="45.81652007997036" lon="8.91731190495193">
        <ele>390.4326171875</ele>
        <time>2005-08-12T15:10:09Z</time>
      </trkpt>
      <trkpt lat="45.8164575509727" lon="8.917193887755275">
        <ele>391.393798828125</ele>
        <time>2005-08-12T15:10:15Z</time>
      </trkpt>
      <trkpt lat="45.816362081095576" lon="8.917239904403687">
        <ele>393.7972412109375</ele>
        <time>2005-08-12T15:10:21Z</time>
      </trkpt>
      <trkpt lat="45.816292762756348" lon="8.917347276583314">
        <ele>395.2391357421875</ele>
        <time>2005-08-12T15:10:26Z</time>
      </trkpt>
      <trkpt lat="45.816212631762028" lon="8.917437717318535">
        <ele>397.6424560546875</ele>
        <time>2005-08-12T15:10:31Z</time>
      </trkpt>
      <trkpt lat="45.816129148006439" lon="8.917531846091151">
        <ele>398.603759765625</ele>
        <time>2005-08-12T15:10:36Z</time>
      </trkpt>
      <trkpt lat="45.816054716706276" lon="8.917611893266439">
        <ele>399.0843505859375</ele>
        <time>2005-08-12T15:10:41Z</time>
      </trkpt>
      <trkpt lat="45.815965784713626" lon="8.91770962625742">
        <ele>400.5264892578125</ele>
        <time>2005-08-12T15:10:46Z</time>
      </trkpt>
      <trkpt lat="45.81587852910161" lon="8.917800318449736">
        <ele>402.4490966796875</ele>
        <time>2005-08-12T15:10:51Z</time>
      </trkpt>
      <trkpt lat="45.815769815817475" lon="8.917887322604656">
        <ele>403.410400390625</ele>
        <time>2005-08-12T15:10:56Z</time>
      </trkpt>
      <trkpt lat="45.815666550770402" lon="8.917949600145221">
        <ele>404.852294921875</ele>
        <time>2005-08-12T15:11:01Z</time>
      </trkpt>
      <trkpt lat="45.815569655969739" lon="8.918004082515836">
        <ele>406.2943115234375</ele>
        <time>2005-08-12T15:11:06Z</time>
      </trkpt>
      <trkpt lat="45.81547049805522" lon="8.918054793030024">
        <ele>407.736328125</ele>
        <time>2005-08-12T15:11:11Z</time>
      </trkpt>
      <trkpt lat="45.815390618517995" lon="8.918140875175595">
        <ele>410.1396484375</ele>
        <time>2005-08-12T15:11:16Z</time>
      </trkpt>
      <trkpt lat="45.81532440148294" lon="8.918259730562568">
        <ele>410.1396484375</ele>
        <time>2005-08-12T15:11:22Z</time>
      </trkpt>
      <trkpt lat="45.81533077172935" lon="8.918393505737186">
        <ele>410.1396484375</ele>
        <time>2005-08-12T15:11:31Z</time>
      </trkpt>
      <trkpt lat="45.815324988216162" lon="8.918529376387596">
        <ele>411.5816650390625</ele>
        <time>2005-08-12T15:11:42Z</time>
      </trkpt>
      <trkpt lat="45.81526136957109" lon="8.918641777709127">
        <ele>412.062255859375</ele>
        <time>2005-08-12T15:11:53Z</time>
      </trkpt>
      <trkpt lat="45.815167492255569" lon="8.918712353333831">
        <ele>412.5428466796875</ele>
        <time>2005-08-12T15:12:02Z</time>
      </trkpt>
      <trkpt lat="45.815068669617176" lon="8.918787203729153">
        <ele>413.98486328125</ele>
        <time>2005-08-12T15:12:12Z</time>
      </trkpt>
      <trkpt lat="45.814979318529367" lon="8.918856773525477">
        <ele>414.4654541015625</ele>
        <time>2005-08-12T15:12:21Z</time>
      </trkpt>
      <trkpt lat="45.814961884170771" lon="8.918764321133494">
        <ele>415.4268798828125</ele>
        <time>2005-08-12T15:12:31Z</time>
      </trkpt>
      <trkpt lat="45.815018964931369" lon="8.918644292280078">
        <ele>415.907470703125</ele>
        <time>2005-08-12T15:12:38Z</time>
      </trkpt>
      <trkpt lat="45.815069675445557" lon="8.918502302840352">
        <ele>416.38818359375</ele>
        <time>2005-08-12T15:12:44Z</time>
      </trkpt>
      <trkpt lat="45.815116195008159" lon="8.918347824364901">
        <ele>416.38818359375</ele>
        <time>2005-08-12T15:12:49Z</time>
      </trkpt>
      <trkpt lat="45.815148046240211" lon="8.91817775554955">
        <ele>417.349609375</ele>
        <time>2005-08-12T15:12:54Z</time>
      </trkpt>
      <trkpt lat="45.815188614651561" lon="8.918034005910158">
        <ele>417.349609375</ele>
        <time>2005-08-12T15:12:58Z</time>
      </trkpt>
      <trkpt lat="45.815235637128353" lon="8.917891848832369">
        <ele>418.79150390625</ele>
        <time>2005-08-12T15:13:02Z</time>
      </trkpt>
      <trkpt lat="45.815266566351056" lon="8.917722953483462">
        <ele>420.2333984375</ele>
        <time>2005-08-12T15:13:06Z</time>
      </trkpt>
      <trkpt lat="45.815287604928017" lon="8.917539473623037">
        <ele>421.6754150390625</ele>
        <time>2005-08-12T15:13:11Z</time>
      </trkpt>
      <trkpt lat="45.81529414281249" lon="8.917355490848422">
        <ele>423.5980224609375</ele>
        <time>2005-08-12T15:13:17Z</time>
      </trkpt>
      <trkpt lat="45.815243264660239" lon="8.917179889976978">
        <ele>424.5594482421875</ele>
        <time>2005-08-12T15:13:23Z</time>
      </trkpt>
      <trkpt lat="45.815188530832529" lon="8.917002528905869">
        <ele>424.5594482421875</ele>
        <time>2005-08-12T15:13:28Z</time>
      </trkpt>
      <trkpt lat="45.815123151987791" lon="8.91683598048985">
        <ele>424.0787353515625</ele>
        <time>2005-08-12T15:13:32Z</time>
      </trkpt>
      <trkpt lat="45.815040422603488" lon="8.916652332991362">
        <ele>424.0787353515625</ele>
        <time>2005-08-12T15:13:36Z</time>
      </trkpt>
      <trkpt lat="45.81496674567461" lon="8.916521491482854">
        <ele>424.0787353515625</ele>
        <time>2005-08-12T15:13:39Z</time>
      </trkpt>
      <trkpt lat="45.814886279404163" lon="8.91640062443912">
        <ele>425.520751953125</ele>
        <time>2005-08-12T15:13:42Z</time>
      </trkpt>
      <trkpt lat="45.814810339361429" lon="8.916302807629108">
        <ele>425.0401611328125</ele>
        <time>2005-08-12T15:13:45Z</time>
      </trkpt>
      <trkpt lat="45.814720317721367" lon="8.916200799867511">
        <ele>424.5594482421875</ele>
        <time>2005-08-12T15:13:48Z</time>
      </trkpt>
      <trkpt lat="45.814636666327715" lon="8.916102144867182">
        <ele>425.520751953125</ele>
        <time>2005-08-12T15:13:51Z</time>
      </trkpt>
      <trkpt lat="45.81455871462822" lon="8.916004495695233">
        <ele>425.520751953125</ele>
        <time>2005-08-12T15:13:54Z</time>
      </trkpt>
      <trkpt lat="45.81445905379951" lon="8.915891759097576">
        <ele>425.520751953125</ele>
        <time>2005-08-12T15:13:58Z</time>
      </trkpt>
      <trkpt lat="45.814342796802521" lon="8.915764940902591">
        <ele>425.520751953125</ele>
        <time>2005-08-12T15:14:02Z</time>
      </trkpt>
      <trkpt lat="45.814234837889671" lon="8.91565983183682">
        <ele>425.520751953125</ele>
        <time>2005-08-12T15:14:05Z</time>
      </trkpt>
      <trkpt lat="45.81413459032774" lon="8.915563691407442">
        <ele>425.520751953125</ele>
        <time>2005-08-12T15:14:08Z</time>
      </trkpt>
      <trkpt lat="45.814033169299364" lon="8.915464617311955">
        <ele>425.0401611328125</ele>
        <time>2005-08-12T15:14:11Z</time>
      </trkpt>
      <trkpt lat="45.813932251185179" lon="8.915369734168053">
        <ele>424.5594482421875</ele>
        <time>2005-08-12T15:14:14Z</time>
      </trkpt>
      <trkpt lat="45.813845498487353" lon="8.915255991742015">
        <ele>425.0401611328125</ele>
        <time>2005-08-12T15:14:17Z</time>
      </trkpt>
      <trkpt lat="45.813767043873668" lon="8.915156330913305">
        <ele>425.520751953125</ele>
        <time>2005-08-12T15:14:20Z</time>
      </trkpt>
      <trkpt lat="45.813701497390866" lon="8.915040157735348">
        <ele>426.0013427734375</ele>
        <time>2005-08-12T15:14:23Z</time>
      </trkpt>
      <trkpt lat="45.8136445004493" lon="8.914915351197124">
        <ele>426.0013427734375</ele>
        <time>2005-08-12T15:14:26Z</time>
      </trkpt>
      <trkpt lat="45.813589096069336" lon="8.914792891591787">
        <ele>427.443359375</ele>
        <time>2005-08-12T15:14:29Z</time>
      </trkpt>
      <trkpt lat="45.813514580950141" lon="8.914651907980442">
        <ele>426.0013427734375</ele>
        <time>2005-08-12T15:14:33Z</time>
      </trkpt>
      <trkpt lat="45.813439143821597" lon="8.914520563557744">
        <ele>426.0013427734375</ele>
        <time>2005-08-12T15:14:37Z</time>
      </trkpt>
      <trkpt lat="45.813384493812919" lon="8.914412939921022">
        <ele>426.0013427734375</ele>
        <time>2005-08-12T15:14:40Z</time>
      </trkpt>
      <trkpt lat="45.813315594568849" lon="8.914295760914683">
        <ele>425.520751953125</ele>
        <time>2005-08-12T15:14:43Z</time>
      </trkpt>
      <trkpt lat="45.81325164064765" lon="8.914166428148747">
        <ele>425.0401611328125</ele>
        <time>2005-08-12T15:14:46Z</time>
      </trkpt>
      <trkpt lat="45.813180645927787" lon="8.91403466463089">
        <ele>424.5594482421875</ele>
        <time>2005-08-12T15:14:49Z</time>
      </trkpt>
      <trkpt lat="45.813106298446655" lon="8.91389393247664">
        <ele>423.5980224609375</ele>
        <time>2005-08-12T15:14:52Z</time>
      </trkpt>
      <trkpt lat="45.813030023127794" lon="8.913741800934076">
        <ele>423.5980224609375</ele>
        <time>2005-08-12T15:14:55Z</time>
      </trkpt>
      <trkpt lat="45.812879567965865" lon="8.913418259471655">
        <ele>423.5980224609375</ele>
        <time>2005-08-12T15:15:01Z</time>
      </trkpt>
      <trkpt lat="45.812552087008953" lon="8.913313737139106">
        <ele>423.5980224609375</ele>
        <time>2005-08-12T15:15:04Z</time>
      </trkpt>
      <trkpt lat="45.812522079795599" lon="8.913178537040949">
        <ele>423.5980224609375</ele>
        <time>2005-08-12T15:15:06Z</time>
      </trkpt>
      <trkpt lat="45.812492072582245" lon="8.913043504580855">
        <ele>423.5980224609375</ele>
        <time>2005-08-12T15:15:08Z</time>
      </trkpt>
      <trkpt lat="45.81246298737824" lon="8.912912663072348">
        <ele>423.5980224609375</ele>
        <time>2005-08-12T15:15:10Z</time>
      </trkpt>
      <trkpt lat="45.812432141974568" lon="8.912773774936795">
        <ele>423.117431640625</ele>
        <time>2005-08-12T15:15:12Z</time>
      </trkpt>
      <trkpt lat="45.812404900789261" lon="8.912651566788554">
        <ele>423.117431640625</ele>
        <time>2005-08-12T15:15:14Z</time>
      </trkpt>
      <trkpt lat="45.812384700402617" lon="8.912569927051663">
        <ele>423.117431640625</ele>
        <time>2005-08-12T15:15:16Z</time>
      </trkpt>
      <trkpt lat="45.812328457832336" lon="8.912513768300414">
        <ele>423.117431640625</ele>
        <time>2005-08-12T15:15:18Z</time>
      </trkpt>
      <trkpt lat="45.812530964612961" lon="8.912159884348512">
        <ele>423.117431640625</ele>
        <time>2005-08-12T15:15:20Z</time>
      </trkpt>
      <trkpt lat="45.812521744519472" lon="8.911998867988586">
        <ele>423.117431640625</ele>
        <time>2005-08-12T15:15:22Z</time>
      </trkpt>
      <trkpt lat="45.812502382323146" lon="8.911856291815639">
        <ele>422.63671875</ele>
        <time>2005-08-12T15:15:24Z</time>
      </trkpt>
      <trkpt lat="45.812485450878739" lon="8.911701058968902">
        <ele>423.5980224609375</ele>
        <time>2005-08-12T15:15:26Z</time>
      </trkpt>
      <trkpt lat="45.8124615624547" lon="8.911561248824">
        <ele>423.5980224609375</ele>
        <time>2005-08-12T15:15:28Z</time>
      </trkpt>
      <trkpt lat="45.81243272870779" lon="8.911367794498801">
        <ele>423.117431640625</ele>
        <time>2005-08-12T15:15:31Z</time>
      </trkpt>
      <trkpt lat="45.812436752021313" lon="8.911158917471767">
        <ele>423.5980224609375</ele>
        <time>2005-08-12T15:15:34Z</time>
      </trkpt>
      <trkpt lat="45.812459383159876" lon="8.910962613299489">
        <ele>423.117431640625</ele>
        <time>2005-08-12T15:15:37Z</time>
      </trkpt>
      <trkpt lat="45.812475141137838" lon="8.910765973851085">
        <ele>423.5980224609375</ele>
        <time>2005-08-12T15:15:40Z</time>
      </trkpt>
      <trkpt lat="45.812499364838004" lon="8.910563550889492">
        <ele>424.0787353515625</ele>
        <time>2005-08-12T15:15:43Z</time>
      </trkpt>
      <trkpt lat="45.812517302110791" lon="8.910376131534576">
        <ele>425.0401611328125</ele>
        <time>2005-08-12T15:15:46Z</time>
      </trkpt>
      <trkpt lat="45.812531132251024" lon="8.910210002213717">
        <ele>425.520751953125</ele>
        <time>2005-08-12T15:15:49Z</time>
      </trkpt>
      <trkpt lat="45.812536412850022" lon="8.910047058016062">
        <ele>426.9627685546875</ele>
        <time>2005-08-12T15:15:52Z</time>
      </trkpt>
      <trkpt lat="45.812535407021642" lon="8.909878497943282">
        <ele>428.4046630859375</ele>
        <time>2005-08-12T15:15:56Z</time>
      </trkpt>
      <trkpt lat="45.812510428950191" lon="8.909709602594376">
        <ele>429.365966796875</ele>
        <time>2005-08-12T15:16:00Z</time>
      </trkpt>
      <trkpt lat="45.812463155016303" lon="8.909584879875183">
        <ele>429.8465576171875</ele>
        <time>2005-08-12T15:16:03Z</time>
      </trkpt>
      <trkpt lat="45.812399704009295" lon="8.909434089437127">
        <ele>430.3272705078125</ele>
        <time>2005-08-12T15:16:07Z</time>
      </trkpt>
      <trkpt lat="45.812332732602954" lon="8.909288076683879">
        <ele>430.3272705078125</ele>
        <time>2005-08-12T15:16:11Z</time>
      </trkpt>
      <trkpt lat="45.81226265989244" lon="8.909163940697908">
        <ele>430.3272705078125</ele>
        <time>2005-08-12T15:16:14Z</time>
      </trkpt>
      <trkpt lat="45.812196442857385" lon="8.909055143594742">
        <ele>429.8465576171875</ele>
        <time>2005-08-12T15:16:17Z</time>
      </trkpt>
      <trkpt lat="45.812128046527505" lon="8.908945256844163">
        <ele>429.8465576171875</ele>
        <time>2005-08-12T15:16:20Z</time>
      </trkpt>
      <trkpt lat="45.812059734016657" lon="8.908835370093584">
        <ele>429.8465576171875</ele>
        <time>2005-08-12T15:16:23Z</time>
      </trkpt>
      <trkpt lat="45.811979519203305" lon="8.908733865246177">
        <ele>429.365966796875</ele>
        <time>2005-08-12T15:16:26Z</time>
      </trkpt>
      <trkpt lat="45.811899388208985" lon="8.908633114770055">
        <ele>428.8853759765625</ele>
        <time>2005-08-12T15:16:29Z</time>
      </trkpt>
      <trkpt lat="45.811819257214665" lon="8.908532364293933">
        <ele>429.365966796875</ele>
        <time>2005-08-12T15:16:32Z</time>
      </trkpt>
      <trkpt lat="45.811700569465756" lon="8.908456843346357">
        <ele>429.8465576171875</ele>
        <time>2005-08-12T15:16:35Z</time>
      </trkpt>
      <trkpt lat="45.811605015769601" lon="8.908382998779416">
        <ele>430.3272705078125</ele>
        <time>2005-08-12T15:16:38Z</time>
      </trkpt>
      <trkpt lat="45.811502085998654" lon="8.908312087878585">
        <ele>430.3272705078125</ele>
        <time>2005-08-12T15:16:41Z</time>
      </trkpt>
      <trkpt lat="45.811401503160596" lon="8.908227263018489">
        <ele>430.3272705078125</ele>
        <time>2005-08-12T15:16:44Z</time>
      </trkpt>
      <trkpt lat="45.811319863423705" lon="8.908116202801466">
        <ele>429.365966796875</ele>
        <time>2005-08-12T15:16:47Z</time>
      </trkpt>
      <trkpt lat="45.8112683147192" lon="8.907975554466248">
        <ele>429.365966796875</ele>
        <time>2005-08-12T15:16:50Z</time>
      </trkpt>
      <trkpt lat="45.811228835955262" lon="8.907829374074936">
        <ele>428.8853759765625</ele>
        <time>2005-08-12T15:16:53Z</time>
      </trkpt>
      <trkpt lat="45.811171922832727" lon="8.907720157876611">
        <ele>429.365966796875</ele>
        <time>2005-08-12T15:17:00Z</time>
      </trkpt>
      <trkpt lat="45.811173599213362" lon="8.907594932243228">
        <ele>428.8853759765625</ele>
        <time>2005-08-12T15:17:07Z</time>
      </trkpt>
      <trkpt lat="45.811073519289494" lon="8.907517064362764">
        <ele>429.8465576171875</ele>
        <time>2005-08-12T15:17:12Z</time>
      </trkpt>
      <trkpt lat="45.810994394123554" lon="8.907418744638562">
        <ele>430.3272705078125</ele>
        <time>2005-08-12T15:17:15Z</time>
      </trkpt>
      <trkpt lat="45.810906467959285" lon="8.90731941908598">
        <ele>430.8079833984375</ele>
        <time>2005-08-12T15:17:18Z</time>
      </trkpt>
      <trkpt lat="45.810809154063463" lon="8.907237611711025">
        <ele>430.3272705078125</ele>
        <time>2005-08-12T15:17:21Z</time>
      </trkpt>
      <trkpt lat="45.810703039169312" lon="8.907174915075302">
        <ele>430.8079833984375</ele>
        <time>2005-08-12T15:17:24Z</time>
      </trkpt>
      <trkpt lat="45.810584267601371" lon="8.90713032335043">
        <ele>431.7691650390625</ele>
        <time>2005-08-12T15:17:27Z</time>
      </trkpt>
      <trkpt lat="45.810457617044449" lon="8.907099310308695">
        <ele>431.28857421875</ele>
        <time>2005-08-12T15:17:30Z</time>
      </trkpt>
      <trkpt lat="45.810372121632099" lon="8.907083719968796">
        <ele>431.28857421875</ele>
        <time>2005-08-12T15:17:32Z</time>
      </trkpt>
      <trkpt lat="45.810242369771004" lon="8.907060166820884">
        <ele>430.8079833984375</ele>
        <time>2005-08-12T15:17:35Z</time>
      </trkpt>
      <trkpt lat="45.810111612081528" lon="8.907036446034908">
        <ele>430.8079833984375</ele>
        <time>2005-08-12T15:17:38Z</time>
      </trkpt>
      <trkpt lat="45.809978088364005" lon="8.907015826553106">
        <ele>430.3272705078125</ele>
        <time>2005-08-12T15:17:41Z</time>
      </trkpt>
      <trkpt lat="45.809842804446816" lon="8.906995039433241">
        <ele>431.28857421875</ele>
        <time>2005-08-12T15:17:44Z</time>
      </trkpt>
      <trkpt lat="45.809751693159342" lon="8.906981125473976">
        <ele>430.8079833984375</ele>
        <time>2005-08-12T15:17:46Z</time>
      </trkpt>
      <trkpt lat="45.809614900499582" lon="8.906960086897016">
        <ele>430.3272705078125</ele>
        <time>2005-08-12T15:17:49Z</time>
      </trkpt>
      <trkpt lat="45.809524627402425" lon="8.906943071633577">
        <ele>431.28857421875</ele>
        <time>2005-08-12T15:17:51Z</time>
      </trkpt>
      <trkpt lat="45.809392612427473" lon="8.906910298392177">
        <ele>431.28857421875</ele>
        <time>2005-08-12T15:17:54Z</time>
      </trkpt>
      <trkpt lat="45.809256741777062" lon="8.906893786042929">
        <ele>431.28857421875</ele>
        <time>2005-08-12T15:17:57Z</time>
      </trkpt>
      <trkpt lat="45.809125145897269" lon="8.906879117712379">
        <ele>431.28857421875</ele>
        <time>2005-08-12T15:18:00Z</time>
      </trkpt>
      <trkpt lat="45.80897955223918" lon="8.906880207359791">
        <ele>431.28857421875</ele>
        <time>2005-08-12T15:18:03Z</time>
      </trkpt>
      <trkpt lat="45.80886916257441" lon="8.906974839046598">
        <ele>430.8079833984375</ele>
        <time>2005-08-12T15:18:06Z</time>
      </trkpt>
      <trkpt lat="45.808785008266568" lon="8.907047007232904">
        <ele>430.3272705078125</ele>
        <time>2005-08-12T15:18:08Z</time>
      </trkpt>
      <trkpt lat="45.808693477883935" lon="8.907125294208527">
        <ele>430.3272705078125</ele>
        <time>2005-08-12T15:18:10Z</time>
      </trkpt>
      <trkpt lat="45.808598510921001" lon="8.907199809327722">
        <ele>428.8853759765625</ele>
        <time>2005-08-12T15:18:12Z</time>
      </trkpt>
      <trkpt lat="45.808497508987784" lon="8.907279185950756">
        <ele>428.4046630859375</ele>
        <time>2005-08-12T15:18:14Z</time>
      </trkpt>
      <trkpt lat="45.808389382436872" lon="8.907364094629884">
        <ele>426.9627685546875</ele>
        <time>2005-08-12T15:18:16Z</time>
      </trkpt>
      <trkpt lat="45.808267677202821" lon="8.907459815964103">
        <ele>426.0013427734375</ele>
        <time>2005-08-12T15:18:18Z</time>
      </trkpt>
      <trkpt lat="45.80813960172236" lon="8.907560482621193">
        <ele>425.0401611328125</ele>
        <time>2005-08-12T15:18:20Z</time>
      </trkpt>
      <trkpt lat="45.808102134615183" lon="8.907840186730027">
        <ele>424.0787353515625</ele>
        <time>2005-08-12T15:18:22Z</time>
      </trkpt>
      <trkpt lat="45.808119317516685" lon="8.90804604627192">
        <ele>424.0787353515625</ele>
        <time>2005-08-12T15:18:24Z</time>
      </trkpt>
      <trkpt lat="45.808135578408837" lon="8.908241931349039">
        <ele>423.5980224609375</ele>
        <time>2005-08-12T15:18:26Z</time>
      </trkpt>
      <trkpt lat="45.808188300579786" lon="8.908415352925658">
        <ele>424.0787353515625</ele>
        <time>2005-08-12T15:18:28Z</time>
      </trkpt>
      <trkpt lat="45.808250326663256" lon="8.908583829179406">
        <ele>424.0787353515625</ele>
        <time>2005-08-12T15:18:30Z</time>
      </trkpt>
      <trkpt lat="45.80831453204155" lon="8.908758172765374">
        <ele>423.5980224609375</ele>
        <time>2005-08-12T15:18:32Z</time>
      </trkpt>
      <trkpt lat="45.808382844552398" lon="8.908943580463529">
        <ele>423.5980224609375</ele>
        <time>2005-08-12T15:18:34Z</time>
      </trkpt>
      <trkpt lat="45.808439254760742" lon="8.909149523824453">
        <ele>422.156005859375</ele>
        <time>2005-08-12T15:18:36Z</time>
      </trkpt>
      <trkpt lat="45.808482505381107" lon="8.909376757219434">
        <ele>422.156005859375</ele>
        <time>2005-08-12T15:18:38Z</time>
      </trkpt>
      <trkpt lat="45.80854712985456" lon="8.90960281714797">
        <ele>420.2333984375</ele>
        <time>2005-08-12T15:18:40Z</time>
      </trkpt>
      <trkpt lat="45.808613514527678" lon="8.909835247322917">
        <ele>418.79150390625</ele>
        <time>2005-08-12T15:18:42Z</time>
      </trkpt>
      <trkpt lat="45.808684593066573" lon="8.910084022209048">
        <ele>417.8302001953125</ele>
        <time>2005-08-12T15:18:44Z</time>
      </trkpt>
      <trkpt lat="45.808712504804134" lon="8.910213271155953">
        <ele>417.349609375</ele>
        <time>2005-08-12T15:18:45Z</time>
      </trkpt>
      <trkpt lat="45.80873622559011" lon="8.910343777388334">
        <ele>416.38818359375</ele>
        <time>2005-08-12T15:18:46Z</time>
      </trkpt>
      <trkpt lat="45.80875969491899" lon="8.910472858697176">
        <ele>416.38818359375</ele>
        <time>2005-08-12T15:18:47Z</time>
      </trkpt>
      <trkpt lat="45.808784086257219" lon="8.910604789853096">
        <ele>415.907470703125</ele>
        <time>2005-08-12T15:18:48Z</time>
      </trkpt>
      <trkpt lat="45.808815350756049" lon="8.910729847848415">
        <ele>415.907470703125</ele>
        <time>2005-08-12T15:18:49Z</time>
      </trkpt>
      <trkpt lat="45.808889865875244" lon="8.91096361912787">
        <ele>414.4654541015625</ele>
        <time>2005-08-12T15:18:51Z</time>
      </trkpt>
      <trkpt lat="45.808949712663889" lon="8.911186913028359">
        <ele>415.4268798828125</ele>
        <time>2005-08-12T15:18:53Z</time>
      </trkpt>
      <trkpt lat="45.80900008790195" lon="8.911395538598299">
        <ele>415.4268798828125</ele>
        <time>2005-08-12T15:18:55Z</time>
      </trkpt>
      <trkpt lat="45.809044176712632" lon="8.911578096449375">
        <ele>414.9461669921875</ele>
        <time>2005-08-12T15:18:57Z</time>
      </trkpt>
      <trkpt lat="45.809084409847856" lon="8.911744980141521">
        <ele>415.4268798828125</ele>
        <time>2005-08-12T15:18:59Z</time>
      </trkpt>
      <trkpt lat="45.809122379869223" lon="8.911902140825987">
        <ele>416.38818359375</ele>
        <time>2005-08-12T15:19:01Z</time>
      </trkpt>
      <trkpt lat="45.809161020442843" lon="8.912062402814627">
        <ele>416.38818359375</ele>
        <time>2005-08-12T15:19:03Z</time>
      </trkpt>
      <trkpt lat="45.809200750663877" lon="8.912226939573884">
        <ele>415.907470703125</ele>
        <time>2005-08-12T15:19:05Z</time>
      </trkpt>
      <trkpt lat="45.809255233034492" lon="8.91238703392446">
        <ele>415.907470703125</ele>
        <time>2005-08-12T15:19:07Z</time>
      </trkpt>
      <trkpt lat="45.809314912185073" lon="8.91254436224699">
        <ele>416.38818359375</ele>
        <time>2005-08-12T15:19:09Z</time>
      </trkpt>
      <trkpt lat="45.80937534570694" lon="8.912703786045313">
        <ele>415.907470703125</ele>
        <time>2005-08-12T15:19:11Z</time>
      </trkpt>
      <trkpt lat="45.809435779228806" lon="8.912863126024604">
        <ele>416.38818359375</ele>
        <time>2005-08-12T15:19:13Z</time>
      </trkpt>
      <trkpt lat="45.809495458379388" lon="8.91302028670907">
        <ele>416.868896484375</ele>
        <time>2005-08-12T15:19:15Z</time>
      </trkpt>
      <trkpt lat="45.809553964063525" lon="8.913174849003553">
        <ele>416.38818359375</ele>
        <time>2005-08-12T15:19:17Z</time>
      </trkpt>
      <trkpt lat="45.809609452262521" lon="8.913321029394865">
        <ele>415.907470703125</ele>
        <time>2005-08-12T15:19:19Z</time>
      </trkpt>
      <trkpt lat="45.809664856642485" lon="8.913467125967145">
        <ele>415.907470703125</ele>
        <time>2005-08-12T15:19:21Z</time>
      </trkpt>
      <trkpt lat="45.809731660410762" lon="8.913588747382164">
        <ele>415.907470703125</ele>
        <time>2005-08-12T15:19:23Z</time>
      </trkpt>
      <trkpt lat="45.809784131124616" lon="8.913761246949434">
        <ele>416.868896484375</ele>
        <time>2005-08-12T15:19:25Z</time>
      </trkpt>
      <trkpt lat="45.809804582968354" lon="8.913925029337406">
        <ele>416.868896484375</ele>
        <time>2005-08-12T15:19:27Z</time>
      </trkpt>
      <trkpt lat="45.809805504977703" lon="8.914094427600503">
        <ele>416.38818359375</ele>
        <time>2005-08-12T15:19:29Z</time>
      </trkpt>
      <trkpt lat="45.80979460850358" lon="8.914257455617189">
        <ele>416.38818359375</ele>
        <time>2005-08-12T15:19:31Z</time>
      </trkpt>
      <trkpt lat="45.809783544391394" lon="8.914424004033208">
        <ele>416.868896484375</ele>
        <time>2005-08-12T15:19:33Z</time>
      </trkpt>
      <trkpt lat="45.809772480279207" lon="8.914589462801814">
        <ele>417.349609375</ele>
        <time>2005-08-12T15:19:35Z</time>
      </trkpt>
      <trkpt lat="45.809767032042146" lon="8.91467085108161">
        <ele>417.349609375</ele>
        <time>2005-08-12T15:19:36Z</time>
      </trkpt>
      <trkpt lat="45.809750938788056" lon="8.914912836626172">
        <ele>417.349609375</ele>
        <time>2005-08-12T15:19:39Z</time>
      </trkpt>
      <trkpt lat="45.809740461409092" lon="8.915069410577416">
        <ele>417.349609375</ele>
        <time>2005-08-12T15:19:41Z</time>
      </trkpt>
      <trkpt lat="45.809730319306254" lon="8.915221877396107">
        <ele>417.8302001953125</ele>
        <time>2005-08-12T15:19:43Z</time>
      </trkpt>
      <trkpt lat="45.809763511642814" lon="8.915368476882577">
        <ele>418.310791015625</ele>
        <time>2005-08-12T15:19:45Z</time>
      </trkpt>
      <trkpt lat="45.809813048690557" lon="8.915491942316294">
        <ele>418.79150390625</ele>
        <time>2005-08-12T15:19:47Z</time>
      </trkpt>
      <trkpt lat="45.80988010391593" lon="8.915606942027807">
        <ele>419.272216796875</ele>
        <time>2005-08-12T15:19:49Z</time>
      </trkpt>
      <trkpt lat="45.809946823865175" lon="8.915721271187067">
        <ele>419.272216796875</ele>
        <time>2005-08-12T15:19:51Z</time>
      </trkpt>
      <trkpt lat="45.810012454167008" lon="8.915833840146661">
        <ele>419.7528076171875</ele>
        <time>2005-08-12T15:19:53Z</time>
      </trkpt>
      <trkpt lat="45.810078503564" lon="8.915946995839477">
        <ele>419.7528076171875</ele>
        <time>2005-08-12T15:19:55Z</time>
      </trkpt>
      <trkpt lat="45.810146480798721" lon="8.916047411039472">
        <ele>420.714111328125</ele>
        <time>2005-08-12T15:19:57Z</time>
      </trkpt>
      <trkpt lat="45.81022753380239" lon="8.916147574782372">
        <ele>420.714111328125</ele>
        <time>2005-08-12T15:19:59Z</time>
      </trkpt>
      <trkpt lat="45.810299701988697" lon="8.916236842051148">
        <ele>421.19482421875</ele>
        <time>2005-08-12T15:20:01Z</time>
      </trkpt>
      <trkpt lat="45.810372373089194" lon="8.916326528415084">
        <ele>421.6754150390625</ele>
        <time>2005-08-12T15:20:03Z</time>
      </trkpt>
      <trkpt lat="45.810498436912894" lon="8.916482264176011">
        <ele>420.2333984375</ele>
        <time>2005-08-12T15:20:06Z</time>
      </trkpt>
      <trkpt lat="45.810596672818065" lon="8.916603717952967">
        <ele>419.272216796875</ele>
        <time>2005-08-12T15:20:08Z</time>
      </trkpt>
      <trkpt lat="45.810704380273819" lon="8.916736738756299">
        <ele>418.310791015625</ele>
        <time>2005-08-12T15:20:10Z</time>
      </trkpt>
      <trkpt lat="45.810820804908872" lon="8.916880572214723">
        <ele>417.349609375</ele>
        <time>2005-08-12T15:20:12Z</time>
      </trkpt>
      <trkpt lat="45.810940833762288" lon="8.917027423158288">
        <ele>416.868896484375</ele>
        <time>2005-08-12T15:20:14Z</time>
      </trkpt>
      <trkpt lat="45.811066897585988" lon="8.917181566357613">
        <ele>416.38818359375</ele>
        <time>2005-08-12T15:20:16Z</time>
      </trkpt>
      <trkpt lat="45.811196397989988" lon="8.917339816689491">
        <ele>414.9461669921875</ele>
        <time>2005-08-12T15:20:18Z</time>
      </trkpt>
      <trkpt lat="45.811365460976958" lon="8.917406536638737">
        <ele>414.4654541015625</ele>
        <time>2005-08-12T15:20:20Z</time>
      </trkpt>
      <trkpt lat="45.811443328857422" lon="8.917422294616699">
        <ele>414.4654541015625</ele>
        <time>2005-08-12T15:20:22Z</time>
      </trkpt>
      <trkpt lat="45.811572074890137" lon="8.917722702026367">
        <ele>413.98486328125</ele>
        <time>2005-08-12T15:20:24Z</time>
      </trkpt>
      <trkpt lat="45.811641979962587" lon="8.917914982885122">
        <ele>414.4654541015625</ele>
        <time>2005-08-12T15:20:26Z</time>
      </trkpt>
      <trkpt lat="45.811715237796307" lon="8.918116483837366">
        <ele>413.98486328125</ele>
        <time>2005-08-12T15:20:28Z</time>
      </trkpt>
      <trkpt lat="45.811799811199307" lon="8.918321002274752">
        <ele>413.98486328125</ele>
        <time>2005-08-12T15:20:30Z</time>
      </trkpt>
      <trkpt lat="45.81188740208745" lon="8.918517976999283">
        <ele>413.98486328125</ele>
        <time>2005-08-12T15:20:32Z</time>
      </trkpt>
      <trkpt lat="45.811970215290785" lon="8.918718053027988">
        <ele>413.5042724609375</ele>
        <time>2005-08-12T15:20:34Z</time>
      </trkpt>
      <trkpt lat="45.81205160357058" lon="8.918921397998929">
        <ele>413.0235595703125</ele>
        <time>2005-08-12T15:20:36Z</time>
      </trkpt>
      <trkpt lat="45.812134249135852" lon="8.919128095731139">
        <ele>412.062255859375</ele>
        <time>2005-08-12T15:20:38Z</time>
      </trkpt>
      <trkpt lat="45.812210105359554" lon="8.919348791241646">
        <ele>411.1009521484375</ele>
        <time>2005-08-12T15:20:40Z</time>
      </trkpt>
      <trkpt lat="45.812279256060719" lon="8.919579293578863">
        <ele>409.1783447265625</ele>
        <time>2005-08-12T15:20:42Z</time>
      </trkpt>
      <trkpt lat="45.812301635742188" lon="8.91965389251709">
        <ele>408.6976318359375</ele>
        <time>2005-08-12T15:20:44Z</time>
      </trkpt>
      <trkpt lat="45.812258720397949" lon="8.91991138458252">
        <ele>407.736328125</ele>
        <time>2005-08-12T15:20:46Z</time>
      </trkpt>
      <trkpt lat="45.812164507806301" lon="8.920005680993199">
        <ele>407.736328125</ele>
        <time>2005-08-12T15:20:48Z</time>
      </trkpt>
      <trkpt lat="45.812043976038694" lon="8.920126212760806">
        <ele>408.217041015625</ele>
        <time>2005-08-12T15:20:50Z</time>
      </trkpt>
      <trkpt lat="45.811934173107147" lon="8.920236015692353">
        <ele>409.1783447265625</ele>
        <time>2005-08-12T15:20:52Z</time>
      </trkpt>
      <trkpt lat="45.811823364347219" lon="8.920389655977488">
        <ele>410.1396484375</ele>
        <time>2005-08-12T15:20:54Z</time>
      </trkpt>
      <trkpt lat="45.811751196160913" lon="8.92052510753274">
        <ele>410.1396484375</ele>
        <time>2005-08-12T15:20:56Z</time>
      </trkpt>
      <trkpt lat="45.811679782345891" lon="8.920658798888326">
        <ele>411.1009521484375</ele>
        <time>2005-08-12T15:20:58Z</time>
      </trkpt>
      <trkpt lat="45.811610464006662" lon="8.920788802206516">
        <ele>411.5816650390625</ele>
        <time>2005-08-12T15:21:00Z</time>
      </trkpt>
      <trkpt lat="45.811543241143227" lon="8.920914949849248">
        <ele>411.1009521484375</ele>
        <time>2005-08-12T15:21:02Z</time>
      </trkpt>
      <trkpt lat="45.811448441818357" lon="8.920999607071281">
        <ele>411.1009521484375</ele>
        <time>2005-08-12T15:21:04Z</time>
      </trkpt>
      <trkpt lat="45.811352636665106" lon="8.921068757772446">
        <ele>411.1009521484375</ele>
        <time>2005-08-12T15:21:06Z</time>
      </trkpt>
      <trkpt lat="45.811255071312189" lon="8.921139249578118">
        <ele>411.5816650390625</ele>
        <time>2005-08-12T15:21:08Z</time>
      </trkpt>
      <trkpt lat="45.81115641631186" lon="8.921210579574108">
        <ele>411.1009521484375</ele>
        <time>2005-08-12T15:21:10Z</time>
      </trkpt>
      <trkpt lat="45.811059437692165" lon="8.921280652284622">
        <ele>412.062255859375</ele>
        <time>2005-08-12T15:21:12Z</time>
      </trkpt>
      <trkpt lat="45.810963129624724" lon="8.921350222080946">
        <ele>411.5816650390625</ele>
        <time>2005-08-12T15:21:14Z</time>
      </trkpt>
      <trkpt lat="45.810869503766298" lon="8.92141786403954">
        <ele>412.062255859375</ele>
        <time>2005-08-12T15:21:16Z</time>
      </trkpt>
    </trkseg>
  </trk>

</gpx>
